     2              OBSERVATION DATA    GPS                 RINEX VERSION / TYPE
ASRINEXO V2.7.2 UX SOPAC 02-MAR- 0 15:32                    PGM / RUN BY / DATE
                                                            COMMENT
Original Marker Name: 0109                                  COMMENT
Campaign Name: HPGN 1991                                    COMMENT
4-Character Station Name: 0109                              COMMENT
6-Character Antenna Code: ASHL12                            COMMENT
Vertical Measurement Point: BAS                             COMMENT
Vertical Offset to Rinex Ref. Point: 0.0000                 COMMENT
Radial Measurement Point: RRP                               COMMENT
Radial Offset to Rinex Ref. Point: 0.0000                   COMMENT
Antenna Height from Field Measurement: 1.5950 m             COMMENT
Additional Antenna Identification Info.:                    COMMENT
Original Ashtech L1/L2                                      COMMENT
Original XYZ: 6378137.0000 0.0000 0.0000                    COMMENT
New XYZ position is based on association with SCEC monument COMMENT
E1N5Z1M6+0011. Position of that monument is believed to be  COMMENT
valid to within 1 m horizontally; vertical accuracy         COMMENT
should be no worse than 3-times this value.                 COMMENT
                                                            COMMENT
Revised Rinex header created by UCSD GPS archive for        COMMENT
GSAC on 17-Mar-2000 (2000:077) 22:32:20 GMT                 COMMENT
For assistance contact dagnew@ucsd.edu or hjohnson@ucsd.edu COMMENT
                                                            COMMENT
HPGN CA 01 09                                               MARKER NAME
JDD CALIF DEPT TRANSPORTATION                               OBSERVER / AGENCY
579 ASHTECH L-XII 6A                                        REC # / TYPE / VERS
619 ASHTECH GEODETIC L                                      ANT # / TYPE
 -2704844.3325 -3992428.4286  4160334.5591                  APPROX POSITION XYZ
        1.5950        0.0000        0.0000                  ANTENNA: DELTA H/E/N
     1     2     0                                          WAVELENGTH FACT L1/2
     3    C1    L1    L2                                    # / TYPES OF OBSERV
     0                                                      INTERVAL
  1991     7    27     0    33   15.000000                  TIME OF FIRST OBS
  1991     7    27     5     1   30.000000                  TIME OF LAST OBS
                                                            END OF HEADER
 91  7 27  0 33 15.0000000  0  2 20 23
  30958913.895           0.878 3         0.449 1
  32152549.849           0.909 2         0.021 1
 91  7 27  0 33 30.0000000  0  2 20 23
  30969259.135       54369.633 3     42365.645 1
  32142342.222      -53677.009 2    -41826.749 1
 91  7 27  0 33 45.0000000  0  2 20 23
  30679828.689      108845.049 3     84813.961 1
  31832352.628     -107279.340 2    -83594.594 1
 91  7 27  0 34  0.0000000  0  2 20 23
  30690225.197      163464.282 3    127374.328 1
  31822177.371     -160753.850 2   -125262.847 1
 91  7 27  0 34 15.0000000  0  2 20 23
  31000445.344      218251.921 3    170065.926 1
  32111824.845     -214075.205 2   -166812.195 1
 91  7 27  0 34 30.0000000  0  2 20 23
  31010905.702      273229.897 3    212905.867 1
  32101705.045     -267235.258 2   -208235.406 1
 91  7 27  0 34 45.0000000  0  2 20 23
  30721610.478      328405.112 3    255899.433 2
  31791825.474     -320226.461 2   -249527.030 1
 91  7 27  0 35  0.0000000  0  2 20 23
  30732149.677      383773.662 3    299043.695 1
  31781773.730     -373037.676 2   -290678.453 1
 91  7 27  0 35 14.9990000  0  3 20 16 23
  30742722.464      439332.559 3    342336.264 1
  29993617.859           0.997 3         0.373 2
  31771760.076     -425671.316 2   -331691.455 1
 91  7 27  0 35 29.9990000  0  3 20 16 23
  30753333.016      495087.650 3    385781.726 1
  30000527.168       36322.094 3     28302.515 2
  31761770.385     -478135.279 2   -372572.711 1
 91  7 27  0 35 44.9990000  0  4 20 16 23 03
  26267100.163          64.545 3        49.210 1
  25510608.968      -99176.714 3    -77280.903 2
  27254925.003        2722.839 2      2121.763 1
  23704355.515           0.895 4         0.378 2
 91  7 27  0 35 59.9990000  0  4 20 16 23 03
  26277782.366       56194.382 3     43786.684 1
  25517611.828      -62361.400 3    -48593.669 2
  27245013.873      -49402.839 2    -38495.421 1
  23702886.538       -7730.451 4     -6024.041 2
 91  7 27  0 36 14.9990000  0  4 20 16 23 03
  22990792.501        2270.291 3      1767.715 1
  22226951.310      -97502.299 3    -75976.218 2
  23937396.489        1315.814 2      1025.583 1
  20403735.895         152.747 4       118.817 3
 91  7 27  0 36 29.9990000  0  4 20 16 23 03
  23001541.870       58760.171 3     45785.728 1
  22234051.890      -60207.013 3    -46914.941 2
  23927537.517      -50483.747 2    -39337.495 1
  20402347.556       -7153.382 4     -5574.269 3
 91  7 27  0 36 44.9990000  0  4 20 16 23 03
  23012322.999      115423.058 3     89938.543 1
  22241192.345      -22678.968 3    -17672.344 2
  23917712.713     -102126.456 2    -79578.320 1
  20400997.886      -14253.276 4    -11106.653 3
 91  7 27  0 36 59.9990000  0  4 20 16 23 03
  23023132.012      172237.953 3    134209.824 1
  22248372.970       15061.013 3     11735.407 2
  23907914.887     -153632.470 2   -119712.668 1
  20399682.401      -21167.165 4    -16494.098 2
 91  7 27  0 37 14.9990000  0  5 17 20 16 23 03
  20674793.530           0.103 4         0.187 3
  23033974.618      229205.443 3    178599.994 1
  22255597.674       53013.416 3     41308.702 2
  23898134.459     -205000.730 2   -159739.672 1
  20398401.084      -27894.101 4    -21735.864 3
 91  7 27  0 37 29.9990000  0  5 17 20 16 23 03
  20671556.078      -17002.175 4    -13248.323 3
  23044845.982      286335.620 3    223116.946 1
  22262859.547       91188.585 3     71055.568 2
  23888390.310     -256220.558 2   -199651.036 1
  20397160.234      -34423.460 4    -26823.665 3
 91  7 27  0 37 44.9990000  0  5 17 20 16 23 03
  20668357.890      -33807.125 4    -26343.070 3
  23055745.248      343622.087 3    267755.682 1
  22270167.280      129580.262 3    100971.140 2
  23878667.136     -307297.631 2   -239451.176 1
  20395953.569      -40760.959 4    -31761.977 3
 91  7 27  0 37 59.9990000  0  5 17 20 16 23 03
  20665196.888      -50419.902 4    -39288.064 3
  23066679.868      401059.486 3    312511.974 1
  22277508.901      168183.228 3    131051.371 2
  23868974.552     -358236.740 2   -279143.787 1
  20394783.183      -46911.369 4    -36554.510 2
 91  7 27  0 38 14.9990000  0  5 17 20 16 23 03
  20662070.349      -66844.583 4    -52086.495 3
  23077636.982      458643.294 3    357382.415 1
  22284895.787      206992.992 3    161292.723 2
  23859302.053     -409041.492 2   -318731.711 1
  20393648.465      -52878.936 4    -41204.554 2
 91  7 27  0 38 29.9990000  0  5 17 20 16 23 03
  20658989.671      -83038.572 4    -64705.181 3
  23088630.079      516415.674 3    402399.762 1
  22292328.550      246051.612 3    191727.989 2
  23849673.320     -459669.046 2   -358181.507 1
  20392555.733      -58620.600 4    -45678.573 2
 91  7 27  0 38 44.9990000  0  5 17 20 16 23 03
  20655947.382      -99053.610 4    -77184.414 3
  23099645.354      574324.494 3    447523.428 1
  22299798.779      285307.281 3    222316.808 2
  23840063.764     -510171.131 2   -397533.614 1
  20391494.759      -64188.043 4    -50016.832 2
 91  7 27  0 38 59.9990000  0  5 17 20 16 23 03
  20652929.367     -114889.838 4    -89524.309 3
  23110684.309      632369.259 2    492753.013 1
  22307308.568      324759.515 3    253058.798 2
  23830476.108     -560547.630 2   -436787.854 1
  20390469.768      -69581.183 4    -54219.278 3
 91  7 27  0 39 14.9990000  0  5 17 20 16 23 03
  20649947.334     -130552.360 4   -101728.842 3
  23121764.343      690544.774 3    538084.507 1
  22314852.855      364402.953 3    283949.759 2
  23820917.228     -610803.017 2   -475947.680 1
  20389475.368      -74804.900 4    -58289.702 3
 91  7 27  0 39 29.9990000  0  5 17 20 16 23 03
  20647002.174     -146042.281 4   -113798.898 3
  23132861.145      748849.288 3    583516.504 1
  22322435.498      404235.926 3    314988.413 2
  23811364.333     -660938.519 2   -515014.137 1
  20388512.727      -79860.234 4    -62228.921 3
 91  7 27  0 39 44.9990000  0  5 17 20 16 23 03
  20644089.087     -161360.646 4   -125735.265 3
  23143978.662      807281.549 2    629048.041 1
  22330050.232      444257.312 3    346173.908 2
  23801859.723     -710954.428 2   -553987.355 1
  20387580.379      -84747.794 4    -66037.404 3
 91  7 27  0 39 59.9990000  0  5 17 20 16 23 03
  20641205.997     -176510.742 4   -137540.513 3
  23155117.153      865838.132 2    674676.466 1
  22337697.930      484463.697 3    377503.560 2
  23792356.893     -760853.657 2   -592869.692 1
  20386684.589      -89470.684 4    -69717.575 2
 91  7 27  0 40 14.9990000  0  5 17 20 16 23 03
  20638347.773     -191495.007 4   -149216.547 3
  23166287.718      924516.047 3    720399.428 1
  22345384.314      524852.228 3    408975.099 2
  23782890.342     -810638.732 2   -631663.081 1
  20385816.092      -94031.274 4    -73271.282 3
 91  7 27  0 40 29.9990000  0  5 17 20 16 23 03
  20635530.924     -206315.342 4   -160764.846 3
  23177478.072      983312.938 3    766215.094 1
  22353106.367      565420.598 3    440586.810 2
  23773427.699     -860311.372 2   -670368.860 1
  20384977.278      -98431.396 4    -76699.948 3
 91  7 27  0 40 44.9990000  0  5 17 20 16 23 03
  20632744.351     -220974.154 4   -172187.277 3
  23188687.603     1042226.016 3    812121.288 1
  22360860.790      606165.964 3    472336.429 2
  23763991.738     -909873.539 2   -708988.551 1
  20384173.224     -102673.030 4    -80005.121 3
 91  7 27  0 40 59.9990000  0  5 17 20 16 23 03
  20629982.366     -235471.955 4   -183484.245 3
  23199919.924     1101254.468 2    858117.407 1
  22368644.006      647087.928 3    504223.670 2
  23754591.446     -959325.466 2   -747522.320 1
  20383396.776     -106756.641 4    -83187.151 2
 91  7 27  0 41 14.9990000  0  5 17 20 16 23 03
  20627253.658     -249810.755 4   -194657.314 3
  23211175.646     1160396.268 3    904201.815 1
  22376463.798      688184.150 3    536246.679 2
  23745205.829    -1008668.650 2   -785971.400 1
  20382648.494     -110683.756 4    -86247.229 2
 91  7 27  0 41 29.9990000  0  5 17 20 16 23 03
  20624556.116     -263991.839 4   -205707.487 3
  23222449.638     1219649.359 3    950372.983 1
  22384316.867      729452.744 3    568404.004 2
  23735827.436    -1057904.211 2   -824336.602 1
  20381931.080     -114455.698 4    -89186.400 2
 91  7 27  0 41 44.9990000  0  5 17 20 16 23 03
  20621887.367     -278018.045 4   -216636.987 3
  23233744.013     1279010.597 3    996628.394 1
  22392205.290      770890.626 3    600693.231 2
  23726479.895    -1107034.921 2   -862620.098 1
  20381239.755     -118075.287 4    -92006.852 3
 91  7 27  0 41 59.9990000  0  5 17 20 16 23 03
  20619250.394     -291890.387 4   -227446.590 3
  23245060.880     1338478.692 3   1042967.072 1
  22400121.616      812496.472 3    633113.366 2
  23717151.253    -1156061.382 2   -900822.418 1
  20380581.411     -121543.172 4    -94709.098 3
 91  7 27  0 42 14.9990000  0  5 17 20 16 23 03
  20616632.303     -305608.214 4   -238135.776 3
  23256399.037     1398053.823 3   1089389.154 1
  22408070.313      854270.725 3    665664.705 1
  23707852.591    -1204982.791 2   -938942.847 1
  20379951.248     -124858.677 4    -97292.609 2
 91  7 27  0 42 29.9990000  0  5 17 20 16 23 03
  20614052.882     -319172.424 4   -248705.267 3
  23267756.075     1457734.763 3   1135893.687 1
  22416054.381      896211.999 3    698346.219 1
  23698556.929    -1253799.743 2   -976981.819 1
  20379350.176     -128022.430 4    -99757.869 2
 91  7 27  0 42 44.9990000  0  5 17 20 16 23 03
  20611503.161     -332587.368 4   -259158.458 3
  23279129.900     1517517.091 3   1182477.226 1
  22424063.036      938316.171 3    731154.631 2
  23689282.243    -1302515.867 2  -1014942.299 1
  20378771.875     -131038.305 4   -102107.886 2
 91  7 27  0 42 59.9990000  0  5 17 20 16 23 03
  20608978.603     -345853.763 4   -269495.895 3
  23290525.904     1577399.520 3   1229138.745 1
  22432109.174      980581.890 3    764088.936 1
  23680030.661    -1351131.984 2  -1052824.802 1
  20378224.148     -133907.099 4   -104343.304 3
 91  7 27  0 43 14.9990000  0  5 17 20 16 23 03
  20606480.430     -358970.305 4   -279716.551 3
  23301941.697     1637382.906 3   1275878.956 1
  22440181.087     1023010.148 3    797149.927 1
  23670798.240    -1399646.492 2  -1090628.247 1
  20377712.403     -136627.270 4   -106462.915 3
 91  7 27  0 43 29.9990000  0  5 17 20 16 23 03
  20604014.033     -371940.558 4   -289823.215 3
  23313375.778     1697463.640 3   1322695.031 1
  22448283.868     1065597.136 3    830334.565 2
  23661588.329    -1448062.471 2  -1128354.809 1
  20377220.446     -139201.942 4   -108469.155 3
 91  7 27  0 43 44.9990000  0  5 17 20 16 23 03
  20601574.318     -384765.853 4   -299816.940 3
  23324830.258     1757640.058 3   1369585.646 1
  22456415.443     1108341.375 3    863641.736 2
  23652390.389    -1496381.018 2  -1166005.472 1
  20376758.469     -141632.514 4   -110363.100 3
 91  7 27  0 43 59.9990000  0  5 17 20 16 23 03
  20599161.302     -397446.585 4   -309698.015 3
  23336297.023     1817911.282 3   1416550.112 1
  22464587.188     1151242.214 3    897070.942 2
  23643209.847    -1544602.149 2  -1203580.210 1
  20376320.172     -143919.049 4   -112144.809 3
 91  7 27  0 44 14.9990000  0  5 17 20 16 23 03
  20596774.950     -409982.341 4   -319466.115 3
  23347782.372     1878277.226 3   1463588.407 1
  22472773.330     1194299.444 3    930622.018 2
  23634055.376    -1592725.554 2  -1241078.823 1
  20375918.451     -146061.001 4   -113813.858 3
 91  7 27  0 44 29.9990000  0  5 17 20 16 23 03
  20594414.686     -422375.252 4   -329122.912 3
  23359290.494     1938735.498 3   1510698.642 1
  22480998.123     1237510.585 3    964293.012 2
  23624915.318    -1640752.921 2  -1278502.619 1
  20375538.001     -148060.426 4   -115371.846 3
 91  7 27  0 44 44.9990000  0  5 17 20 16 23 03
  20592084.995     -434625.377 4   -338668.447 3
  23370811.529     1999285.493 3   1557880.394 1
  22489252.320     1280875.280 3    998083.654 1
  23615795.328    -1688683.888 2  -1315851.270 1
  20375179.748     -149917.117 5   -116818.616 3
 91  7 27  0 44 59.9990000  0  5 17 20 16 23 03
  20589782.299     -446735.086 4   -348104.566 3
  23382353.836     2059924.659 3   1605131.600 1
  22497531.681     1324391.269 3   1031992.188 1
  23606691.829    -1736520.532 2  -1353126.451 1
  20374854.790     -151633.339 5   -118155.921 2
 91  7 27  0 45 14.9990000  0  5 17 20 16 23 03
  20587503.266     -458703.422 4   -357430.525 3
  23393906.037     2120653.846 3   1652452.930 1
  22505841.928     1368059.392 3   1066019.288 1
  23597611.119    -1784261.558 2  -1390327.073 1
  20374556.793     -153207.453 4   -119382.511 3
 91  7 27  0 45 29.9990000  0  5 17 20 16 23 03
  20585250.634     -470530.802 4   -366646.645 3
  23405483.419     2181472.379 3   1699843.893 1
  22514180.061     1411878.757 3   1100164.221 2
  23588550.181    -1831906.914 2  -1427453.198 1
  20374283.976     -154639.772 4   -120498.598 3
 91  7 27  0 45 44.9990000  0  5 17 20 16 23 03
  20583030.356     -482221.229 4   -375756.047 3
  23417069.805     2242375.436 2   1747300.696 1
  22522547.266     1455844.445 3   1134423.179 1
  23579500.655    -1879460.724 2  -1464507.957 1
  20374034.543     -155934.743 4   -121507.663 3
 91  7 27  0 45 59.9990000  0  5 17 20 16 23 03
  20580832.292     -493774.020 4   -384758.208 3
  23428675.963     2303363.387 2   1794823.682 1
  22530941.152     1499956.957 3   1168796.532 1
  23570463.414    -1926921.959 2  -1501490.573 1
  20373815.699     -157091.152 5   -122408.768 3
 91  7 27  0 46 14.9990000  0  5 17 20 16 23 03
  20578656.686     -505189.110 4   -393653.072 3
  23440296.516     2364436.287 3   1842412.827 1
  22539361.720     1544216.502 3   1203284.469 1
  23561439.662    -1974290.230 2  -1538400.774 1
  20373625.335     -158108.479 5   -123201.478 2
 91  7 27  0 46 29.9990000  0  5 17 20 16 23 03
  20576506.889     -516468.860 4   -402442.467 3
  23451933.857     2425591.525 2   1890066.186 1
  22547812.267     1588620.655 3   1237885.080 1
  23552448.281    -2021567.400 2  -1575240.001 1
  20373456.556     -158988.764 5   -123887.418 3
 91  7 27  0 46 44.9990000  0  5 17 20 16 23 03
  20574390.352     -527611.757 4   -411125.231 3
  23463588.003     2486829.999 2   1937784.328 1
  22556294.905     1633170.315 3   1272599.073 1
  23543468.887    -2068751.816 2  -1612006.923 1
  20373314.442     -159730.696 5   -124465.540 3
 91  7 27  0 46 59.9990000  0  5 17 20 16 23 03
  20572296.291     -538620.072 4   -419703.118 3
  23475255.026     2548148.999 2   1985565.269 1
  22564797.908     1677862.766 3   1307424.335 1
  23534512.301    -2115845.465 2  -1648703.115 1
  20373197.822     -160336.326 4   -124937.464 3
 91  7 27  0 47 14.9990000  0  5 17 20 16 23 03
  20570227.428     -549494.725 4   -428176.865 3
  23486942.728     2609547.196 2   2033407.914 1
  22573325.812     1722696.850 3   1342359.957 2
  23525565.592    -2162849.025 2  -1685329.129 1
  20373113.293     -160806.290 4   -125303.669 3
 91  7 27  0 47 29.9990000  0  5 17 20 16 23 03
  20568181.948     -560237.312 4   -436547.696 3
  23498640.325     2671022.790 2   2081310.878 1
  22581883.992     1767670.672 3   1377404.480 2
  23516639.561    -2209763.713 2  -1721885.875 1
  20373047.331     -161142.245 4   -125565.452 3
 91  7 27  0 47 44.9990000  0  5 17 20 16 23 03
  20566166.745     -570848.008 4   -444815.749 3
  23510352.318     2732575.352 2   2129273.768 1
  22590468.836     1812783.854 3   1412557.584 2
  23507726.444    -2256589.436 2  -1758373.333 1
  20373006.568     -161343.651 4   -125722.385 3
 91  7 27  0 47 59.9990000  0  5 17 20 16 23 03
  20564170.422     -581327.918 4   -452981.898 3
  23522081.098     2794203.458 2   2177295.603 1
  22599081.583     1858034.907 3   1447818.122 1
  23498832.504    -2303327.035 2  -1794792.085 1
  20372996.970     -161411.771 4   -125775.482 2
 91  7 27  0 48 14.9990000  0  5 17 20 16 23 03
  20562198.391     -591677.694 4   -461046.645 3
  23533822.477     2855906.065 2   2225375.429 1
  22607718.306     1903422.864 3   1483185.334 2
  23489956.835    -2349976.830 2  -1831142.422 1
  20373006.864     -161346.787 4   -125724.821 3
 91  7 27  0 48 29.9990000  0  5 17 20 16 23 03
  20560253.930     -601897.921 4   -469010.444 3
  23545577.938     2917682.371 2   2273512.679 1
  22616382.008     1948947.097 3   1518658.722 2
  23481094.968    -2396539.086 2  -1867424.542 1
  20373047.331     -161149.192 4   -125570.855 3
 91  7 27  0 48 44.9990000  0  5 17 20 16 23 03
  20558336.466     -611988.151 4   -476872.948 3
  23557346.888     2979532.205 2   2321707.242 1
  22625069.686     1994607.273 3   1554238.068 2
  23472249.907    -2443013.166 2  -1903637.967 1
  20373103.992     -160818.598 4   -125313.245 3
 91  7 27  0 48 59.9990000  0  5 17 20 16 23 03
  20556442.070     -621950.874 4   -484636.072 3
  23569128.438     3041452.746 2   2369956.904 1
  22633785.860     2040400.924 3   1589921.406 2
  23463422.819    -2489401.300 2  -1939784.424 1
  20373196.025     -160356.912 4   -124953.487 3
 91  7 27  0 49 14.9990000  0  5 17 20 16 23 03
  20554568.074     -631786.831 4   -492300.458 3
  23580922.272     3103443.058 2   2418260.926 1
  22642524.214     2086327.072 3   1625707.998 2
  23454615.816    -2535703.733 2  -1975864.041 1
  20373309.050     -159765.308 4   -124492.492 3
 91  7 27  0 49 29.9990000  0  5 17 20 16 23 03
  20552714.756     -641496.611 4   -499866.499 3
  23592731.096     3165502.267 2   2466618.613 1
  22651288.045     2132384.662 3   1661597.004 2
  23445816.003    -2581920.770 2  -2011877.207 1
  20373446.959     -159043.197 4   -123929.812 3
 91  7 27  0 49 44.9990000  0  5 17 20 16 23 03
  20550895.606     -651080.123 4   -507334.160 3
  23604559.709     3227629.953 2   2515029.713 1
  22660077.946     2178573.595 3   1697588.347 2
  23437035.681    -2628052.180 2  -2047823.622 1
  20373609.438     -158190.924 5   -123265.706 3
 91  7 27  0 49 59.9990000  0  5 17 20 16 23 03
  20549096.261     -660539.257 4   -514704.899 3
  23616395.808     3289824.027 2   2563492.492 1
  22668889.748     2224891.545 3   1733680.230 2
  23428277.539    -2674099.588 2  -2083704.585 1
  20373793.224     -157210.128 4   -122501.447 3
 91  7 27  0 50 14.9990000  0  5 17 20 16 23 03
  20547323.284     -669874.272 5   -521978.923 3
  23628238.817     3352084.061 2   2612006.673 1
  22677735.734     2271338.208 3   1769872.414 2
  23419532.293    -2720062.793 2  -2119519.907 1
  20374003.970     -156100.671 4   -121636.930 3
 91  7 27  0 50 30.0000000  0  5 17 20 16 23 03
  20545565.300     -679087.058 4   -529157.688 3
  23640103.694     3414412.309 2   2660573.995 1
  22686594.602     2317915.018 3   1806166.013 2
  23410799.649    -2765946.069 2  -2155272.970 1
  20374242.605     -154863.644 4   -120673.012 3
 91  7 27  0 50 45.0000000  0  5 17 20 16 23 03
  20543833.698     -688175.951 4   -536239.939 3
  23651979.667     3476800.470 2   2709188.012 1
  22695481.649     2364615.768 3   1842556.176 2
  23402086.772    -2811742.636 2  -2190958.495 1
  20374501.932     -153498.715 5   -119609.428 3
 91  7 27  0 51  0.0000000  0  5 17 20 16 23 03
  20542128.776     -697144.511 4   -543228.417 3
  23663860.752     3539249.570 2   2757849.549 1
  22704391.783     2411440.461 3   1879042.934 2
  23393384.401    -2857457.775 2  -2226580.518 1
  20374784.329     -152008.376 4   -118448.132 3
 91  7 27  0 51 15.0000000  0  5 17 20 16 23 03
  20540446.942     -705990.798 4   -550121.611 3
  23675752.918     3601761.389 2   2806559.928 1
  22713324.392     2458390.664 3   1915627.468 2
  23384699.114    -2903089.455 2  -2262137.533 1
  20375089.516     -150390.539 4   -117187.470 3
 91  7 27  0 51 30.0000000  0  5 17 20 16 23 03
  20538786.990     -714716.274 4   -556920.667 3
  23687659.481     3664334.105 2   2855317.736 1
  22722284.591     2505464.962 3   1952308.720 1
  23376035.116    -2948638.608 2  -2297630.247 2
  20375424.683     -148646.188 5   -115828.240 3
 91  7 27  0 51 45.0000000  0  5 17 20 16 23 03
  20537146.233     -723321.027 4   -563625.660 3
  23699580.719     3726966.984 2   2904122.479 1
  22731264.577     2552662.581 3   1989086.064 2
  23367378.604    -2994105.505 2  -2333058.853 1
  20375780.545     -146775.565 4   -114370.606 3
 91  7 27  0 52  0.0000000  0  5 17 20 16 23 03
  20535533.344     -731805.680 4   -570237.067 3
  23711514.557     3789659.332 2   2952973.513 1
  22740269.134     2599982.668 3   2025958.847 1
  23358746.975    -3039490.314 2  -2368423.501 1
  20376161.570     -144779.069 4   -112814.895 2
 91  7 27  0 52 15.0000000  0  5 17 20 16 23 03
  20533942.652     -740170.157 4   -576754.824 3
  23723449.302     3852410.910 2   3001870.721 1
  22749300.389     2647425.083 3   2062926.944 1
  23350120.443    -3084792.658 2  -2403723.936 1
  20376562.105     -142656.260 4   -111160.753 2
 91  7 27  0 52 30.0000000  0  5 17 20 16 23 03
  20532372.028     -748416.505 4   -583180.532 3
  23735402.631     3915219.083 2   3050812.011 1
  22758347.525     2694987.438 3   2099988.472 1
  23341514.013    -3130014.526 2  -2438961.604 1
  20376990.508     -140409.169 4   -109409.770 2
 91  7 27  0 52 45.0000000  0  5 17 20 16 23 03
  20530827.806     -756543.819 4   -589513.491 3
  23747362.836     3978084.483 2   3099797.894 1
  22767425.843     2742670.441 3   2137144.068 1
  23332925.557    -3175154.294 2  -2474135.316 1
  20377441.090     -138036.784 5   -107561.158 3
 91  7 27  0 53  0.0000000  0  5 17 20 16 23 03
  20529301.558     -764553.239 4   -595754.589 3
  23759340.753     4041005.888 2   3148827.414 1
  22776518.244     2790472.487 3   2174392.371 1
  23324347.291    -3220212.832 2  -2509245.735 1
  20377920.465     -135539.339 5   -105615.096 3
 91  7 27  0 53 15.0000000  0  5 17 20 16 23 03
  20527796.598     -772445.747 4   -601904.584 3
  23771326.452     4103981.931 2   3197899.527 1
  22785634.029     2838392.553 3   2211732.660 1
  23315796.004    -3265190.752 3  -2544293.357 1
  20378419.314     -132918.275 4   -103572.703 3
 91  7 27  0 53 30.0000000  0  5 17 20 16 23 03
  20526319.525     -780222.653 5   -607964.499 3
  23783316.060     4167010.932 2   3247012.915 1
  22794780.107     2886428.735 3   2249163.432 1
  23307253.721    -3310089.400 2  -2579279.189 1
  20378938.860     -130174.422 4   -101434.620 2
 91  7 27  0 53 45.0000000  0  5 17 20 16 23 03
  20524859.238     -787881.651 4   -613932.532 3
  23795320.938     4230094.698 2   3296168.975 1
  22803944.752     2934583.415 3   2286686.546 1
  23298727.929    -3354906.131 3  -2614201.169 1
  20379484.772     -127305.549 4    -99199.146 3
 91  7 27  0 54  0.0000000  0  5 17 20 16 23 03
  20523426.820     -795427.667 4   -619812.535 3
  23807340.229     4293227.857 2   3345363.491 1
  22813128.592     2982851.079 3   2324297.701 1
  23290209.622    -3399645.537 2  -2649062.928 1
  20380051.678     -124316.345 4    -96869.895 2
 91  7 27  0 54 15.0000000  0  5 17 20 16 23 03
  20522014.207     -802858.414 5   -625602.720 3
  23819364.895     4356412.548 2   3394598.209 1
  22822337.316     3031233.820 3   2361998.518 1
  23281702.414    -3444304.948 2  -2683862.360 1
  20380646.172     -121204.207 5    -94444.851 2
 91  7 27  0 54 30.0000000  0  5 17 20 16 23 03
  20520619.865     -810177.528 5   -631305.913 3
  23831394.063     4419644.892 2   3443869.981 1
  22831564.939     3079727.835 3   2399786.017 1
  23273220.980    -3488887.645 2  -2718602.018 1
  20381261.937     -117972.432 5    -91926.575 2
 91  7 27  0 54 45.0000000  0  5 17 20 16 23 03
  20519245.015     -817382.681 4   -636920.310 3
  23843441.536     4482926.911 2   3493180.492 1
  22840812.036     3128335.269 3   2437661.898 1
  23264754.554    -3533391.266 2  -2753280.049 1
  20381901.697     -114618.554 5    -89313.167 2
 91  7 27  0 55  0.0000000  0  5 17 20 16 23 03
  20517898.346     -824474.787 4   -642446.614 3
  23855484.193     4546257.190 2   3542528.613 1
  22850082.517     3177054.171 3   2475624.680 2
  23256297.707    -3577816.305 2  -2787896.828 2
  20382562.450     -111143.436 4    -86605.286 2
 91  7 27  0 55 15.0000000  0  5 17 20 16 23 03
  20516569.076     -831454.477 4   -647885.324 3
  23867543.637     4609635.021 2   3591913.799 1
  22859375.787     3225884.243 3   2513674.050 1
  23247872.637    -3622162.851 2  -2822452.476 1
  20383243.567     -107546.958 4    -83802.824 2
 91  7 27  0 55 30.0000000  0  5 17 20 16 23 03
  20515261.688     -838322.322 4   -653236.883 3
  23879618.385     4673059.401 2   3641335.248 1
  22868687.642     3274824.562 3   2551809.345 1
  23239438.877    -3666431.602 2  -2856947.487 1
  20383951.679     -103829.924 4    -80906.429 2
 91  7 27  0 55 45.0000000  0  5 17 20 16 23 03
  20513981.558     -845079.702 5   -658502.369 3
  23891695.227     4736528.617 2   3690791.626 1
  22878024.067     3323873.483 3   2590029.244 2
  23231034.486    -3710623.368 2  -2891382.527 1
  20384680.487      -99993.487 4    -77916.999 2
 91  7 27  0 56  0.0000000  0  5 17 20 16 23 03
  20512716.434     -851725.465 4   -663680.868 3
  23903786.151     4800043.237 2   3740283.387 1
  22887375.796     3373031.747 3   2628334.351 2
  23222633.410    -3754736.870 2  -2925756.563 1
  20385434.162      -96036.539 4    -74833.660 3
 91  7 27  0 56 15.0000000  0  5 17 20 16 23 03
  20511472.304     -858261.624 5   -668773.968 3
  23915875.278     4863601.245 2   3789808.960 1
  22896754.206     3422297.223 3   2666723.026 2
  23214252.105    -3798773.627 2  -2960070.830 1
  20386209.423      -91960.572 4    -71657.572 3
 91  7 27  0 56 30.0000000  0  5 17 20 16 23 03
  20510246.443     -864688.036 4   -673781.560 3
  23927977.301     4927202.411 2   3839368.172 1
  22906148.810     3471669.287 3   2705194.730 2
  23205886.994    -3842733.346 2  -2994325.062 1
  20387010.458      -87765.174 4    -68388.434 2
 91  7 27  0 56 45.0000000  0  5 17 20 16 23 03
  20509043.076     -871004.929 4   -678703.800 3
  23940084.419     4990846.186 2   3888960.549 1
  22915563.481     3521147.700 3   2743749.300 2
  23197532.685    -3886615.857 2  -3028519.091 1
  20387831.892      -83450.654 4    -65026.464 2
 91  7 27  0 57  0.0000000  0  5 17 20 16 23 03
  20507861.906     -877213.103 4   -683541.325 3
  23952204.730     5054531.289 2   3938585.144 1
  22924998.256     3570731.289 3   2782385.850 2
  23189208.041    -3930421.910 3  -3062653.595 1
  20388677.006      -79017.667 4    -61572.194 2
 91  7 27  0 57 15.0000000  0  5 17 20 16 23 03
  20506698.709     -883311.876 4   -688293.606 3
  23964334.638     5118257.900 2   3988242.105 1
  22934452.505     3620420.405 3   2821104.617 2
  23180883.712    -3974150.625 3  -3096727.815 1
  20389541.019      -74464.975 4    -58024.629 2
 91  7 27  0 57 30.0000000  0  5 17 20 16 23 03
  20505561.897     -889301.604 4   -692960.921 3
  23976474.737     5182025.679 2   4037931.078 1
  22943928.043     3670214.628 3   2859905.277 2
  23172578.560    -4017801.799 3  -3130741.639 1
  20390429.008      -69792.996 4    -54384.116 2
 91  7 27  0 57 45.0000000  0  5 17 20 16 23 03
  20504443.373     -895182.183 4   -697543.183 3
  23988616.022     5245834.430 2   4087652.075 1
  22953426.667     3720113.621 3   2898787.583 2
  23164279.707    -4061374.921 2  -3164694.605 1
  20391340.066      -65001.405 5    -50650.417 2
 91  7 27  0 58  0.0000000  0  5 17 20 16 23 03
  20503346.732     -900955.218 4   -702041.640 3
  24000766.923     5309682.114 2   4137403.360 1
  22962940.596     3770115.671 3   2937750.201 2
  23156002.737    -4104871.444 3  -3198587.873 1
  20392276.620      -60091.431 5    -46824.463 3
 91  7 27  0 58 15.0000000  0  5 17 20 16 23 03
  20502267.174     -906619.909 4   -706455.673 3
  24012924.996     5373569.407 2   4187185.524 1
  22972474.889     3820221.692 3   2976793.822 2
  23147745.853    -4148290.010 3  -3232420.455 1
  20393233.258      -55061.532 5    -42905.068 2
 91  7 27  0 58 30.0000000  0  5 17 20 16 23 03
  20501210.110     -912177.400 4   -710786.177 3
  24025087.274     5437494.752 2   4236997.282 1
  22982029.563     3870429.877 3   3015917.063 1
  23139498.252    -4191631.701 3  -3266193.114 1
  20394210.889      -49913.375 4    -38893.512 2
 91  7 27  0 58 45.0000000  0  5 17 20 16 23 03
  20500171.019     -917627.933 4   -715033.334 3
  24037260.651     5501457.379 2   4286838.130 1
  22991604.044     3920739.208 3   3055119.123 2
  23131257.858    -4234896.625 3  -3299905.956 1
  20395212.497      -44647.239 5    -34790.021 2
 91  7 27  0 59  0.0000000  0  5 17 20 16 23 03
  20499156.237     -922973.015 4   -719198.328 3
  24049435.825     5565455.672 2   4336706.730 1
  23001196.795     3971148.290 3   3094398.879 2
  23123047.146    -4278085.713 3  -3333559.699 1
  20396238.081      -39263.898 5    -30595.214 2
 91  7 27  0 59 15.0000000  0  5 17 20 16 23 03
  20498162.412     -928213.031 4   -723281.452 3
  24061622.690     5629488.868 2   4386602.610 1
  23010807.555     4021656.478 3   3133755.886 2
  23114837.639    -4321199.077 3  -3367154.417 1
  20397285.844      -33763.488 5    -26309.176 3
 91  7 27  0 59 30.0000000  0  5 17 20 16 23 03
  20497180.000     -933348.749 4   -727283.292 3
  24073820.044     5693555.663 2   4436524.621 1
  23020430.582     4072262.726 2   3173189.291 1
  23106654.499    -4364237.414 3  -3400690.699 2
  20398353.414      -28146.709 5    -21932.466 2
 91  7 27  0 59 45.0000000  0  5 17 20 16 23 03
  20496224.862     -938380.508 4   -731204.136 3
  24086014.395     5757655.562 2   4486472.399 1
  23030084.497     4122966.319 2   3212698.526 2
  23098472.266    -4407200.650 3  -3434168.458 1
  20399444.663      -22414.049 5    -17465.460 2
 91  7 27  1  0  0.0000000  0  5 17 20 16 23 03
  20495285.604     -943309.606 4   -735044.988 3
  24098215.954     5821786.879 2   4536444.701 1
  23039748.322     4173765.437 3   3252282.219 1
  23090313.417    -4450089.952 2  -3467588.601 1
  20400556.887      -16566.217 5    -12908.710 2
 91  7 27  1  0 15.0000000  0  5 17 20 16 23 03
  20494367.042     -948138.600 4   -738807.831 3
  24110424.702     5885946.720 2   4586439.180 1
  23049434.310     4224657.292 3   3291938.206 2
  23082164.148    -4492907.403 2  -3500952.734 1
  20401690.995      -10605.905 5     -8264.314 2
 91  7 27  1  0 30.0000000  0  5 17 20 16 23 03
  20493467.361     -952865.143 4   -742490.846 3
  24122638.843     5950137.329 2   4636457.682 1
  23059137.696     4275644.044 2   3331668.101 1
  23074032.277    -4535650.605 2  -3534259.054 1
  20402848.206       -4530.306 5     -3530.077 2
 91  7 27  1  0 45.0000000  0  5 17 20 16 23 03
  20492586.875     -957490.101 4   -746094.699 3
  24134856.892     6014357.431 2   4686499.159
  23068853.959     4326724.702 2   3371471.160 1
  23065911.207    -4578319.833 3  -3567507.738 1
  20404024.281        1659.851 5      1293.422 2
 91  7 27  1  1  0.0000000  0  5 17 20 16 23 03
  20491727.365     -962012.036 4   -749618.279 3
  24147083.317     6078607.922 2   4736564.292 1
  23078595.718     4377900.224 3   3411348.148 1
  23057810.502    -4620913.559 3  -3600697.572 1
  20405224.350        7966.045 5      6207.340 2
 91  7 27  1  1 15.0000000  0  5 17 20 16 23 03
  20490887.050     -966434.074 4   -753064.022 3
  24159315.745     6142885.456 2   4786650.513 1
  23088349.761     4429167.235 2   3451296.484 1
  23049714.613    -4663434.664 3  -3633830.815 1
  20406446.318       14385.775 5     11209.719 2
 91  7 27  1  1 30.0000000  0  5 17 20 16 23 03
  20490063.225     -970756.907 4   -756432.460 3
  24171552.379     6207189.129 2   4836757.079 1
  23098123.594     4480525.041 2   3491315.504 1
  23041633.417    -4705883.225 3  -3666907.535 1
  20407689.856       20918.428 5     16300.093 2
 91  7 27  1  1 45.0000000  0  5 17 20 16 23 03
  20489258.875     -974981.322 4   -759724.195 3
  24183800.111     6271518.032 2   4886883.360 1
  23107917.214     4531972.392 3   3531404.336 1
  23033573.196    -4748259.779 3  -3699928.164 1
  20408955.276       27563.358 5     21477.968 2
 91  7 27  1  2  0.0000000  0  5 17 20 16 23 03
  20488473.423     -979108.110 4   -762939.864 3
  24196043.026     6335870.975 2   4937028.325 1
  23117722.840     4583508.169 3   3571562.022 1
  23025519.258    -4790564.987 2  -3732893.174 1
  20410241.392       34319.932 5     26742.829 2
 91  7 27  1  2 15.0000000  0  5 17 20 16 23 03
  20487708.353     -983135.382 4   -766077.996 3
  24208300.042     6400249.481 2   4987193.198 1
  23127548.238     4635133.953 3   3611789.904 1
  23017483.031    -4832796.573 3  -3765800.851 1
  20411549.373       41190.377 5     32096.413 3
 91  7 27  1  2 30.0000000  0  5 17 20 16 23 03
  20486956.179     -987061.124 4   -769137.012 3
  24220552.852     6464655.056 2   5037379.170 1
  23137388.922     4686851.340 3   3652089.139 1
  23009468.373    -4874952.588 2  -3798649.611 2
  20412880.755       48176.928 5     37540.477 2
 91  7 27  1  2 45.0000000  0  5 17 20 16 23 03
  20486229.778     -990885.609 4   -772117.126 3
  24232810.478     6529087.193 2   5087585.842 1
  23147250.598     4738659.697 3   3692459.269 1
  23001455.216    -4917032.785 3  -3831439.296 1
  20414231.018       55278.902 5     43074.484 2
 91  7 27  1  3  0.0000000  0  5 17 20 16 23 03
  20485523.760     -994606.727 4   -775016.688 3
  24245079.482     6593547.629 2   5137814.529 1
  23157123.356     4790560.930 3   3732901.769 1
  22993464.551    -4959034.874 3  -3864168.117 1
  20415604.071       62499.053 5     48700.573 2
 91  7 27  1  3 15.0000000  0  5 17 20 16 23 03
  20484836.640     -998225.474 4   -777836.479 3
  24257348.486     6658035.438 2   5188064.595 1
  23167017.699     4842554.160 3   3773415.965 1
  22985485.282    -5000959.280 3  -3896836.420 1
  20417000.507       69836.916 5     54418.390 3
 91  7 27  1  3 30.0000000  0  5 17 20 16 23 03
  20484167.198    -1001742.567 4   -780577.055 3
  24269630.682     6722549.092 2   5238334.789 1
  23176933.035     4894638.056 3   3814000.780 1
  22977521.300    -5042806.487 2  -3929444.574 2
  20418418.529       77291.429 5     60227.095 2
 91  7 27  1  3 45.0000000  0  5 17 20 16 23 03
  20483516.950    -1005159.229 4   -783239.389 3
  24281905.985     6787087.056 2   5288623.928 1
  23186857.672     4946811.214 3   3854655.160 1
  22969578.292    -5084577.466 3  -3961993.323 1
  20419858.434       84861.952 5     66126.200 2
 91  7 27  1  4  0.0000000  0  5 17 20 16 23 03
  20482887.085    -1008475.002 4   -785823.102 3
  24294193.573     6851649.794 2   5338932.315 1
  23196802.987     4999073.706 3   3895379.175 1
  22961640.083    -5126271.443 2  -3994482.063 1
  20421321.722       92549.329 5     72116.365 2
 91  7 27  1  4 15.0000000  0  5 17 20 16 23 03
  20482270.115    -1011691.729 4   -788329.638 3
  24306485.664     6916234.937 2   5389258.228 1
  23206766.887     5051423.538 3   3936171.234 1
  22953716.568    -5167890.105 3  -4026912.111 1
  20422806.892      100351.154 5     78195.709 2
 91  7 27  1  4 30.0000000  0  5 17 20 16 23 03
  20481675.027    -1014810.103 4   -790759.525 3
  24318774.770     6980841.523 2   5439600.815 1
  23216743.089     5103859.600 3   3977030.468 1
  22945816.139    -5209433.916 3  -4059283.841 1
  20424313.649      108267.375 5     84364.191 2
 91  7 27  1  4 45.0000000  0  5 17 20 16 23 03
  20481107.825    -1017829.124 4   -793111.998 3
  24331074.644     7045470.428 2   5489960.776 1
  23226736.968     5156382.599 3   4017957.431 1
  22937927.698    -5250901.366 3  -4091596.086 1
  20425842.288      116299.320 5     90622.849 2
 91  7 27  1  5  0.0000000  0  5 17 20 16 23 03
  20480547.813    -1020749.750 4   -795387.816 3
  24343378.129     7110120.173 2   5540337.011 1
  23236746.134     5208991.238 3   4058951.138 2
  22930046.464    -5292293.193 3  -4123849.361 1
  20427390.715      124446.154 5     96971.022 2
 91  7 27  1  5 15.0000000  0  5 17 20 16 23 03
  20480014.482    -1023570.553 4   -797585.830 3
  24355686.413     7174792.083 2   5590730.495 1
  23246775.699     5261686.782 3   4100012.579 1
  22922182.611    -5333607.636 3  -4156042.375 1
  20428961.916      132709.502 5    103409.999 2
 91  7 27  1  5 30.0000000  0  5 17 20 16 23 03
  20479490.138    -1026294.093 4   -799708.057 3
  24367996.791     7239483.360 2   5641139.060 1
  23256816.938     5314466.503 3   4141139.581 1
  22914340.326    -5374846.985 3  -4188176.852 1
  20430557.127      141086.936 5    109937.863 2
 91  7 27  1  5 45.0000000  0  5 17 20 16 23 03
  20478993.679    -1028919.430 4   -801753.759 3
  24380312.562     7304194.243 2   5691562.956 1
  23266878.577     5367330.788 3   4182332.507 1
  22906501.060    -5416010.187 3  -4220252.006 1
  20432177.206      149579.567 5    116555.491 2
 91  7 27  1  6  0.0000000  0  5 17 20 16 23 03
  20478513.728    -1031447.054 4   -803723.330 3
  24392633.724     7368924.076 2   5742001.583 1
  23276955.798     5420278.902 3   4223590.733 1
  22898686.067    -5457097.359 3  -4252267.913 2
  20433810.476      158187.297 4    123262.822 2
 91  7 27  1  6 15.0000000  0  5 17 20 16 23 03
  20478048.436    -1033875.714 4   -805615.788 3
  24404953.404     7433673.955 2   5792455.809 1
  23287042.617     5473311.931 3   4264915.152 1
  22890878.578    -5498106.930 3  -4284223.348 1
  20435471.318      166911.329 5    130060.772 2
 91  7 27  1  6 30.0000000  0  5 17 20 16 23 03
  20477608.341    -1036205.773 4   -807431.415 3
  24417279.068     7498443.076 2   5842925.035 1
  23297158.509     5526429.221 3   4306305.187 2
  22883094.158    -5539038.953 3  -4316118.363 1
  20437154.060      175751.626 5    136949.306 2
 91  7 27  1  6 45.0000000  0  5 17 20 16 23 03
  20477183.237    -1038440.853 4   -809173.024 3
  24429604.140     7563227.822 2   5893406.451 1
  23307278.605     5579627.181 3   4347758.098 1
  22875313.350    -5579896.419 3  -4347955.273 1
  20438861.075      184705.056 5    143926.003 2
 91  7 27  1  7  0.0000000  0  5 17 20 16 23 03
  20476773.122    -1040579.392 4   -810839.403 3
  24441934.306     7628028.950 2   5943900.629 1
  23317415.786     5632906.450 3   4389274.387 1
  22867555.315    -5620677.984 3  -4379733.040 1
  20440584.581      193773.048 5    150991.972 2
 91  7 27  1  7 15.0000000  0  5 17 20 16 23 03
  20476389.095    -1042621.796 4   -812430.887 3
  24454259.971     7692845.867 2   5994407.077 1
  23327570.067     5686266.825 2   4430853.855 1
  22859808.692    -5661383.621 3  -4411451.653 1
  20442328.172      202955.120 5    158146.833 2
 91  7 27  1  7 30.0000000  0  5 17 20 16 23 03
  20476016.149    -1044567.264 4   -813946.828 3
  24466604.220     7757678.883 2   6044926.072 1
  23337745.010     5739708.591 3   4472496.752 1
  22852083.324    -5702012.434 3  -4443110.377 1
  20444104.133      212252.628 5    165391.633 2
 91  7 27  1  7 45.0000000  0  5 17 20 16 23 03
  20475664.195    -1046416.522 4   -815387.803 3
  24478945.171     7822527.417 2   6095457.165 1
  23347923.268     5793230.757 3   4514202.282 1
  22844361.271    -5742564.643 3  -4474709.424 2
  20445893.897      221665.192 5    172726.100 2
 91  7 27  1  8  0.0000000  0  5 17 20 16 23 03
  20475332.624    -1048171.209 4   -816755.072 3
  24491290.624     7887389.483 2   6145998.837 1
  23358127.912     5846831.441 3   4555969.002 1
  22836657.506    -5783041.461 3  -4506249.737 1
  20447702.856      231191.045 4    180148.852 2
 91  7 27  1  8 15.0000000  0  5 17 20 16 23 03
  20475017.839    -1049830.122 4   -818047.730 3
  24503641.487     7952265.876 2   6196551.676 1
  23368341.838     5900511.495 3   4597797.571 1
  22828973.529    -5823441.608 3  -4537730.284 1
  20449540.574      240832.329 5    187661.535 2
 91  7 27  1  8 30.0000000  0  5 17 20 16 23 03
  20474715.950    -1051394.191 4   -819266.481 3
  24515980.937     8017155.414 2   6247114.759 1
  23378570.458     5954269.738 3   4639687.059 1
  22821298.243    -5863765.609 3  -4569151.507 2
  20451394.799      250587.208 5    195262.741 2
 91  7 27  1  8 45.0000000  0  5 17 20 16 23 03
  20474438.946    -1052863.416 4   -820411.332 3
  24528340.176     8082057.479 2   6297687.988 1
  23388816.161     6008105.635 3   4681637.101 1
  22813640.651    -5904013.387 3  -4600513.365 1
  20453269.388      260456.353 4    202952.977 2
 91  7 27  1  9  0.0000000  0  5 17 20 16 23 03
  20474174.522    -1054237.614 4   -821482.130 3
  24540683.239     8146972.427 2   6348270.881 1
  23399075.057     6062019.619 3   4723647.952 1
  22805995.641    -5944183.986 3  -4631815.042 2
  20455177.273      270440.205 4    210732.604 2
 91  7 27  1  9 15.0000000  0  5 17 20 16 23 03
  20473936.484    -1055517.099 5   -822479.120 3
  24553037.993     8211899.401 2   6398863.560 1
  23409349.239     6116010.836 3   4765719.026 1
  22798365.917    -5984277.899 3  -4663056.962 1
  20457094.755      280538.480 4    218601.394 2
 91  7 27  1  9 30.0000000  0  5 17 20 16 23 03
  20473706.246    -1056702.067 4   -823402.463 3
  24565398.122     8276837.914 2   6449464.807 1
  23419635.724     6170079.008 3   4807849.990 1
  22790750.293    -6024294.861 3  -4694238.957 1
  20459040.106      290751.384 4    226559.497 2
 91  7 27  1  9 45.0000000  0  5 17 20 16 23 03
  20473499.688    -1057792.893 5   -824252.450 3
  24577760.362     8341787.231 2   6500074.818 1
  23429942.887     6224223.252 3   4850040.311 1
  22783149.362    -6064235.191 3  -4725361.225 1
  20461005.838      301078.873 4    234606.887 2
 91  7 27  1 10  0.0000000  0  5 17 20 16 23 03
  20473310.824    -1058790.422 4   -825029.752 3
  24590114.226     8406746.296 2   6550692.108 1
  23440257.553     6278442.543 3   4892289.068 1
  22775564.904    -6104099.192 3  -4756423.990 2
  20462988.968      311519.947 4    242742.784 2
 91  7 27  1 10 15.0000000  0  5 17 20 16 23 03
  20473134.838    -1059693.905 4   -825733.755 3
  24602482.155     8471715.333 2   6601317.202 1
  23450590.490     6332737.167 3   4934596.554 1
  22767987.950    -6143885.970 3  -4787426.606 1
  20465000.873      322075.556 4    250967.930 2
 91  7 27  1 10 30.0000000  0  5 17 20 16 23 03
  20472982.847    -1060503.484 4   -826364.587 3
  24614840.208     8536694.277 2   6651950.352 1
  23460938.435     6387106.789 3   4976962.475 1
  22760438.584    -6183595.096 3  -4818368.718 1
  20467029.269      332746.292 4    259282.792 2
 91  7 27  1 10 45.0000000  0  5 17 20 16 23 03
  20472844.938    -1061218.288 4   -826921.571 3
  24627215.326     8601683.500 2   6702591.465 1
  23471298.960     6441551.842 3   5019387.127 1
  22752894.297    -6223225.846 3  -4849249.757 1
  20469083.142      343532.371 4    267687.522 2
 91  7 27  1 11  0.0000000  0  5 17 20 16 23 03
  20472731.320    -1061839.933 4   -827405.969 3
  24639582.069     8666681.215 2   6753238.997 1
  23481675.069     6496070.680 3   5061869.326 1
  22745368.018    -6262779.294 3  -4880070.541 2
  20471155.914      354433.002 4    276181.512 2
 91  7 27  1 11 15.0000000  0  5 17 20 16 23 03
  20472628.189    -1062369.362 5   -827818.507 3
  24651955.407     8731686.177 2   6803892.463 1
  23492060.182     6550662.140 3   5104408.094 1
  22737854.303    -6302256.128 3  -4910831.649 1
  20473253.570      365447.299 4    284764.080 2
 91  7 27  1 11 30.0000000  0  5 17 20 16 23 03
  20472548.441    -1062805.617 5   -828158.444 3
  24664328.746     8796698.982 2   6854551.971 1
  23502466.288     6605326.841 3   5147003.904 1
  22730357.707    -6341654.936 3  -4941531.951 2
  20475369.793      376576.423 4    293436.120 2
 91  7 27  1 11 45.0000000  0  5 17 20 16 23 03
  20472478.606    -1063149.772 5   -828426.611 3
  24676699.973     8861718.115 2   6905216.244 1
  23512876.268     6660063.510 3   5189655.833 1
  22722874.286    -6380976.722 3  -4972172.231 2
  20477512.714      387819.454 4    302196.922 2
 91  7 27  1 12  0.0000000  0  5 17 20 16 23 03
  20472433.933    -1063400.967 5   -828622.336 3
  24689071.514     8926744.071 2   6955885.964 1
  23523308.444     6714872.481 2   5232364.064 1
  22715406.744    -6420220.417 3  -5002751.670 2
  20479669.718      399177.452 4    311047.300 2
 91  7 27  1 12 15.0000000  0  4 17 16 23 03
  20472400.655    -1063559.706 5   -828746.023 3
  23533752.330     6769753.493 2   5275128.424 1
  22707952.413    -6459386.073 3  -5033270.310 2
  20481858.499      410650.075 4    319987.008 2
 91  7 27  1 12 30.0000000  0  4 17 16 23 03
  20472390.761    -1063627.016 5   -828798.468 3
  23544213.875     6824704.798 2   5317947.606 1
  22700516.351    -6498474.549 3  -5063728.781 2
  20484056.877      422236.403 4    329015.311 2
 91  7 27  1 12 45.0000000  0  4 17 16 23 03
  20472391.965    -1063603.164 5   -828779.875 3
  23554684.739     6879725.825 2   5360821.089 1
  22693093.203    -6537485.713 3  -5094127.021 2
  20486289.144      433936.524 4    338132.281 2
 91  7 27  1 13  0.0000000  0  4 17 16 23 03
  20472414.738    -1063487.957 5   -828690.105 3
  23565162.478     6934816.271 2   5403748.653 1
  22685686.825    -6576419.400 3  -5124464.891 2
  20488532.492      445750.640 4    347338.086 2
 91  7 27  1 13 15.0000000  0  4 17 16 23 03
  20472457.020    -1063275.797 5   -828524.778 3
  23575663.303     6989981.770 2   5446734.707 1
  22678291.841    -6615269.510 3  -5154737.618 2
  20490804.004      457684.762 4    356637.394 2
 91  7 27  1 13 30.0000000  0  4 17 16 23 03
  20472513.070    -1062972.330 5   -828288.300 3
  23586169.242     7045216.444 2   5489774.674 1
  22670914.849    -6654041.227 3  -5184949.300 1
  20493099.824      469733.232 4    366025.803 2
 91  7 27  1 13 45.0000000  0  4 17 16 23 03
  20472590.427    -1062580.079 5   -827982.646 3
  23596687.762     7100517.461 2   5532866.314 1
  22663551.049    -6692736.994 3  -5215101.768 2
  20495410.617      481894.102 4    375501.803 2
 91  7 27  1 14  0.0000000  0  4 17 16 23 03
  20472681.552    -1062097.562 5   -827606.660 3
  23607229.648     7155886.068 2   5576010.641 1
  22656197.737    -6731354.853 3  -5245193.558 1
  20497745.997      494168.815 4    385066.502 2
 91  7 27  1 14 15.0000000  0  4 17 16 23 03
  20472790.074    -1061524.644 5   -827160.227 3
  23617782.946     7211322.139 2   5619207.521 1
  22648870.809    -6769894.556 3  -5275224.430 1
  20500107.762      506557.464 4    394719.986 2
 91  7 27  1 14 30.0000000  0  4 17 16 23 03
  20472916.903    -1060861.553 5   -826643.526 3
  23628341.340     7266825.382 2   5662456.746 1
  22641548.087    -6808356.013 3  -5305194.316 2
  20502483.330      519060.257 4    404462.422 2
 91  7 27  1 14 45.0000000  0  4 17 16 23 03
  20473060.204    -1060107.247 5   -826055.749 3
  23638921.913     7322396.203 3   5705758.633 1
  22634243.339    -6846738.085 3  -5335102.372 2
  20504884.969      531678.352 4    414294.703 2
 91  7 27  1 15  0.0000000  0  4 17 16 23 03
  20473220.589    -1059262.418 5   -825397.436 3
  23649508.786     7378033.502 3   5749112.336 1
  22626959.286    -6885041.099 3  -5364948.815 2
  20507309.083      544410.953 4    424216.208 2
 91  7 27  1 15 15.0000000  0  4 17 16 23 03
  20473398.354    -1058327.279 5   -824668.756 3
  23660106.146     7433737.037 3   5792517.670 1
  22619680.922    -6923264.840 3  -5394733.486 1
  20509754.801      557258.398 4    434227.186 2
 91  7 27  1 15 30.0000000  0  4 17 16 23 03
  20473592.331    -1057303.338 5   -823870.873 3
  23670715.512     7489505.237 3   5835973.374 1
  22612419.049    -6961410.438 3  -5424457.270 2
  20512216.084      570219.811 4    444326.990 2
 91  7 27  1 15 45.0000000  0  4 17 16 23 03
  20473808.173    -1056188.708 5   -823002.332 3
  23681340.757     7545339.245 3   5879480.335 1
  22605176.965    -6999476.093 3  -5454118.763 2
  20514707.661      583296.666 4    454516.747 2
 91  7 27  1 16  0.0000000  0  4 17 16 23 03
  20474034.519    -1054984.127 5   -822063.688 3
  23691981.883     7601238.331 3   5923038.028 1
  22597947.165    -7037462.062 3  -5483718.165 2
  20517219.917      596488.167 4    464795.835 2
 91  7 27  1 16 15.0000000  0  4 17 16 23 03
  20474279.451    -1053691.104 5   -821056.133 3
  23702626.009     7657200.601 3   5966644.947 1
  22590735.653    -7075369.479 3  -5513256.341 2
  20519751.978      609793.511 4    475163.620 2
 91  7 27  1 16 30.0000000  0  4 17 16 23 03
  20474545.060    -1052308.637 5   -819978.880 3
  23713287.831     7713227.018 3   6010301.872 1
  22583540.038    -7113196.988 3  -5542732.277 2
  20522304.404      623213.905 4    485621.071 2
 91  7 27  1 16 45.0000000  0  4 17 16 23 03
  20474826.271    -1050837.100 5   -818832.220 4
  23723962.251     7769316.879 3   6054008.206 1
  22576358.209    -7150945.141 3  -5572146.361 1
  20524879.917      636748.535 4    496167.532 2
 91  7 27  1 17  0.0000000  0  4 17 16 23 03
  20475124.861    -1049277.505 5   -817616.955 3
  23734648.642     7825468.808 3   6097762.930 1
  22569186.571    -7188614.383 3  -5601498.965 2
  20527474.921      650397.115 4    506802.791 2
 91  7 27  1 17 15.0000000  0  4 17 16 23 03
  20475433.660    -1047628.795 5   -816332.234 3
  23745348.836     7881683.655 3   6141566.660 1
  22562031.737    -7226203.356 3  -5630789.007 2
  20530095.106      664160.787 4    517527.722 2
 91  7 27  1 17 30.0000000  0  4 17 16 23 03
  20475763.417    -1045892.797 5   -814979.504 3
  23756055.627     7937959.105 3   6185417.636 1
  22554895.174    -7263713.741 3  -5660017.833 2
  20532738.081      678038.012 4    528341.142 2
 91  7 27  1 17 45.0000000  0  4 17 16 23 03
  20476110.886    -1044067.636 5   -813557.301 3
  23766775.906     7994296.698 2   6229316.989 1
  22547776.602    -7301143.173 3  -5689183.568 2
  20535402.032      692030.804 4    539244.609 2
 91  7 27  1 18  0.0000000  0  4 17 16 23 03
  20476478.422    -1042152.966 5   -812065.347 3
  23777506.674     8050697.000 2   6273265.257 1
  22540665.220    -7338491.166 3  -5718285.824 2
  20538088.178      706139.562 4    550238.446 2
 91  7 27  1 18 15.0000000  0  4 17 16 23 03
  20476856.167    -1040149.674 5   -810504.338 4
  23788251.837     8107158.440 2   6317261.164 1
  22533572.125    -7375758.466 3  -5747325.248 1
  20540792.910      720363.646 4    561322.143 2
 91  7 27  1 18 30.0000000  0  4 17 16 23 03
  20477256.091    -1038058.767 5   -808875.051 3
  23799009.896     8163679.778 2   6361303.712 1
  22526498.836    -7412945.673 3  -5776302.231 2
  20543521.321      734702.288 4    572495.107 2
 91  7 27  1 18 45.0000000  0  4 17 16 23 03
  20477668.911    -1035881.025 5   -807178.108 4
  23809778.129     8220259.857 2   6405392.040 1
  22519433.313    -7450053.381 3  -5805217.282 1
  20546271.615      749154.359 4    583756.457 2
 91  7 27  1 19  0.0000000  0  4 17 16 23 03
  20478098.204    -1033616.387 5   -805413.457 3
  23820548.473     8276898.682 2   6449526.129 1
  22512389.393    -7487081.020 3  -5834069.938 2
  20549042.902      763720.875 4    595106.989 2
 91  7 27  1 19 15.0000000  0  4 17 16 23 03
  20478547.599    -1031265.316 5   -803581.449 3
  23831347.907     8333595.733 2   6493705.604 1
  22505358.962    -7524028.674 3  -5862860.262 2
  20551835.460      778401.640 4    606546.540 2
 91  7 27  1 19 30.0000000  0  4 17 16 23 03
  20479011.077    -1028827.137 5   -801681.558 3
  23842140.727     8390350.682 2   6537930.188 1
  22498342.927    -7560896.082 3  -5891588.062 2
  20554655.311      793196.522 4    618075.016 2
 91  7 27  1 19 45.0000000  0  4 17 16 23 03
  20479489.841    -1026303.258 4   -799714.898 4
  23852958.449     8447162.585 2   6582199.157 1
  22491341.568    -7597683.977 3  -5920253.905 2
  20557491.041      808104.931 4    629691.937 2
 91  7 27  1 20  0.0000000  0  4 17 16 23 03
  20479989.005    -1023692.964 5   -797680.901 4
  23863773.745     8504031.825 2   6626512.774 1
  22484357.311    -7634391.135 3  -5948856.821 2
  20560346.263      823127.929 4    641398.176 2
 91  7 27  1 20 15.0000000  0  4 17 16 23 03
  20480501.046    -1020995.004 5   -795578.588 3
  23874604.362     8560959.438 2   6670871.917 1
  22477388.025    -7671016.145 3  -5977395.758 2
  20563229.074      838266.873 4    653194.754 2
 91  7 27  1 20 30.0000000  0  4 17 16 23 03
  20481028.375    -1018209.306 5   -793407.908 3
  23885450.841     8617945.305 2   6715276.424 1
  22470434.934    -7707558.656 3  -6005870.389 2
  20566131.359      853521.905 4    665081.776 2
 91  7 27  1 20 45.0000000  0  4 17 16 23 03
  20481575.509    -1015337.008 4   -791169.757 4
  23896304.231     8674987.851 2   6759725.123 1
  22463497.146    -7744019.657 3  -6034281.500 2
  20569055.544      868892.098 4    677058.544 2
 91  7 27  1 21  0.0000000  0  4 17 16 23 03
  20482142.100    -1012378.053 5   -788864.073 3
  23907178.299     8732086.642 2   6804217.630 1
  22456574.034    -7780399.024 3  -6062629.018 2
  20572001.891      884377.445 4    689125.047 2
 91  7 27  1 21 15.0000000  0  4 17 16 23 03
  20482721.307    -1009332.985 4   -786491.293 3
  23918046.382     8789240.849 2   6848753.371 1
  22449662.927    -7816696.611 3  -6090912.806 2
  20574969.545      899977.867 4    701281.224 2
 91  7 27  1 21 30.0000000  0  4 17 16 23 03
  20483317.302    -1006201.840 4   -784051.433 3
  23928939.646     8846450.269 2   6893332.089 2
  22442773.983    -7852912.426 3  -6119132.865 2
  20577960.582      915693.377 4    713527.068 2
 91  7 27  1 21 45.0000000  0  4 17 16 23 03
  20483925.268    -1002985.075 4   -781544.854 4
  23939832.298     8903714.184 2   6937953.240 2
  22435897.951    -7889046.671 3  -6147289.366 2
  20580976.189      931523.736 4    725862.396 2
 91  7 27  1 22  0.0000000  0  4 17 16 23 03
  20484555.133     -999681.562 4   -778970.692 3
  23950739.348     8961033.499 2   6982617.575 2
  22429035.095    -7925097.892 3  -6175381.183 2
  20584008.880      947470.258 4    738288.257 2
 91  7 27  1 22 15.0000000  0  4 17 16 23 03
  20485203.880     -996291.896 4   -776329.393 3
  23961661.980     9018407.276 3   7027324.375 1
  22422193.231    -7961066.492 3  -6203408.609 2
  20587063.174      963532.301 4    750804.132 2
 91  7 27  1 22 30.0000000  0  4 17 16 23 03
  20485865.226     -992816.968 4   -773621.647 3
  23972585.816     9075834.538 3   7072072.858 2
  22415362.169    -7996952.892 3  -6231371.984 2
  20590142.649      979709.347 4    763409.616 2
 91  7 27  1 22 45.0000000  0  4 17 16 23 03
  20486540.968     -989256.090 4   -770846.944 4
  23983522.548     9133315.411 2   7116863.086 1
  22408551.488    -8032756.352 3  -6259270.747 2
  20593244.600      996002.271 4    776105.377 2
 91  7 27  1 23  0.0000000  0  4 17 16 23 03
  20487228.681     -985636.163 4   -768026.213 4
  23994467.674     9190823.091 2   7161674.209 1
  22401747.701    -8068503.415 3  -6287125.535 2
  20596362.430     1012384.144 4    788870.485 2
 91  7 27  1 23 15.0000000  0  4 17 16 23 03
  20487937.404     -981946.831 4   -765151.402 4
  24005420.896     9248367.706 2   7206514.125 1
  22394960.997    -8104183.213 3  -6314927.933 2
  20599498.269     1028865.838 4    801713.356 2
 91  7 27  1 23 30.0000000  0  4 17 16 23 03
  20488650.298     -978172.788 4   -762210.583 3
  24016373.508     9305964.088 2   7251394.362 1
  22388184.484    -8139780.336 3  -6342665.909 2
  20602655.380     1045462.833 4    814646.081 2
 91  7 27  1 23 45.0000000  0  4 17 16 23 03
  20489382.387     -974314.788 4   -759204.345 4
  24027349.817     9363611.289 2   7296314.207 1
  22381426.852    -8175295.444 3  -6370339.960 2
  20605836.171     1062174.158 4    827667.886 2
 91  7 27  1 24  0.0000000  0  4 17 16 23 03
  20490134.875     -970372.447 4   -756132.389 4
  24038331.501     9421309.229 2   7341273.602 1
  22374680.633    -8210727.873 3  -6397949.599 2
  20609034.970     1079000.756 4    840779.511 2
 91  7 27  1 24 15.0000000  0  4 17 16 23 03
  20490902.039     -966345.985 4   -752994.891 3
  24049322.206     9479057.606 2   7386272.299 1
  22367957.186    -8246077.544 3  -6425494.742 2
  20612260.137     1095942.391 4    853980.783 2
 91  7 27  1 24 30.0000000  0  4 17 16 23 03
  20491682.099     -962236.626 4   -749792.785 3
  24060324.289     9536855.199 2   7431309.310 2
  22361243.931    -8281345.330 3  -6452976.087 2
  20615507.186     1112998.133 4    867270.970 2
 91  7 27  1 24 45.0000000  0  4 17 16 23 03
  20492481.057     -958043.903 4   -746525.729 3
  24071326.966     9594701.687 2   7476384.466 1
  22354551.074    -8316530.521 3  -6480393.073 2
  20618773.727     1130168.339 4    880650.345 2
 91  7 27  1 25  0.0000000  0  4 17 16 23 03
  20493298.286     -953747.544 4   -743177.917 4
  24082348.837     9652617.375 2   7521513.516 1
  22347876.785    -8351612.597 3  -6507729.711 2
  20622068.747     1147473.370 4    894134.779 2
 91  7 27  1 25 15.0000000  0  4 17 16 23 03
  20494136.507     -949345.960 4   -739748.109 3
  24093382.994     9710603.581 2   7566697.518 1
  22341214.501    -8386589.885 3  -6534984.691 2
  20625386.243     1164915.213 4    907725.809 2
 91  7 27  1 25 30.0000000  0  4 17 16 23 03
  20494987.310     -944862.659 4   -736254.617 3
  24104426.748     9768636.624 2   7611918.010 1
  22334578.584    -8421485.539 3  -6562176.054 2
  20628728.030     1182470.454 4    921405.220 2
 91  7 27  1 25 45.0000000  0  4 17 16 23 03
  20495861.810     -940295.895 4   -732696.097 4
  24115477.395     9826717.863 2   7657176.051 1
  22327946.577    -8456297.252 3  -6589302.022 2
  20632087.807     1200141.319 4    935174.716 2
 91  7 27  1 26  0.0000000  0  4 17 16 23 03
  20496742.296     -935647.860 4   -729074.251 4
  24126539.751     9884844.892 2   7702469.800 1
  22321346.660    -8491027.155 3  -6616364.234 2
  20635476.360     1217925.619 4    949032.601 2
 91  7 27  1 26 15.0000000  0  4 17 16 23 03
  20497646.479     -930916.393 4   -725387.395 3
  24137606.889     9943019.447 2   7747800.575 1
  22314751.525    -8525672.773 3  -6643360.779 2
  20638879.292     1235825.629 4    962980.648 2
 91  7 27  1 26 30.0000000  0  4 17 16 23 03
  20498560.242     -926102.711 4   -721636.469 4
  24148692.314    10001239.969 2   7793167.186 1
  22308176.178    -8560235.368 3  -6670292.616 2
  20642308.627     1253840.025 4    977017.835 2
 91  7 27  1 26 45.0000000  0  4 17 16 23 03
  20499490.496     -921207.101 4   -717821.705 3
  24159775.331    10059506.056 2   7838569.308 1
  22301609.818    -8594714.869 3  -6697159.715 2
  20645758.343     1271968.823 4    991144.165 2
 91  7 27  1 27  0.0000000  0  4 17 16 23 03
  20500438.147     -916229.052 4   -713942.706 3
  24170873.059    10117818.156 2   7884007.219 1
  22295067.138    -8629110.412 3  -6723961.401 2
  20649227.533     1290212.760 4   1005360.212 2
 91  7 27  1 27 15.0000000  0  4 17 16 23 03
  20501399.584     -911169.427 4   -710000.130 4
  24181973.474    10176175.262 2   7929480.245 1
  22288537.075    -8663422.564 3  -6750698.103 2
  20652722.812     1308571.323 4   1019665.574 2
 91  7 27  1 27 30.0000000  0  4 17 16 23 03
  20502379.292     -906028.500 4   -705994.223 3
  24193090.066    10234576.230 2   7974987.428 1
  22282025.875    -8697651.521 3  -6777369.966 2
  20656238.787     1327044.002 4   1034059.867 2
 91  7 27  1 27 45.0000000  0  4 17 16 23 03
  20503371.616     -900806.308 4   -701924.980 3
  24204216.569    10293021.214 2   8020528.953 1
  22275525.477    -8731796.704 3  -6803976.554 2
  20659773.939     1345631.217 4   1048543.408 2
 91  7 27  1 28  0.0000000  0  4 17 16 23 03
  20504380.116     -895502.477 4   -697792.125 4
  24215343.369    10351510.149 2   8066104.676 1
  22269046.368    -8765857.727 3  -6830517.562 2
  20663335.179     1364333.433 4   1063116.554 2
 91  7 27  1 28 15.0000000  0  4 17 16 23 03
  20505404.811     -890116.784 4   -693595.477 3
  24226480.656    10410043.189 2   8111714.789 1
  22262577.136    -8799834.169 3  -6856992.692 2
  20666918.285     1383151.004 4   1077779.582 2
 91  7 27  1 28 30.0000000  0  4 17 16 23 03
  20506448.683     -884649.642 4   -689335.370 3
  24237632.933    10468619.769 2   8157358.838 1
  22256132.806    -8833725.874 3  -6883401.764 2
  20670516.694     1402084.119 4   1092532.647 2
 91  7 27  1 28 45.0000000  0  4 17 16 23 03
  20507499.448     -879101.579 4   -685012.196 3
  24248780.411    10527239.121 2   8203036.204 1
  22249692.053    -8867533.360 3  -6909745.207 2
  20674141.785     1421131.877 4   1107375.038 2
 91  7 27  1 29  0.0000000  0  4 17 16 23 03
  20508573.613     -873473.168 4   -680626.418 4
  24259944.398    10585900.350 2   8248746.200 1
  22243280.092    -8901257.012 3  -6936023.332 2
  20677790.556     1440294.065 4   1122306.610 2
 91  7 27  1 29 15.0000000  0  4 17 16 23 03
  20509658.563     -867763.851 4   -676177.606 4
  24271111.368    10644603.744 2   8294489.043 1
  22236878.323    -8934895.970 3  -6962235.457 2
  20681461.227     1459571.164 4   1137327.714 2
 91  7 27  1 29 30.0000000  0  4 17 16 23 03
  20510761.190     -861972.333 4   -671664.738 4
  24282296.015    10703350.336 2   8340265.562 1
  22230493.044    -8968448.530 3  -6988380.260 2
  20685147.777     1478964.762 4   1152439.593 2
 91  7 27  1 29 45.0000000  0  4 17 16 23 03
  20511881.511     -856101.001 4   -667089.669 3
  24293479.476    10762137.431 2   8386073.611 1
  22224122.755    -9001916.758 3  -7014459.378 2
  20688860.398     1498472.731 4   1167640.591 2
 91  7 27  1 30  0.0000000  0  4 17 16 23 03
  20513015.043     -850148.817 4   -662451.602 4
  24304676.129    10820965.656 2   8431913.806 1
  22217772.847    -9035299.528 3  -7040471.872 2
  20692593.715     1518096.131 4   1182931.549 2
 91  7 27  1 30 15.0000000  0  4 17 16 23 03
  20514163.232     -844117.431 4   -657751.823 4
  24315877.860    10879833.036 2   8477784.428 1
  22211435.836    -9068598.293 3  -7066418.906 2
  20696347.414     1537833.666 4   1198311.440 2
 91  7 27  1 30 30.0000000  0  4 17 16 23 03
  20515324.928     -838005.706 5   -652989.441 4
  24327084.110    10938740.837 2   8523686.557 1
  22205114.424    -9101811.564 3  -7092299.343 2
  20700127.794     1557686.381 4   1213781.065 2
 91  7 27  1 30 45.0000000  0  4 17 16 23 03
  20516503.114     -831821.078 4   -648170.251 4
  24338295.142    10997681.157 2   8569614.040 1
  22198811.284    -9134946.657 3  -7118118.850 2
  20703925.869     1577646.877 4   1229334.699 2
 91  7 27  1 31  0.0000000  0  4 17 16 23 03
  20517686.693     -825592.688 5   -643316.951 4
  24349518.773    11056624.876 2   8615544.130 1
  22192512.052    -9168032.159 3  -7143899.710 2
  20707741.935     1597686.689 4   1244950.132 2
 91  7 27  1 31 15.0000000  0  4 17 16 23 03
  20518886.168     -819284.932 4   -638401.823 4
  24360748.704    11115607.190 2   8661504.342 1
  22186232.887    -9201032.368 3  -7169614.110 2
  20711576.271     1617841.228 4   1260654.945 2
 91  7 27  1 31 30.0000000  0  4 17 16 23 03
  20520100.337     -812897.707 5   -633424.764 4
  24371972.632    11174627.829 2   8707494.373 1
  22179964.525    -9233946.962 3  -7195261.800 2
  20715433.398     1638110.792 4   1276449.403 2
 91  7 27  1 31 45.0000000  0  4 17 16 23 03
  20521332.776     -806430.516 5   -628385.392 4
  24383216.051    11233686.894 2   8753514.379 1
  22173721.046    -9266775.388 3  -7220842.350 2
  20719311.813     1658495.601 4   1292333.657 2
 91  7 27  1 32  0.0000000  0  4 17 16 23 03
  20522578.408     -799884.738 5   -623284.785 4
  24394466.957    11292783.063 2   8799563.295 1
  22167490.167    -9299518.594 3  -7246356.488 2
  20723209.721     1678995.133 4   1308307.307 2
 91  7 27  1 32 15.0000000  0  4 17 16 23 03
  20523840.233     -793259.028 4   -618121.896 4
  24405711.581    11351917.437 2   8845641.934 1
  22161274.574    -9332175.129 3  -7271803.097 2
  20727134.903     1699610.382 4   1324371.127 2
 91  7 27  1 32 30.0000000  0  4 17 16 23 03
  20525116.751     -786553.590 4   -612896.883 4
  24416975.975    11411089.380 2   8891749.900 1
  22155078.752    -9364744.911 3  -7297182.103 2
  20731078.966     1720341.462 4   1340525.201 2
 91  7 27  1 32 45.0000000  0  4 17 16 23 03
  20526404.368     -779768.112 4   -607609.494 4
  24428248.170    11470298.703 2   8937886.958 1
  22148897.344    -9397227.396 3  -7322493.067 2
  20735045.820     1741188.812 4   1356769.874 2
 91  7 27  1 33  0.0000000  0  4 17 16 23 03
  20527710.255     -772903.294 4   -602260.284 4
  24439517.975    11529545.027 2   8984052.898 1
  22142733.002    -9429622.942 3  -7347736.307 2
  20739038.761     1762151.924 4   1373104.747 2
 91  7 27  1 33 15.0000000  0  4 17 16 23 03
  20529031.446     -765959.275 4   -596849.358 4
  24450798.267    11588828.031 2   9030247.333 1
  22136586.058    -9461931.203 3  -7372911.543 2
  20743050.287     1783231.006 4   1389529.993 2
 91  7 27  1 33 30.0000000  0  4 17 16 23 03
  20530369.127     -758936.120 4   -591376.770 4
  24462087.842    11648147.227 2   9076470.060 1
  22130454.104    -9494152.029 3  -7398018.638 2
  20747080.694     1804426.129 4   1406045.668 2
 91  7 27  1 33 45.0000000  0  4 17 16 23 03
  20531727.173     -751794.080 4   -585811.540 4
  24473389.126    11707541.943 2   9122751.609 1
  22124345.533    -9526245.919 3  -7423026.817 2
  20751144.675     1825776.618 4   1422682.394 2
 91  7 27  1 34  0.0000000  0  4 17 16 23 03
  20533105.025     -744574.289 4   -580185.724 4
  24484694.302    11766970.646 2   9169059.585 1
  22118254.953    -9558253.667 3  -7447967.868 2
  20755228.148     1847241.810 4   1439408.511 2
 91  7 27  1 34 15.0000000  0  4 17 16 23 03
  20534491.270     -737276.322 4   -574498.993 4
  24496010.263    11826433.890 2   9215394.519 1
  22112179.957    -9590174.174 3  -7472840.940 2
  20759336.209     1868822.398 4   1456224.532 2
 91  7 27  1 34 30.0000000  0  4 17 16 23 03
  20535894.302     -729900.345 4   -568751.480 4
  24507341.823    11885931.056 2   9261755.906 1
  22106122.358    -9622007.683 3  -7497646.231 2
  20763463.761     1890518.261 4   1473130.400 2
 91  7 27  1 34 45.0000000  0  4 17 16 23 03
  20537318.606     -722446.874 4   -562943.577 3
  24518664.973    11945461.787 2   9308143.457 1
  22100083.030    -9653754.137 3  -7522383.692 2
  20767614.679     1912329.338 4   1490126.027 2
 91  7 27  1 35  0.0000000  0  4 17 16 23 03
  20538747.116     -714916.058 4   -557075.403 4
  24529998.942    12005025.258 2   9354556.467 1
  22094059.005    -9685413.803 4  -7547053.519 2
  20771787.497     1934255.142 4   1507211.052 2
 91  7 27  1 35 15.0000000  0  4 17 16 23 03
  20540193.914     -707309.442 4   -551148.167 4
  24541332.282    12064619.474 2   9400993.524 1
  22088047.859    -9716987.990 3  -7571656.741 2
  20775980.680     1956294.343 4   1524384.445 2
 91  7 27  1 35 30.0000000  0  4 17 16 23 03
  20541656.608     -699625.493 4   -545160.681 4
  24552678.536    12124246.036 2   9447455.641 1
  22082056.815    -9748474.880 4  -7596191.931 2
  20780197.263     1978448.488 4   1541647.407 2
 91  7 27  1 35 45.0000000  0  4 17 16 23 03
  20543133.682     -691865.671 5   -539114.061 4
  24564033.166    12183903.428 2   9493941.955 1
  22076081.354    -9779875.475 3  -7620659.886 2
  20784435.433     2000716.604 4   1558999.174 2
 91  7 27  1 36  0.0000000  0  4 17 16 23 03
  20544626.060     -684026.938 4   -533005.958 4
  24575393.205    12243593.911 2   9540453.942 1
  22070123.868    -9811186.995 4  -7645058.442 2
  20788693.390     2023101.418 4   1576441.884 2
 91  7 27  1 36 15.0000000  0  4 17 16 23 03
  20546128.611     -676111.174 4   -526837.828 4
  24586760.434    12303316.019 2   9586990.616 1
  22064179.887    -9842410.677 4  -7669388.539 2
  20792978.326     2045601.479 4   1593974.383 2
 91  7 27  1 36 30.0000000  0  4 17 16 23 03
  20547653.062     -668117.966 4   -520609.357 4
  24598129.774    12363069.421 2   9633551.698 1
  22058256.882    -9873545.932 4  -7693649.738 2
  20797278.252     2068217.396 4   1611597.151 2
 91  7 27  1 36 45.0000000  0  4 17 16 23 03
  20549184.999     -660048.073 4   -514321.128 4
  24609501.488    12422853.536 2   9680136.681 1
  22052348.273    -9904593.245 4  -7717842.410 2
  20801608.454     2090948.494 4   1629309.689 2
 91  7 27  1 37  0.0000000  0  4 17 16 23 03
  20550738.225     -651900.781 5   -507972.581 4
  24620887.615    12482668.587 2   9726745.755 1
  22046455.858    -9935551.622 4  -7741965.777 2
  20805951.848     2113795.729 4   1647112.732 2
 91  7 27  1 37 15.0000000  0  4 17 16 23 03
  20552301.939     -643674.869 5   -501562.774 3
  24632280.618    12542515.547 2   9773379.645 1
  22040582.917    -9966419.797 3  -7766018.862 2
  20810324.611     2136760.265 4   1665007.150 2
 91  7 27  1 37 30.0000000  0  4 17 16 23 03
  20553882.440     -635372.641 4   -495093.507 4
  24643673.935    12602392.014 2   9820036.646 1
  22034726.171    -9997199.701 4  -7790003.169 2
  20814716.272     2159839.748 4   1682991.155 2
 91  7 27  1 37 45.0000000  0  4 17 16 23 03
  20555479.746     -626992.234 5   -488563.320 4
  24655072.941    12662299.415 2   9866717.642 1
  22028883.820   -10027889.446 4  -7813917.209 2
  20819128.612     2183036.431 4   1701066.479 2
 91  7 27  1 38  0.0000000  0  4 17 16 23 03
  20557086.632     -618534.998 4   -481973.257 3
  24666474.058    12722236.279 2   9913421.664 1
  22023062.759   -10058489.892 3  -7837761.687 2
  20823567.336     2206349.116 4   1719232.200 2
 91  7 27  1 38 15.0000000  0  4 17 16 23 03
  20558710.916     -610000.780 5   -475323.215 4
  24677885.349    12782202.770 2   9960148.746 1
  22017257.560   -10089000.710 3  -7861536.318 2
  20828022.848     2229778.005 4   1737488.473 2
 91  7 27  1 38 30.0000000  0  4 17 16 23 03
  20560352.562     -601389.475 5   -468613.105 4
  24689304.736    12842198.465 2  10006898.617 1
  22011465.868   -10119421.739 4  -7885240.975 2
  20832502.354     2253323.361 4   1755835.496 2
 91  7 27  1 38 45.0000000  0  4 17 16 23 03
  20562001.119     -592701.233 5   -461843.046 4
  24700729.534    12902222.793 2  10053670.762 1
  22005697.280   -10149752.748 4  -7908875.489 2
  20837007.651     2276985.144 4   1774273.236 2
 91  7 27  1 39  0.0000000  0  4 17 16 23 03
  20563669.465     -583937.532 5   -455014.183 4
  24712154.924    12962274.004 2  10100463.865 1
  21999941.256   -10179994.996 4  -7932440.838 2
  20841532.423     2300761.953 4   1792800.611 2
 91  7 27  1 39 15.0010000  0  4 17 16 23 03
  20565356.084     -575097.424 5   -448125.782 4
  24723587.525    13022356.748 2  10147281.498 1
  21994202.947   -10210149.804 4  -7955938.056 2
  20846077.876     2324655.998 4   1811419.337 2
 91  7 27  1 39 30.0010000  0  4 17 16 23 03
  20567049.313     -566181.857 5   -441178.583 4
  24735025.514    13082462.914 2  10194117.389 1
  21988483.184   -10240212.727 4  -7979363.676 2
  20850646.099     2348664.442 4   1830127.205 2
 91  7 27  1 39 45.0010000  0  4 17 16 23 03
  20568762.331     -557190.021 5   -434171.956 3
  24746471.566    13142596.387 2  10240974.583 1
  21982779.336   -10270185.351 4  -8002718.933 2
  20855237.426     2372789.086 4   1848925.613 2
 91  7 27  1 40  0.0010000  0  4 17 16 23 03
  20570484.947     -548121.539 5   -427105.600 3
  24757918.839    13202757.206 2  10287853.075 1
  21977091.961   -10300067.296 4  -8026003.526 2
  20859853.322     2397030.479 4   1867815.002 2
 91  7 27  1 40 15.0010000  0  4 17 16 23 03
  20572224.629     -538976.933 5   -419979.931 4
  24769376.617    13262944.472 2  10334752.201 1
  21971425.282   -10329858.828 4  -8049217.672 2
  20864489.915     2421388.236 4   1886795.054 2
 91  7 27  1 40 30.0010000  0  4 17 16 23 03
  20573980.540     -529755.241 5   -412794.196 4
  24780828.706    13323159.242 2  10381672.736 1
  21965771.516   -10359558.546 4  -8072360.275 2
  20869146.296     2445863.562 4   1905866.733 2
 91  7 27  1 40 45.0010000  0  4 17 16 23 03
  20575749.922     -520458.548 5   -405550.016 3
  24792289.172    13383399.064 2  10428612.793 1
  21960137.225   -10389168.217 4  -8095432.718 2
  20873823.339     2470454.470 4   1925028.463 2
 91  7 27  1 41  0.0010000  0  4 17 16 23 03
  20577534.556     -511086.149 5   -398246.847 4
  24803761.015    13443664.297 2  10475572.652 1
  21954520.907   -10418687.140 4  -8118434.428 2
  20878525.893     2495161.563 4   1944280.721 2
 91  7 27  1 41 15.0010000  0  4 17 16 23 03
  20579332.138     -501637.041 4   -390883.899 4
  24815237.080    13503955.589 2  10522552.838 1
  21948921.970   -10448114.153 4  -8141364.553 2
  20883248.829     2519985.663 4   1963624.170 2
 91  7 27  1 41 30.0010000  0  4 17 16 23 03
  20581144.971     -492110.993 4   -383461.005 4
  24826711.925    13564273.320 2  10569553.602 1
  21943338.947   -10477448.576 4  -8164222.504 2
  20887994.556     2544927.780 4   1983059.570 2
 91  7 27  1 41 45.0010000  0  4 17 16 23 03
  20582972.498     -482508.085 5   -375978.222 4
  24838195.180    13624617.150 2  10616574.723 1
  21937773.305   -10506690.513 4  -8187008.395 2
  20892760.350     2569987.504 4   2002586.613 2
 91  7 27  1 42  0.0010000  0  4 17 16 23 03
  20584814.717     -472829.008 5   -368436.080 4
  24849674.841    13684985.836 2  10663615.202 1
  21932226.544   -10535840.449 4  -8209722.592 2
  20897555.216     2595164.408 4   2022204.967 2
 91  7 27  1 42 15.0010000  0  4 17 16 23 03
  20586671.350     -463072.606 5   -360833.685 4
  24861181.165    13745380.544 2  10710675.938 1
  21926696.849   -10564896.772 4  -8232363.859 2
  20902371.406     2620459.661 4   2041915.543 2
 91  7 27  1 42 30.0010000  0  4 17 16 23 03
  20588540.548     -453238.197 5   -353170.510 4
  24872674.018    13805801.726 2  10757757.343 1
  21921185.163   -10593858.700 4  -8254931.569 2
  20907204.349     2645874.135 4   2061719.023 2
 91  7 27  1 42 45.0010000  0  4 17 16 23 03
  20590426.847     -443327.718 4   -345448.057 4
  24884176.748    13866247.216 2  10804857.632 1
  21915692.986   -10622727.720 4  -8277426.876 2
  20912063.083     2671406.134 4   2081614.068 2
 91  7 27  1 43  0.0010000  0  4 17 16 23 03
  20592329.618     -433341.456 4   -337666.551 4
  24895673.196    13926716.326 2  10851976.332 1
  21910214.874   -10651504.313 4  -8299850.160 2
  20916943.106     2697055.174 4   2101600.327 2
 91  7 27  1 43 15.0010000  0  4 17 16 23 03
  20594244.989     -423278.257 4   -329825.096 4
  24907189.711    13987210.356 2  10899114.470 1
  21904756.237   -10680186.780 4  -8322200.105 2
  20921845.012     2722822.779 4   2121678.956 2
 91  7 27  1 43 30.0010000  0  4 17 16 23 03
  20596173.866     -413137.622 4   -321923.306 4
  24918707.448    14047729.296 2  10946272.053 1
  21899318.923   -10708774.528 4  -8344476.248 2
  20926773.895     2748709.558 4   2141850.452 2
 91  7 27  1 43 45.0010000  0  4 17 16 23 03
  20598116.809     -402919.860 4   -313961.412 4
  24930232.375    14108272.720 2  10993448.675 1
  21893897.176   -10737267.510 4  -8366678.535 2
  20931724.662     2774715.324 4   2162114.679 2
 91  7 27  1 44  0.0010000  0  4 17 16 23 03
  20600075.072     -392626.752 4   -305940.802 4
  24941758.174    14168838.600 2  11040642.814 1
  21888492.808   -10765667.442 4  -8388808.334 2
  20936692.215     2800838.340 4   2182470.264 2
 91  7 27  1 44 15.0010000  0  4 17 16 23 03
  20602049.808     -382257.375 4   -297860.766 4
  24953287.603    14229427.366 2  11087854.809 1
  21883107.357   -10793973.260 4  -8410864.794 2
  20941687.968     2827079.585 4   2202917.973 2
 91  7 27  1 44 30.0010000  0  4 17 16 23 03
  20604036.830     -371813.703 5   -289722.844 4
  24964824.221    14290037.160 2  11135083.165 1
  21877735.971   -10822186.354 4  -8432848.994 2
  20946703.196     2853437.375 4   2223456.494 2
 91  7 27  1 44 45.0010000  0  4 17 16 23 03
  20606039.138     -361293.121 4   -281524.987 4
  24976360.839    14350670.276 2  11182329.707 1
  21872387.374   -10850304.141 4  -8454758.926 2
  20951739.119     2879914.178 4   2244087.749 2
 91  7 27  1 45  0.0010000  0  4 17 16 23 03
  20608053.137     -350696.687 4   -273268.025 4
  24987903.146    14411325.333 2  11229593.315 1
  21867054.064   -10878327.657 4  -8476595.403 2
  20956802.614     2906509.123 4   2264811.071 2
 91  7 27  1 45 15.0010000  0  4 17 16 23 03
  20610083.924     -340023.437 4   -264951.202 4
  24999448.140    14472003.226 2  11276874.787 1
  21861736.634   -10906255.502 4  -8498357.333 2
  20961886.177     2933223.292 4   2285627.299 2
 91  7 27  1 45 30.0010000  0  3 17 23 03
  20612132.719     -329275.300 4   -256576.033 4
  21856440.213   -10934089.504 4  -8520046.136 2
  20966990.470     2960054.974 4   2306535.082 2
 91  7 27  1 45 45.0010000  0  3 17 23 03
  20614190.797     -318450.080 4   -248140.795 4
  21851162.360   -10961827.209 4  -8541659.902 2
  20972121.706     2987006.277 4   2327536.068 2
 91  7 27  1 46  0.0010000  0  3 17 23 03
  20616267.757     -307549.595 4   -239646.915 4
  21845905.203   -10989470.211 4  -8563199.874 2
  20977271.824     3014075.590 4   2348629.030 2
 91  7 27  1 46 15.0010000  0  3 17 23 03
  20618353.128     -296572.548 4   -231093.369 4
  21840661.238   -11017016.921 4  -8584664.809 2
  20982445.639     3041264.317 4   2369815.036 2
 91  7 27  1 46 30.0010000  0  3 17 23 03
  20620456.159     -285519.793 4   -222480.835 4
  21835437.655   -11044468.305 4  -8606055.471 2
  20987640.743     3068571.436 4   2391093.292 2
 91  7 27  1 46 45.0010000  0  3 17 23 03
  20622575.697     -274392.478 4   -213810.201 4
  21830229.358   -11071825.104 4  -8627372.419 2
  20992858.952     3095996.040 4   2412463.098 2
 91  7 27  1 47  0.0010000  0  3 17 23 03
  20624706.927     -263189.234 4   -205080.400 4
  21825042.037   -11099085.654 4  -8648614.373 2
  20998102.324     3123539.537 4   2433925.542 2
 91  7 27  1 47 15.0010000  0  3 17 23 03
  20626853.443     -251911.591 5   -196292.627 4
  21819872.410   -11126251.412 4  -8669782.472 2
  21003364.890     3151200.610 4   2455479.622 2
 91  7 27  1 47 30.0010000  0  3 17 23 03
  20629013.745     -240558.905 5   -187446.382 4
  21814722.885   -11153321.501 4  -8690876.018 2
  21008650.526     3178980.095 4   2477125.956 2
 91  7 27  1 47 45.0010000  0  3 17 23 03
  20631186.612     -229130.487 5   -178541.127 4
  21809587.740   -11180294.882 4  -8711894.199 2
  21013963.141     3206878.658 4   2498865.088 2
 91  7 27  1 48  0.0010000  0  3 17 23 03
  20633377.207     -217626.156 5   -169576.711 4
  21804474.163   -11207171.252 4  -8732836.794 2
  21019289.854     3234896.617 4   2520697.234 2
 91  7 27  1 48 15.0010000  0  3 17 23 03
  20635582.182     -206048.217 5   -160554.939 4
  21799378.595   -11233952.787 4  -8753705.492 2
  21024645.047     3263031.780 4   2542620.722 2
 91  7 27  1 48 30.0010000  0  3 17 23 03
  20637797.347     -194394.914 5   -151474.448 4
  21794298.627   -11260637.500 4  -8774498.751 2
  21030024.216     3291285.766 4   2564636.802 2
 91  7 27  1 48 45.0010000  0  3 17 23 03
  20640029.893     -182666.063 5   -142335.087 3
  21789244.730   -11287224.931 4  -8795216.197 2
  21035422.581     3319659.111 4   2586745.894 2
 91  7 27  1 49  0.0010000  0  3 17 23 03
  20642276.260     -170863.071 5   -133137.950 4
  21784198.615   -11313716.312 4  -8815858.802 2
  21040843.735     3348150.188 4   2608946.721 2
 91  7 27  1 49 15.0010000  0  3 17 23 03
  20644539.972     -158986.469 5   -123883.460 4
  21779178.572   -11340112.100 4  -8836426.920 2
  21046284.957     3376758.765 4   2631239.081 2
 91  7 27  1 49 30.0010000  0  3 17 23 03
  20646811.222     -147035.906 5   -114571.332 4
  21774173.256   -11366411.618 4  -8856920.034 2
  21051752.564     3405485.304 4   2653623.387 2
 91  7 27  1 49 45.0010000  0  3 17 23 03
  20649099.539     -135010.408 5   -105200.823 3
  21769186.821   -11392613.715 4  -8877337.217 2
  21057240.867     3434330.944 4   2676100.491 2
 91  7 27  1 50  0.0010000  0  3 17 23 03
  20651403.422     -122910.899 5    -95772.636 3
  21764218.640   -11418719.054 4  -8897679.014 2
  21062752.274     3463294.717 4   2698669.649 2
 91  7 27  1 50 15.0010000  0  3 17 23 03
  20653719.938     -110738.016 5    -86287.269 3
  21759269.374   -11444728.102 4  -8917945.774 2
  21068286.715     3492376.031 4   2721330.376 2
 91  7 27  1 50 30.0010000  0  3 17 23 03
  20656050.205      -98490.266 5    -76743.572 4
  21754338.396   -11470639.320 4  -8938136.314 2
  21073844.575     3521576.327 4   2744083.848 2
 91  7 27  1 50 45.0010000  0  3 17 23 03
  20658392.792      -86167.986 5    -67141.800 4
  21749424.485   -11496452.981 4  -8958250.829 2
  21079422.816     3550895.407 4   2766929.873 2
 91  7 27  1 51  0.0010000  0  3 17 23 03
  20660754.260      -73771.516 5    -57482.220 4
  21744534.585   -11522169.004 4  -8978289.261 2
  21085024.755     3580333.128 4   2789868.339 2
 91  7 27  1 51 15.0010000  0  3 17 23 03
  20663125.920      -61300.263 5    -47764.358 4
  21739659.064   -11547786.586 4  -8998250.991 2
  21090649.134     3609890.154 4   2812899.775 2
 91  7 27  1 51 30.0010000  0  3 17 23 03
  20665511.958      -48754.972 5    -37988.804 4
  21734799.108   -11573306.355 4  -9018136.493 2
  21096296.932     3639565.748 4   2836023.589 2
 91  7 27  1 51 45.0010000  0  3 17 23 03
  20667912.095      -36135.350 4    -28155.339 4
  21729962.257   -11598728.015 4  -9037945.551 2
  21101966.299     3669360.123 4   2859239.951 2
 91  7 27  1 52  0.0010000  0  3 17 23 03
  20670329.335      -23442.158 5    -18264.546 4
  21725147.288   -11624051.856 4  -9057678.391 2
  21107661.456     3699272.723 4   2882548.476 2
 91  7 27  1 52 15.0010000  0  3 17 23 03
  20672762.139      -10676.611 5     -8317.370 3
  21720341.324   -11649278.569 4  -9077335.530 3
  21113376.403     3729302.732 4   2905948.460 2
 91  7 27  1 52 30.0010000  0  3 17 23 03
  20675194.351        2123.686 4      1656.891 3
  21715556.928   -11674445.899 4  -9096946.425 2
  21119103.041     3759412.437 4   2929410.556 2
 91  7 27  1 52 45.0010000  0  3 17 23 03
  20677644.571       14996.050 5     11687.296 4
  21710784.851   -11699516.612 4  -9116482.012 2
  21124855.156     3789639.040 4   2952963.727 2
 91  7 27  1 53  0.0010000  0  3 17 23 03
  20680108.576       27943.641 5     21776.324 4
  21706033.122   -11724487.160 4  -9135939.551 2
  21130632.155     3819985.854 4   2976610.590 2
 91  7 27  1 53 15.0010000  0  3 17 23 03
  20682587.554       40965.634 4     31923.330 3
  21701300.588   -11749358.004 4  -9155319.399 2
  21136427.163     3850452.271 4   3000350.634 2
 91  7 27  1 53 30.0010000  0  3 17 23 03
  20685076.723       54060.596 4     42127.194 4
  21696584.562   -11774130.434 4  -9174622.570 2
  21142250.022     3881036.689 4   3024182.619 2
 91  7 27  1 53 45.0010000  0  3 17 23 03
  20687583.272       67229.420 4     52388.615 4
  21691888.918   -11798803.713 4  -9193848.476 2
  21148091.482     3911740.065 4   3048107.313 2
 91  7 27  1 54  0.0010000  0  3 17 23 03
  20690104.829       80472.205 4     62707.658 4
  21687215.470   -11823377.381 4  -9212996.758 2
  21153953.010     3942562.684 4   3072124.924 2
 91  7 27  1 54 15.0010000  0  3 17 23 03
  20692635.983       93789.013 4     73084.395 3
  21682556.995   -11847851.266 4  -9232067.287 2
  21159843.959     3973504.499 4   3096235.416 2
 91  7 27  1 54 30.0010000  0  3 17 23 03
  20695187.519      107179.808 4     83518.776 4
  21677920.089   -11872225.118 4  -9251059.881 2
  21165752.847     4004565.760 4   3120438.981 2
 91  7 27  1 54 45.0010000  0  3 17 23 03
  20697750.746      120664.850 4     94026.596 4
  21673304.785   -11896478.400 4  -9269958.507 2
  21171689.342     4035766.698 4   3144751.389 2
 91  7 27  1 55  0.0010000  0  3 17 23 03
  20700335.263      134244.082 4    104607.812 4
  21668709.549   -11920610.889 4  -9288763.008 2
  21177655.222     4067107.329 4   3169172.644 2
 91  7 27  1 55 15.0010000  0  3 17 23 03
  20702934.159      147896.636 4    115246.160 4
  21664136.825   -11944643.511 4  -9307489.705 2
  21183642.357     4098567.010 4   3193686.663 2
 91  7 27  1 55 30.0010000  0  4 17 23 21 03
  20705547.434      161622.147 4    125941.370 4
  21659584.796   -11968576.377 4  -9326138.662 2
  25625824.613           0.207 2         0.192 1
  21189649.315     4130145.250 4   3218293.074 2
 91  7 27  1 55 45.0010000  0  3 17 23 03
  20708171.528      175420.797 4    136693.564 4
  21655050.112   -11992409.414 4  -9344709.841 2
  21195682.937     4161842.203 4   3242991.981 2
 91  7 27  1 56  0.0010000  0  3 17 23 03
  20710810.594      189292.400 5    147502.604 4
  21650533.752   -12016142.416 4  -9363203.055 2
  21201740.536     4193657.788 4   3267783.312 2
 91  7 27  1 56 15.0010000  0  3 17 23 03
  20713465.575      203238.357 5    158369.577 4
  21646036.272   -12039773.812 4  -9381617.105 2
  21207814.922     4225593.261 4   3292668.079 2
 91  7 27  1 56 30.0010000  0  3 17 23 03
  20716134.027      217257.815 4    169293.828 4
  21641560.047   -12063304.032 4  -9399952.319 2
  21213915.099     4257648.457 4   3317646.140 2
 91  7 27  1 56 45.0010000  0  3 17 23 03
  20718813.264      231351.297 4    180275.756 4
  21637097.363   -12086732.782 4  -9418208.461 2
  21220043.162     4289823.378 4   3342717.504 2
 91  7 27  1 57  0.0010000  0  3 17 23 03
  20721513.510      245518.689 5    191315.274 4
  21632660.715   -12110059.832 4  -9436385.353 2
  21226184.731     4322118.105 4   3367882.216 2
 91  7 27  1 57 15.0010000  0  3 17 23 03
  20724222.412      259759.192 5    202411.762 4
  21628241.482   -12133285.602 4  -9454483.330 2
  21232349.963     4354531.915 4   3393139.695 2
 91  7 27  1 57 30.0010000  0  3 17 23 03
  20726946.950      274072.651 5    213565.105 4
  21623841.131   -12156410.214 4  -9472502.481 2
  21238539.765     4387064.684 4   3418489.891 2
 91  7 27  1 57 45.0010000  0  3 17 23 03
  20729684.051      288458.925 5    224775.189 4
  21619463.569   -12179433.841 4  -9490442.941 2
  21244755.358     4419716.182 4   3443932.602 2
 91  7 27  1 58  0.0010000  0  3 17 23 03
  20732435.846      302918.073 5    236042.052 3
  21615097.071   -12202356.123 4  -9508304.435 2
  21250990.739     4452486.664 4   3469468.018 2
 91  7 27  1 58 15.0010000  0  3 17 23 03
  20735199.612      317449.720 5    247365.407 4
  21610758.179   -12225177.185 4  -9526087.059 2
  21257252.506     4485375.924 4   3495095.991 2
 91  7 27  1 58 30.0010000  0  3 17 23 03
  20737978.384      332054.503 5    258745.754 4
  21606429.478   -12247896.272 4  -9543790.214 3
  21263534.968     4518384.618 4   3520817.021 2
 91  7 27  1 58 45.0010000  0  3 17 23 03
  20740770.349      346730.587 5    270181.668 4
  21602129.256   -12270515.009 4  -9561415.178 2
  21269838.405     4551510.955 4   3546629.753 2
 91  7 27  1 59  0.0010000  0  3 17 23 03
  20743579.136      361479.310 5    281674.177 4
  21597842.819   -12293032.000 4  -9578960.850 2
  21276165.820     4584756.099 4   3572535.027 2
 91  7 27  1 59 15.0010000  0  3 17 23 03
  20746398.673      376299.891 5    293222.670 4
  21593574.391   -12315447.751 4  -9596427.646 2
  21282513.336     4618119.197 4   3598532.227 2
 91  7 27  1 59 30.0010000  0  3 17 23 03
  20749234.403      391194.095 5    304828.531 4
  21589330.812   -12337760.420 4  -9613814.123 2
  21288884.201     4651602.465 4   3624623.073 2
 91  7 27  1 59 45.0010000  0  3 17 23 03
  20752081.231      406160.703 5    316490.824 4
  21585104.335   -12359970.210 4  -9631120.208 2
  21295277.891     4685204.459 4   3650806.407 2
 91  7 27  2  0  0.0010000  0  3 17 23 03
  20754943.940      421198.557 5    328208.625 3
  21580898.553   -12382080.839 4  -9648349.460 3
  21301691.335     4718924.271 4   3677081.563 2
 91  7 27  2  0 15.0010000  0  3 17 23 03
  20757818.654      436308.760 5    339982.808 4
  21576710.152   -12404087.980 4  -9665497.865 3
  21308131.791     4752762.836 4   3703449.256 2
 91  7 27  2  0 30.0010000  0  3 17 23 03
  20760704.466      451490.294 5    351812.571 3
  21572540.038   -12425993.734 4  -9682567.260 3
  21314597.725     4786719.338 4   3729908.841 2
 91  7 27  2  0 45.0010000  0  3 17 23 03
  20763608.845      466744.032 5    363698.597 3
  21568392.401   -12447797.008 4  -9699556.806 2
  21321080.132     4820794.442 4   3756460.859 2
 91  7 27  2  1  0.0010000  0  3 17 23 03
  20766526.417      482070.980 5    375641.671 3
  21564262.458   -12469496.690 4  -9716465.611 3
  21327586.516     4854989.407 4   3783106.265 2
 91  7 27  2  1 15.0010000  0  3 17 23 03
  20769456.902      497469.997 5    387640.898 4
  21560151.431   -12491093.671 4  -9733294.414 2
  21334115.689     4889303.157 4   3809844.223 2
 91  7 27  2  1 30.0010000  0  3 17 23 03
  20772399.358      512942.307 5    399697.241 3
  21556063.752   -12512586.586 4  -9750042.114 3
  21340669.467     4923736.730 4   3836675.568 2
 91  7 27  2  1 45.0010000  0  3 17 23 03
  20775358.007      528486.463 5    411809.567 4
  21551992.861   -12533976.869 4  -9766709.851 2
  21347243.314     4958288.571 4   3863599.065 2
 91  7 27  2  2  0.0010000  0  3 17 23 03
  20778329.256      544102.863 5    423978.186 3
  21547942.072   -12555263.678 4  -9783296.947 2
  21353839.950     4992959.567 4   3890615.397 2
 91  7 27  2  2 15.0010000  0  3 17 23 03
  20781314.290      559792.758 5    436204.074 3
  21543910.757   -12576445.626 4  -9799802.340 2
  21360462.656     5027751.023 4   3917725.592 2
 91  7 27  2  2 30.0010000  0  4 17 23 21 03
  20784317.019      575555.576 5    448486.778 4
  21539900.453   -12597523.275 4  -9816226.453 2
  25384662.848      406379.28112    316659.426 1
  21367104.279     5062662.026 4   3944928.948 2
 91  7 27  2  2 45.0010000  0  4 17 23 21 03
  20787328.124      591391.686 5    460826.602 4
  21535907.808   -12618496.144 4  -9832568.937 3
  25376113.987      361400.363 2    281610.697 1
  21373771.030     5097692.979 4   3972225.770 2
 91  7 27  2  3  0.0010000  0  4 17 23 21 03
  20790356.330      607301.016 5    473223.485 4
  21531937.954   -12639364.046 4  -9848829.614 2
  25367556.714      316443.671 2    246579.681 1
  21380456.732     5132843.994 4   3999616.158 2
 91  7 27  2  3 15.0010000  0  4 17 23 21 03
  20793396.541      623283.978 5    485677.735 4
  21527985.200   -12660126.530 4  -9865008.148 2
  25359008.132      271509.692 2    211565.965 1
  21387171.785     5168115.681 4   4027100.567 2
 91  7 27  2  3 30.0010000  0  4 17 23 21 03
  20796456.228      639339.614 5    498188.613 4
  21524055.202   -12680784.373 4  -9881105.146 2
  25350461.643      226597.826 2    176569.824 1
  21393907.499     5203506.616 4   4054677.897 2
 91  7 27  2  3 45.0010000  0  4 17 23 21 03
  20799523.103      655469.148 5    510757.083 4
  21520145.620   -12701336.364 4  -9897119.663 3
  25341916.341      181709.423 2    141591.616 1
  21400664.223     5239018.250 4   4082349.285 1
 91  7 27  2  4  0.0010000  0  4 17 23 21 03
  20802606.452      671670.829 5    523381.776 4
  21516254.605   -12721783.884 4  -9913052.772 2
  25333384.860      136843.097 2    106630.990 1
  21407444.052     5274649.160 4   4110113.607 2
 91  7 27  2  4 15.0010000  0  4 17 23 21 03
  20805703.901      687944.895 5    536062.861 4
  21512381.599   -12742126.616 4  -9928904.227 2
  25324842.281       91999.026 2     71687.354 1
  21414245.728     5310399.083 4   4137970.672 2
 91  7 27  2  4 30.0010000  0  4 17 23 21 03
  20808813.076      704292.909 5    548801.567 4
  21508533.757   -12762362.917 4  -9944672.746 2
  25316315.267       47179.155 2     36763.003 1
  21421075.604     5346269.829 4   4165921.868 2
 91  7 27  2  4 45.0010000  0  4 17 23 21 03
  20811938.410      720714.164 5    561597.349 4
  21504700.921   -12782493.217 4  -9960358.675 2
  25307788.287        2383.159 2      1857.231 1
  21427921.952     5382260.644 4   4193966.637 2
 91  7 27  2  5  0.0010000  0  4 17 23 21 03
  20815076.308      737208.481 5    574450.063 4
  21500892.655   -12802517.557 4  -9975962.039 2
  25299267.870      -42388.892 2    -33029.839 1
  21434791.405     5418371.502 4   4222104.939 2
 91  7 27  2  5 15.0010000  0  4 17 23 21 03
  20818229.527      753775.268 5    587359.243 4
  21497099.676   -12822436.673 4  -9991483.405 3
  25290744.485      -87137.616 2    -67899.215 1
  21441689.930     5454601.785 4   4250336.296 2
 91  7 27  2  5 30.0010000  0  4 17 23 21 03
  20821395.346      770414.584 5    600324.942 4
  21493327.672   -12842250.142 4 -10006922.453 3
  25282238.481     -131862.609 2   -102749.660 1
  21448608.522     5490951.502 4   4278660.734 1
 91  7 27  2  5 45.0010000  0  4 17 23 21 03
  20824575.543      787125.705 5    613346.595 4
  21489579.679   -12861958.401 4 -10022279.515 3
  25273739.353     -176564.248 2   -137581.913 1
  21455543.937     5527420.033 4   4307077.733 2
 91  7 27  2  6  0.0010000  0  4 17 23 21 03
  20827771.341      803910.673 5    626425.793 4
  21485845.751   -12881559.335 4 -10037552.949 3
  25265235.443     -221240.220 2   -172394.128 1
  21462507.830     5564009.361 4   4335588.877 2
 91  7 27  2  6 15.0010000  0  4 17 23 21 03
  20830979.110      820767.998 5    639561.364 4
  21482139.430   -12901054.424 4 -10052743.909 2
  25256753.101     -265891.960 2   -207187.569 1
  21469492.384     5600718.026 4   4364193.016 2
 91  7 27  2  6 30.0010000  0  4 17 23 21 03
  20834200.386      837696.573 5    652752.457 4
  21478450.174   -12920444.391 4 -10067852.953 2
  25248252.193     -310520.184 2   -241962.996 1
  21476499.729     5637544.981 4   4392889.319 2
 91  7 27  2  6 45.0010000  0  4 17 23 21 03
  20837433.946      854697.127 5    665999.639 4
  21474780.114   -12939728.572 4 -10082879.564 3
  25239760.289     -355123.962 2   -276718.941 1
  21483531.957     5674491.038 4   4421678.421 2
 91  7 27  2  7  0.0010000  0  3 17 23 03
  20840682.478      871769.760 5    679302.988 4
  21471132.251   -12958906.866 4 -10097823.670 3
  21490584.288     5711556.130 4   4450560.303 2
 91  7 27  2  7 15.0010000  0  3 17 23 03
  20843945.146      888914.751 5    692662.720 4
  21467501.175   -12977978.755 4 -10112684.866 3
  21497659.095     5748740.340 4   4479534.991 2
 91  7 27  2  7 30.0010000  0  3 17 23 03
  20847223.064      906132.223 5    706078.929 4
  21463893.168   -12996943.803 4 -10127462.804 3
  21504761.752     5786044.255 4   4508602.942 2
 91  7 27  2  7 45.0010000  0  3 17 23 03
  20850514.489      923421.945 5    719551.438 3
  21460301.634   -13015802.171 4 -10142157.617 3
  21511879.452     5823467.371 4   4537763.794 2
 91  7 27  2  8  0.0010000  0  3 17 23 03
  20853817.013      940783.407 5    733079.851 3
  21456733.797   -13034554.314 4 -10156769.653 3
  21519024.095     5861009.236 4   4567017.174 2
 91  7 27  2  8 15.0010000  0  3 17 23 03
  20857133.601      958216.403 5    746663.999 4
  21453187.285   -13053200.288 4 -10171298.973 3
  21526191.527     5898669.694 4   4596362.971 1
 91  7 27  2  8 30.0010000  0  3 17 23 03
  20860465.511      975721.332 5    760304.205 4
  21449657.525   -13071739.382 4 -10185744.995 3
  21533382.064     5936449.068 4   4625801.417 2
 91  7 27  2  8 45.0010000  0  3 17 23 03
  20863807.577      993299.260 4    774001.282 3
  21446152.334   -13090170.868 4 -10200107.169 3
  21540592.948     5974348.352 4   4655333.291 2
 91  7 27  2  9  0.0010000  0  3 17 23 03
  20867167.372     1010948.534 4    787753.970 4
  21442664.838   -13108496.080 4 -10214386.536 3
  21547829.343     6012365.994 4   4684957.408 2
 91  7 27  2  9 15.0010000  0  3 17 23 03
  20870541.232     1028668.490 5    801561.715 3
  21439197.445   -13126715.667 4 -10228583.595 3
  21555083.434     6050501.200 4   4714673.124 2
 91  7 27  2  9 30.0010000  0  3 17 23 03
  20873926.469     1046460.603 5    815425.690 4
  21435751.027   -13144827.757 4 -10242696.882 3
  21562363.595     6088755.543 4   4744481.676 1
 91  7 27  2  9 45.0010000  0  4 17 23 21 03
  20877327.936     1064324.688 5    829345.757 3
  21432324.712   -13162832.308 4 -10256726.386 2
  25138278.129      736245.19412    573698.352 1
  21569666.825     6127128.840 4   4774382.933 2
 91  7 27  2 10  0.0010000  0  3 17 23 03
  20880740.151     1082260.483 5    843321.697 3
  21428916.964   -13180729.895 4 -10270672.528 3
  21576990.751     6165620.706 4   4804376.560 2
 91  7 27  2 10 15.0010000  0  3 17 23 03
  20884163.186     1100266.950 5    857352.704 3
  21425533.506   -13198521.129 4 -10284535.806 3
  21584341.062     6204230.391 4   4834461.990 2
 91  7 27  2 10 30.0010000  0  4 17 23 21 03
  20887604.508     1118344.104 5    871438.794 4
  21422170.430   -13216205.574 4 -10298315.875 3
  25113032.305      743698.207 2    579506.041 1
  21591705.473     6242957.811 4   4864639.184 2
 91  7 27  2 10 45.0010000  0  4 17 23 21 03
  20891057.523     1136491.826 5    885579.868 3
  21418821.768   -13233783.623 4 -10312013.037 3
  25104619.521      699511.073 2    545074.655 1
  21599101.957     6281802.659 4   4894907.877 1
 91  7 27  2 11  0.0010000  0  4 17 23 21 03
  20894525.230     1154710.221 5    899776.019 3
  21415498.549   -13251255.109 4 -10325627.153 3
  25096204.642      655350.743 2    510664.207 1
  21606514.007     6320764.913 4   4925268.040 2
 91  7 27  2 11 15.0010000  0  4 17 23 21 03
  20898005.501     1173000.988 5    914028.557 4
  21412193.059   -13268618.201 4 -10339156.816 3
  25087817.055      611219.104 2    476276.114 1
  21613950.976     6359846.488 4   4955721.182 2
 91  7 27  2 11 30.0010000  0  4 17 23 21 03
  20901500.187     1191362.619 5    928336.316 4
  21408910.010   -13285874.340 4 -10352603.144 3
  25079425.280      567115.060 2    441909.549 1
  21621409.513     6399045.863 4   4986266.130 2
 91  7 27  2 11 45.0010000  0  4 17 23 21 03
  20905007.471     1209794.451 5    942698.775 4
  21405648.878   -13303023.861 4 -10365966.395 2
  25071019.999      523038.139 2    407564.086 1
  21628892.934     6438362.272 4   5016902.276 2
 91  7 27  2 12  0.0010000  0  4 17 23 21 03
  20908528.820     1228296.970 5    957116.306 3
  21402403.312   -13320066.140 4 -10379246.072 3
  25062646.477      478989.164 2    373240.363 1
  21636396.144     6477796.266 4   5047630.027 2
 91  7 27  2 12 15.0010000  0  4 17 23 21 03
  20912062.175     1246869.416 5    971588.333 3
  21399179.943   -13337001.756 4 -10392442.639 3
  25054272.990      434967.664 2    338938.081 1
  21643924.831     6517347.051 4   5078448.798 2
 91  7 27  2 12 30.0010000  0  4 17 23 21 03
  20915610.223     1265513.181 5    986115.946 3
  21395977.269   -13353829.440 4 -10405555.105 3
  25045903.377      390975.031 2    304658.287 1
  21651472.399     6557015.957 4   5109359.590 2
 91  7 27  2 12 45.0010000  0  4 17 23 21 03
  20919172.650     1284227.779 5   1000698.734 3
  21392795.885   -13370549.501 4 -10418583.716 3
  25037539.488      347010.927 2    270400.711 1
  21659040.663     6596802.257 4   5140361.893 2
 91  7 27  2 13  0.0010000  0  4 17 23 21 03
  20922744.675     1303013.640 5   1015337.067 3
  21389636.977   -13387161.692 4 -10431528.260 3
  25029171.061      303075.913 2    236165.787 1
  21666637.999     6636706.476 4   5171456.058 2
 91  7 27  2 13 15.0010000  0  4 17 23 21 03
  20926333.208     1321870.176 5   1030030.468 3
  21386496.322   -13403666.117 4 -10444388.824 3
  25020820.050      259170.036 2    201953.632 1
  21674254.217     6676728.106 4   5202641.732 2
 91  7 27  2 13 30.0010000  0  4 17 23 21 03
  20929935.491     1340797.132 5   1044778.737 3
  21383375.490   -13420062.822 4 -10457165.454 3
  25012467.817      215293.252 2    167764.135 1
  21681890.537     6716867.008 4   5233918.759 2
 91  7 27  2 13 45.0010000  0  4 17 23 21 03
  20933551.909     1359795.227 5   1059582.438 4
  21380277.134   -13436351.214 4 -10469857.699 3
  25004126.997      171446.389 2    133597.844 1
  21689551.426     6757123.624 4   5265287.545 2
 91  7 27  2 14  0.0010000  0  4 17 23 21 03
  20937181.484     1378863.214 5   1074440.602 3
  21377196.159   -13452532.191 4 -10482466.234 3
  24995788.864      127628.481 2     99454.252 1
  21697231.826     6797496.988 4   5296747.262 2
 91  7 27  2 14 15.0010000  0  4 17 23 21 03
  20940823.659     1398001.873 5   1089353.836 3
  21374137.100   -13468605.016 4 -10494990.499 3
  24987451.360       83840.401 2     65333.881
  21704939.168     6837987.678 4   5328298.424 1
 91  7 27  2 14 30.0010000  0  4 17 23 21 03
  20944478.153     1417211.398 5   1104322.291 3
  21371101.391   -13484569.678 4 -10507430.480 3
  24979127.606       40082.370 2     31236.919 1
  21712666.648     6878595.607 4   5359940.932 2
 91  7 27  2 14 45.0010000  0  4 17 23 21 03
  20948146.399     1436492.566 5   1119346.575 3
  21368082.782   -13500424.981 4 -10519785.245 3
  24970809.262       -3644.429 2     -2835.727 1
  21720418.977     6919321.520 4   5391675.399 2
 91  7 27  2 15  0.0010000  0  4 17 23 21 03
  20951827.557     1455843.900 5   1134425.525 3
  21365087.243   -13516172.456 4 -10532055.995 3
  24962493.011      -47341.251 2    -36885.121 1
  21728189.594     6960164.084 4   5423500.735 2
 91  7 27  2 15 15.0010000  0  4 17 23 21 03
  20955521.908     1475264.595 5   1149558.532 3
  21362107.618   -13531812.457 4 -10544242.994 3
  24954180.077      -91008.282 2    -70911.546 1
  21735983.594     7001122.828 4   5455416.617 2
 91  7 27  2 15 30.0010000  0  4 17 23 21 03
  20959233.639     1494755.257 5   1164746.055 3
  21359151.377   -13547344.316 4 -10556345.717 3
  24945881.835     -134644.948 2   -104914.042 1
  21743801.885     7042197.960 4   5487423.186 1
 91  7 27  2 15 45.0010000  0  4 17 23 21 03
  20962954.653     1514315.802 5   1179988.031 3
  21356218.798   -13562768.216 4 -10568364.324 3
  24937583.873     -178251.227 2   -138892.758 1
  21751638.149     7083389.414 4   5519520.392 2
 91  7 27  2 16  0.0010000  0  4 17 23 21 03
  20966690.361     1533946.447 5   1195284.633 3
  21353306.322   -13578083.648 4 -10580298.416 3
  24929286.224     -221826.477 2   -172847.328 1
  21759498.111     7124697.443 4   5551708.447 2
 91  7 27  2 16 15.0010000  0  4 17 23 21 03
  20970441.076     1553646.192 5   1210635.077 3
  21350410.912   -13593291.690 4 -10592148.825 3
  24920993.671     -265371.766 2   -206778.553 1
  21767380.863     7166121.002 4   5583986.516 2
 91  7 27  2 16 30.0010000  0  4 17 23 21 03
  20974202.261     1573414.419 5   1226038.886 3
  21347536.512   -13608392.974 4 -10603916.037 3
  24912717.277     -308887.498 2   -240686.752 1
  21775283.683     7207659.250 4   5616353.960 2
 91  7 27  2 16 45.0010000  0  4 17 23 21 03
  20977971.857     1593224.301 5   1241475.152 3
  21344679.179   -13623414.319 4 -10615620.967 3
  24904439.732     -352400.279 2   -274592.667
  21783208.106     7249285.488 4   5648789.955 2
 91  7 27  2 17  0.0010000  0  4 17 23 21 03
  20981751.923     1613089.856 5   1256954.799 3
  21341839.854   -13638341.393 4 -10627252.436 3
  24896161.244     -395895.916 2   -308485.162 1
  21791145.093     7291013.477 3   5681305.244 2
 91  7 27  2 17 15.0010000  0  4 17 23 21 03
  20985545.217     1633025.532 5   1272489.085 3
  21339017.002   -13653159.412 4 -10638798.928 3
  24887887.258     -439359.512 2   -342352.702 1
  21799111.188     7332857.818 4   5713911.189 1
 91  7 27  2 17 30.0010000  0  4 17 23 21 03
  20989352.575     1653031.442 5   1288078.109 3
  21336219.348   -13667868.316 4 -10650260.406 3
  24879627.407     -482790.828 2   -376195.092 1
  21807095.849     7374818.618 4   5746607.894 2
 91  7 27  2 17 45.0010000  0  4 17 23 21 03
  20993173.126     1673107.670 5   1303721.921 3
  21333441.762   -13682468.490 4 -10661637.143 3
  24871358.202     -526189.828 2   -410012.278 1
  21815101.520     7416895.560 4   5779395.082 2
 91  7 27  2 18  0.0010000  0  4 17 23 21 03
  20997006.275     1693254.519 5   1319420.756 3
  21330682.184   -13696959.127 4 -10672928.524 3
  24863116.011     -569555.724 2   -443803.817 1
  21823129.667     7459089.142 3   5812273.175 1
 91  7 27  2 18 15.0010000  0  4 17 23 21 03
  21000851.396     1713471.907 5   1335174.564 3
  21327945.362   -13711340.184 4 -10684134.527 3
  24854878.042     -612888.523 2   -477569.477 1
  21831180.604     7501399.179 3   5845242.006 2
 91  7 27  2 18 30.0010000  0  4 17 23 21 03
  21004717.527     1733760.642 5   1350983.968 3
  21325230.143   -13725610.757 4 -10695254.442 3
  24846634.350     -656186.976 2   -511308.337 1
  21839253.703     7543826.505 4   5878302.235 1
 91  7 27  2 18 45.0010000  0  4 17 23 21 03
  21008588.159     1754119.584 5   1366848.072 3
  21322537.400   -13739771.715 4 -10706288.941 3
  24838391.530     -699452.061 2   -545021.225 1
  21847355.002     7586370.062 4   5911453.026 1
 91  7 27  2 19  0.0010000  0  4 17 23 21 03
  21012481.268     1774567.106 5   1382781.202 3
  21319865.353   -13753804.797 4 -10717223.792 3
  24830169.441     -742665.302 2   -578694.107 1
  21855470.365     7629047.901 3   5944708.455 2
 91  7 27  2 19 15.0010000  0  4 17 23 21 03
  21016389.942     1795106.837 5   1398786.187 3
  21317218.504   -13767705.997 4 -10728055.879 3
  24821948.539     -785822.591 2   -612322.987 1
  21863623.212     7671863.772 4   5978071.422 1
 91  7 27  2 19 30.0010000  0  4 17 23 21 03
  21020311.530     1815716.478 5   1414845.647 3
  21314595.596   -13781498.003 4 -10738802.886 3
  24813757.302     -828946.191 2   -645925.699 1
  21871788.064     7714795.363 4   6011524.590 1
 91  7 27  2 19 45.0010000  0  4 17 23 21 03
  21024245.716     1836397.557 5   1430960.770 3
  21311991.326   -13795179.197 4 -10749463.542 3
  24805549.278     -872034.260 2   -679500.618 1
  21879984.710     7757844.118 4   6045069.047 1
 91  7 27  2 20  0.0010000  0  4 17 23 21 03
  21028195.468     1857148.228 5   1447130.117 3
  21309407.996   -13808750.824 4 -10760038.822 3
  24797361.042     -915088.346 2   -713049.044 1
  21888197.202     7801008.123 4   6078703.305 1
 91  7 27  2 20 15.0010000  0  4 17 23 21 03
  21032156.040     1877968.772 5   1463353.920 3
  21306849.270   -13822212.871 4 -10770528.710 3
  24789177.623     -958108.103 2   -746570.773 1
  21896436.427     7844287.636 3   6112427.571 1
 91  7 27  2 20 30.0010000  0  4 17 23 21 03
  21036130.396     1898859.347 5   1479632.293 3
  21304308.519   -13835564.839 4 -10780932.830 3
  24780992.075    -1001093.146 2   -780065.436
  21904690.310     7887682.677 3   6146241.861 2
 91  7 27  2 20 45.0010000  0  4 17 23 21 03
  21040122.134     1919820.100 5   1495965.345 3
  21301786.090   -13848806.740 4 -10791251.181 3
  24772826.316    -1044043.331 2   -813532.922 1
  21912973.579     7931193.355 4   6180146.238 2
 91  7 27  2 21  0.0010000  0  4 17 23 21 03
  21044124.341     1940851.904 5   1512353.757 3
  21299287.009   -13861937.748 4 -10801483.112 3
  24764653.087    -1086957.515 2   -846972.421 1
  21921269.133     7974820.389 3   6214141.303 1
 91  7 27  2 21 15.0010000  0  4 17 23 21 03
  21048139.462     1961953.313 5   1528796.415 3
  21296810.125   -13874959.111 4 -10811629.611 3
  24756489.142    -1129836.824 2   -880384.688 1
  21929592.259     8018562.149 3   6248225.741 2
 91  7 27  2 21 30.0010000  0  4 17 23 21 03
  21052167.775     1983124.765 5   1545293.653 3
  21294353.937   -13887870.039 4 -10821690.056 3
  24748351.582    -1172680.433 2   -913769.134 1
  21937942.991     8062419.438 3   6282400.234 1
 91  7 27  2 21 45.0010000  0  4 17 23 21 03
  21056209.280     2004366.041 5   1561845.291 3
  21291919.318   -13900671.017 4 -10831664.831 3
  24740194.513    -1215488.468 2   -947125.886 1
  21946310.789     8106391.732 3   6316664.340 1
 91  7 27  2 22  0.0010000  0  4 17 23 21 03
  21060263.070     2025677.407 5   1578451.553 3
  21289505.987   -13913361.563 4 -10841553.552 3
  24732055.452    -1258260.539 2   -980454.613 1
  21954700.191     8150479.204 3   6351018.167 1
 91  7 27  2 22 15.0010000  0  4 17 23 21 03
  21064334.555     2047058.307 5   1595111.993 3
  21287108.851   -13925942.173 4 -10851356.604 3
  24723924.768    -1300997.071 2  -1013755.613 1
  21963108.474     8194681.192 3   6385461.232 2
 91  7 27  2 22 30.0010000  0  4 17 23 21 03
  21068415.044     2068510.839 5   1611828.247 3
  21284737.785   -13938410.667 4 -10861072.299 3
  24715797.713    -1343695.516 2  -1047027.023 1
  21971541.326     8238999.836 3   6419995.205 1
 91  7 27  2 22 45.0010000  0  4 17 23 21 03
  21072509.005     2090033.283 5   1628598.984 3
  21282384.728   -13950768.810 4 -10870702.002 3
  24707679.034    -1386357.539 2  -1080269.949 1
  21979999.970     8283433.305 3   6454618.633 1
 91  7 27  2 23  0.0010000  0  4 17 23 21 03
  21076618.845     2111624.533 5   1645423.335 3
  21280053.833   -13963017.532 4 -10880246.448 3
  24699560.041    -1428984.086 2  -1113485.300 1
  21988474.494     8327980.585 3   6489330.778 1
 91  7 27  2 23 15.0010000  0  4 17 23 21 03
  21080740.691     2133285.507 5   1662302.016 3
  21277743.633   -13975155.895 4 -10889704.897 3
  24691462.058    -1471574.071 2  -1146672.120 1
  21996972.715     8372642.008 3   6524131.861 2
 91  7 27  2 23 30.0010000  0  4 17 23 21 03
  21084877.545     2155016.426 5   1679235.197 3
  21275455.316   -13987183.618 4 -10899077.127 3
  24683363.167    -1514126.928 2  -1179830.093 1
  22005496.099     8417418.042 3   6559022.237 1
 91  7 27  2 23 45.0010000  0  4 17 23 21 03
  21089026.683     2176817.810 5   1696223.284 3
  21273187.381   -13999099.946 4 -10908362.561 3
  24675277.155    -1556642.013 2  -1212958.522 1
  22014038.714     8462309.222 3   6594002.331 2
 91  7 27  2 24  0.0010000  0  4 17 23 21 03
  21093187.199     2198687.424 5   1713264.539 3
  21270939.828   -14010907.176 4 -10917562.986 3
  24667194.459    -1599121.249 2  -1246059.113 1
  22022599.861     8507313.149 3   6629070.303 1
 91  7 27  2 24 15.0010000  0  4 17 23 21 03
  21097363.594     2220626.524 5   1730359.942 3
  21268712.064   -14022604.049 4 -10926677.413 3
  24659114.450    -1641563.208 2  -1279130.632 1
  22031189.521     8552431.053 3   6664227.068 1
 91  7 27  2 24 30.0010000  0  4 17 23 21 03
  21101554.090     2242634.864 5   1747509.295 3
  21266508.904   -14034190.569 4 -10935705.855 3
  24651046.132    -1683967.881 2  -1312173.066 1
  22039795.375     8597662.657 3   6699472.449 1
 91  7 27  2 24 45.0020000  0  4 17 23 21 03
  21105752.109     2264712.814 5   1764712.884 3
  21264324.611   -14045668.562 4 -10944649.730 3
  24642986.804    -1726338.998 2  -1345189.399 1
  22048423.411     8643009.777 3   6734807.840 1
 91  7 27  2 25  0.0020000  0  4 17 23 21 03
  21109965.988     2286857.337 5   1781968.347 3
  21262163.122   -14057036.605 4 -10953507.925 3
  24634932.307    -1768671.057 2  -1378175.267 1
  22057067.621     8688466.060 3   6770228.284 1
 91  7 27  2 25 15.0020000  0  4 17 23 21 03
  21114193.931     2309070.524 5   1799277.319 3
  21260016.885   -14068294.729 4 -10962280.482 3
  24626877.776    -1810965.731 2  -1411132.036 1
  22065743.590     8734035.300 3   6805736.746 1
 91  7 27  2 25 30.0020000  0  4 17 23 21 03
  21118432.729     2331352.144 5   1816639.613 3
  21257898.568   -14079443.214 4 -10970967.600 3
  24618839.717    -1853223.147 2  -1444059.726 1
  22074439.697     8779716.893 3   6841332.756 1
 91  7 27  2 25 45.0020000  0  4 17 23 21 03
  21122687.371     2353701.999 5   1834055.076 3
  21255800.913   -14090482.221 4 -10979569.399 3
  24610803.507    -1895443.277 2  -1476958.360 1
  22083157.058     8825510.872 3   6877016.341 1
 91  7 27  2 26  0.0020000  0  4 17 23 21 03
  21126953.705     2376120.171 5   1851523.766 3
  21253716.170   -14101411.569 4 -10988085.752 3
  24602778.955    -1937625.810 2  -1509827.730 1
  22091887.018     8871417.102 3   6912787.388 1
 91  7 27  2 26 15.0020000  0  4 17 23 21 03
  21131230.544     2398606.784 5   1869045.794 3
  21251655.997   -14112230.959 4 -10996516.438 3
  24594760.406    -1979770.412 2  -1542667.521 1
  22100645.457     8917435.475 3   6948645.824 1
 91  7 27  2 26 30.0020000  0  4 17 23 21 03
  21135522.669     2421161.840 5   1886621.164 3
  21249620.709   -14122940.323 4 -11004861.383 3
  24586737.040    -2021876.817 2  -1575477.578 1
  22109425.464     8963566.128 3   6984591.740 2
 91  7 27  2 26 45.0020000  0  4 17 23 21 03
  21139831.896     2443785.824 5   1904250.230 3
  21247603.673   -14133539.248 4 -11013120.265 3
  24578741.594    -2063944.461 2  -1608257.435 1
  22118223.759     9009809.389 3   7020625.433 1
 91  7 27  2 27  0.0020000  0  4 17 23 21 03
  21144145.310     2466476.810 5   1921931.502 3
  21245610.963   -14144029.536 4 -11021294.502 3
  24570739.238    -2105975.135 2  -1641008.437 1
  22127045.472     9056163.154 3   7056745.218 1
 91  7 27  2 27 15.0020000  0  4 17 23 21 03
  21148477.013     2489236.810 5   1939666.568 3
  21243632.038   -14154409.044 4 -11029382.425 3
  24562748.574    -2147966.505 2  -1673728.867 1
  22135887.846     9102629.343 3   7092952.583 1
 91  7 27  2 27 30.0020000  0  4 17 23 21 03
  21152821.594     2512063.860 5   1957453.872 3
  21241676.183   -14164679.558 4 -11037385.403 3
  24554764.192    -2189920.192 2  -1706419.954 1
  22144750.009     9149206.113 3   7129246.129 2
 91  7 27  2 27 45.0020000  0  4 17 23 21 03
  21157179.087     2534958.156 5   1975293.578 3
  21239741.338   -14174841.220 4 -11045303.565 3
  24546789.129    -2231836.092 2  -1739081.544 1
  22153637.056     9195893.422 3   7165625.820 1
 91  7 27  2 28  0.0020000  0  4 17 23 21 03
  21161548.552     2557919.823 5   1993185.775 3
  21237832.563   -14184893.363 4 -11053136.389 3
  24538817.346    -2273713.447 2  -1771713.122 1
  22162539.390     9242691.428 3   7202091.761 2
 91  7 27  2 28 15.0020000  0  4 17 23 21 03
  21165928.522     2580951.125 5   2011132.236 3
  21235940.575   -14194834.126 4 -11060882.417 3
  24530855.440    -2315550.230 2  -1804313.081 1
  22171464.199     9289602.047 3   7238645.449 2
 91  7 27  2 28 30.0020000  0  4 17 23 21 03
  21170327.373     2604050.481 5   2029131.725 3
  21234069.842   -14204664.567 4 -11068542.493 3
  24522897.163    -2357347.419 2  -1836882.170 1
  22180413.019     9336623.954 3   7275285.851 1
 91  7 27  2 28 45.0020000  0  4 17 23 21 03
  21174731.947     2627219.134 5   2047185.212 3
  21232219.840   -14214383.714 4 -11076115.841 3
  24514956.232    -2399103.744 2  -1869419.440 1
  22189384.316     9383757.961 3   7312013.611 1
 91  7 27  2 29  0.0020000  0  4 17 23 21 03
  21179158.963     2650456.160 5   2065291.978 4
  21230389.312   -14223992.421 4 -11083603.134 3
  24507020.432    -2440819.971 2  -1901925.496 1
  22198377.495     9431003.178 3   7348828.034 1
 91  7 27  2 29 15.0020000  0  4 17 23 21 03
  21183592.610     2673761.729 5   2083452.154 3
  21228583.075   -14233490.634 4 -11091004.318 3
  24499097.230    -2482495.948 2  -1934400.195 1
  22207386.554     9478359.563 3   7385729.089 1
 91  7 27  2 29 30.0020000  0  4 17 23 21 03
  21188037.913     2697135.269 5   2101665.294 3
  21226797.499   -14242878.814 4 -11098319.769 3
  24491153.018    -2524131.999 2  -1966843.773 1
  22216423.184     9525826.435 3   7422716.225 1
 91  7 27  2 29 45.0020000  0  4 17 23 21 03
  21192499.445     2720576.172 5   2119930.924 3
  21225032.619   -14252157.390 4 -11105549.815 3
  24483258.296    -2565728.313 2  -1999256.343 1
  22225472.727     9573403.160 3   7459788.967 1
 91  7 27  2 30  0.0020000  0  4 17 23 21 03
  21196973.227     2744084.340 5   2138248.977 4
  21223286.934   -14261326.442 4 -11112694.523 3
  24475344.063    -2607284.868 2  -2031637.980 1
  22234546.247     9621089.525 3   7496947.147 1
 91  7 27  2 30 15.0020000  0  4 17 23 21 03
  21201459.922     2767660.016 5   2156619.619 3
  21221562.224   -14270385.480 4 -11119753.503 3
  24467443.931    -2648801.020 2  -2063988.104 1
  22243644.337     9668886.004 3   7534191.133 1
 91  7 27  2 30 30.0020000  0  4 17 23 21 03
  21205959.217     2791302.710 5   2175042.491 3
  21219859.397   -14279335.110 4 -11126727.222 3
  24459543.519    -2690277.121 2  -2096307.028 1
  22252760.435     9716791.691 3   7571520.176 1
 91  7 27  2 30 45.0020000  0  4 17 23 21 03
  21210471.983     2815012.953 5   2193518.001 3
  21218177.859   -14288174.625 4 -11133615.144 3
  24451657.173    -2731712.262 2  -2128594.017 1
  22261894.508     9764807.117 3   7608934.766 1
 91  7 27  2 31  0.0020000  0  4 17 23 21 03
  21214995.568     2838791.034 5   2212046.373 3
  21216517.925   -14296903.936 4 -11140417.201 3
  24443787.613    -2773106.256 2  -2160849.009 1
  22271055.872     9812932.447 3   7646434.999 1
 91  7 27  2 31 15.0020000  0  4 17 23 21 03
  21219533.218     2862637.384 5   2230627.937 3
  21214876.243   -14305522.503 4 -11147132.950 3
  24435924.964    -2814458.610 2  -2193071.509 1
  22280234.303     9861167.850 3   7684020.978 2
 91  7 27  2 31 30.0020000  0  4 17 23 21 03
  21224082.280     2886551.294 5   2249262.145 3
  21213256.165   -14314031.002 4 -11153762.936 3
  24428061.721    -2855769.809 2  -2225261.933 1
  22289431.963     9909512.670 3   7721692.233 1
 91  7 27  2 31 45.0020000  0  4 17 23 21 03
  21228646.315     2910530.695 5   2267947.395 3
  21211657.376   -14322431.336 4 -11160308.639 3
  24420205.633    -2897041.425 2  -2257421.564 1
  22298652.658     9957964.780 3   7759447.095 1
 91  7 27  2 32  0.0020000  0  4 17 23 21 03
  21233222.041     2934576.655 4   2286684.500 3
  21210081.970   -14330722.577 4 -11166769.337 3
  24412354.675    -2938272.306 2  -2289549.402 1
  22307894.678    10006525.026 3   7797286.220 1
 91  7 27  2 32 15.0020000  0  4 17 23 21 03
  21237811.274     2958689.449 4   2305473.683 3
  21208524.259   -14338904.427 4 -11173144.792 3
  24404518.411    -2979462.101 2  -2321645.244 1
  22317156.765    10055193.555 3   7835209.697 1
 91  7 27  2 32 30.0020000  0  4 17 23 21 03
  21242411.570     2982869.598 4   2324315.358 3
  21206986.616   -14346976.307 4 -11179434.555 3
  24396687.835    -3020610.244 2  -2353708.613 1
  22326438.326    10103970.578 3   7873217.735 2
 91  7 27  2 32 45.0020000  0  4 17 23 21 03
  21247025.407     3007115.717 5   2343208.430 3
  21205472.356   -14354939.492 4 -11185639.621 3
  24388860.540    -3061717.718 2  -2385740.338 1
  22335738.175    10152854.844 3   7911309.344 1
 91  7 27  2 33  0.0020000  0  4 17 23 21 03
  21251649.994     3031427.856 4   2362152.955 3
  21203976.977   -14362793.909 4 -11191759.935 3
  24381050.346    -3102784.144 2  -2417740.065 1
  22345064.444    10201846.358 3   7949484.513 1
 91  7 27  2 33 15.0020000  0  4 17 23 21 03
  21256292.869     3055806.198 4   2381149.054 3
  21202507.110   -14370539.354 4 -11197795.338 3
  24373236.557    -3143809.248 2  -2449707.529 1
  22354402.963    10250945.083 3   7987743.224 1
 91  7 27  2 33 30.0020000  0  4 17 23 21 03
  21260944.155     3080250.723 4   2400196.734 3
  21201048.935   -14378175.799 4 -11203745.800 3
  24365446.152    -3184792.851 2  -2481642.745 1
  22363768.495    10300150.757 3   8026085.289 1
 91  7 27  2 33 45.0020000  0  4 17 23 21 03
  21265609.226     3104761.815 4   2419296.283 3
  21199617.703   -14385702.767 4 -11209610.958 3
  24357654.560    -3225734.340 2  -2513545.053 1
  22373153.780    10349463.823 3   8064511.002 1
 91  7 27  2 34  0.0020000  0  4 17 23 21 03
  21270285.082     3129338.059 4   2438446.595 3
  21198210.482   -14393121.648 4 -11215391.892 3
  24349868.936    -3266635.021 2  -2545415.599 1
  22382557.389    10398882.696 3   8103019.193 1
 91  7 27  2 34 15.0020000  0  4 17 23 21 03
  21274974.758     3153980.746 5   2457648.679 3
  21196817.955   -14400431.314 4 -11221087.721 3
  24342091.723    -3307493.480 2  -2577253.282 1
  22391979.843    10448408.281 3   8141610.516 1
 91  7 27  2 34 30.0020000  0  4 17 23 21 03
  21279676.998     3178690.309 4   2476902.877 3
  21195442.808   -14407631.086 4 -11226697.929 3
  24334325.608    -3348308.991 2  -2609057.470 1
  22401423.901    10498041.178 3   8180285.462 1
 91  7 27  2 34 45.0020000  0  4 17 23 21 03
  21284392.431     3203466.247 4   2496208.793 3
  21194098.827   -14414721.492 5 -11232222.908 3
  24326569.056    -3389081.689 2  -2640828.311 1
  22410891.656    10547781.042 3   8219043.758 1
 91  7 27  2 35  0.0020000  0  4 17 23 21 03
  21289116.868     3228306.883 4   2515565.131 3
  21192766.259   -14421704.262 4 -11237664.007 3
  24318823.637    -3429813.242 2  -2672567.093 1
  22420376.199    10597625.644 3   8257883.669 1
 91  7 27  2 35 15.0020000  0  4 17 23 21 03
  21293855.684     3253212.922 4   2534972.422 3
  21191458.574   -14428578.630 4 -11243020.646 3
  24311074.903    -3470502.528 2  -2704272.949 1
  22429881.123    10647575.900 3   8296805.919 1
 91  7 27  2 35 30.0020000  0  4 17 23 21 03
  21298609.473     3278183.420 4   2554429.943 3
  21190172.144   -14435345.319 4 -11248293.384 3
  24303343.828    -3511150.329 2  -2735946.473 1
  22439409.116    10697630.604 3   8335809.552 1
 91  7 27  2 35 45.0020000  0  4 17 23 21 03
  21303372.893     3303220.200 4   2573939.119 3
  21188902.536   -14442002.497 4 -11253480.781 3
  24295605.599    -3551754.779 2  -2767586.184 1
  22448954.211    10747791.352 3   8374895.808 1
 91  7 27  2 36  0.0020000  0  4 17 23 21 03
  21308152.473     3328322.618 5   2593499.433 3
  21187657.777   -14448551.136 4 -11258583.604 3
  24287894.627    -3592316.532 2  -2799192.662 1
  22458518.501    10798057.308 3   8414064.045 1
 91  7 27  2 36 15.0020000  0  4 17 23 21 03
  21312938.963     3353491.341 4   2613111.413 3
  21186432.528   -14454990.627 4 -11263601.376 3
  24280185.191    -3632834.765 2  -2830765.224 1
  22468101.043    10848428.961 3   8453314.649 1
 91  7 27  2 36 30.0020000  0  4 17 23 21 03
  21317743.148     3378725.808 4   2632774.624 3
  21185227.381   -14461321.201 4 -11268534.278 3
  24272478.721    -3673309.616 2  -2862303.941 1
  22477709.098    10898905.753 3   8492647.203 1
 91  7 27  2 36 45.0020000  0  4 17 23 21 03
  21322553.894     3404025.744 4   2652488.852 3
  21184046.804   -14467543.010 4 -11273382.431 3
  24264789.038    -3713741.049 2  -2893808.849 1
  22487330.032    10949487.398 3   8532061.408 1
 91  7 27  2 37  0.0020000  0  4 17 23 21 03
  21327383.276     3429392.169 4   2672254.884 3
  21182880.012   -14473655.164 4 -11278145.144 3
  24257106.266    -3754128.004 2  -2925279.105 1
  22496981.573    11000174.689 3   8571557.952 1
 91  7 27  2 37 15.0020000  0  4 17 23 21 03
  21332221.593     3454823.821 4   2692071.745 3
  21181738.698   -14479659.009 4 -11282823.448 3
  24249424.086    -3794471.581 2  -2956715.574 1
  22506642.083    11050966.201 3   8611135.712 1
 91  7 27  2 37 30.0020000  0  4 17 23 21 03
  21337074.953     3480321.414 4   2711939.982 3
  21180619.546   -14485553.791 4 -11287416.771 3
  24241757.473    -3834770.821 2  -2988117.475 1
  22516329.885    11101862.444 3   8650795.115 1
 91  7 27  2 37 45.0020000  0  4 17 23 21 03
  21341939.096     3505884.271 4   2731859.080 3
  21179513.621   -14491340.076 4 -11291925.560 3
  24234099.270    -3875026.271 2  -3019485.262 1
  22526035.033    11152862.697 3   8690535.534 1
 91  7 27  2 38  0.0020000  0  4 17 23 21 03
  21346816.711     3531513.734 4   2751830.084 3
  21178437.362   -14497016.166 4 -11296348.477 3
  24226438.974    -3915236.067 2  -3050817.454 1
  22535761.226    11203968.247 3   8730357.972 1
 91  7 27  2 38 15.0020000  0  4 17 23 21 03
  21351707.205     3557209.842 5   2771853.014 3
  21177376.109   -14502582.454 4 -11300685.829 3
  24218804.783    -3955400.285 2  -3082114.153 1
  22545502.077    11255178.998 3   8770262.454 1
 91  7 27  2 38 30.0020000  0  4 17 23 21 03
  21356607.016     3582971.399 4   2791926.942 3
  21176337.926   -14508039.966 4 -11304938.416 3
  24211168.463    -3995519.808 2  -3113376.009 1
  22555271.128    11306493.438 3   8810247.691 1
 91  7 27  2 38 45.0020000  0  4 17 23 21 03
  21361524.523     3608797.237 5   2812050.965 3
  21175321.939   -14513389.745 4 -11309107.065 3
  24203541.147    -4035595.638 2  -3144603.838 1
  22565051.242    11357910.510 3   8850312.895 1
 91  7 27  2 39  0.0020000  0  4 17 23 21 03
  21366447.718     3634689.338 4   2832226.619 3
  21174325.706   -14518630.041 4 -11313190.404 3
  24195922.522    -4075625.848 2  -3175796.107 1
  22574856.869    11409431.888 3   8890459.368 1
 91  7 27  2 39 15.0020000  0  4 17 23 21 03
  21371387.700     3660646.420 5   2852452.906 3
  21173349.611   -14523762.106 4 -11317189.404 3
  24188314.087    -4115611.238 2  -3206953.454 1
  22584681.935    11461056.303 3   8930686.163 1
 91  7 27  2 39 30.0020000  0  4 17 23 21 03
  21376339.059     3686668.962 4   2872730.199 3
  21172390.547   -14528785.458 4 -11321103.690 3
  24180712.249    -4155551.228 2  -3238075.422 1
  22594525.637    11512783.788 3   8970993.259 1
 91  7 27  2 39 45.0020000  0  4 17 23 21 03
  21381307.241     3712757.860 5   2893059.196 3
  21171453.715   -14533699.003 4 -11324932.415 3
  24173127.791    -4195444.762 2  -3269161.185 1
  22604389.094    11564615.262 3   9011381.363 1
 91  7 27  2 40  0.0020000  0  4 17 23 21 03
  21386281.077     3738912.408 4   2913439.353 3
  21170538.137   -14538503.613 4 -11328676.253 3
  24165540.646    -4235292.138 2  -3300210.988 1
  22614273.281    11616549.971 3   9051849.917 1
 91  7 27  2 40 15.0020000  0  4 17 23 21 03
  21391272.328     3765132.558 4   2933870.635 3
  21169648.350   -14543199.187 4 -11332335.136 3
  24157967.879    -4275093.447 2  -3331224.926 1
  22624175.093    11668587.618 3   9092398.680 1
 91  7 27  2 40 30.0020000  0  4 17 23 21 03
  21396277.050     3791416.972 5   2954351.982 3
  21168775.350   -14547787.176 4 -11335910.179 3
  24150398.428    -4314850.007 2  -3362203.961 1
  22634098.543    11720726.568 3   9133026.412 1
 91  7 27  2 40 45.0020000  0  4 17 23 21 03
  21401288.683     3817766.608 4   2974884.161 3
  21167920.953   -14552266.487 4 -11339400.536 3
  24142837.075    -4354560.422 2  -3393146.975 1
  22644037.245    11772967.875 3   9173733.862 1
 91  7 27  2 41  0.0020000  0  4 17 23 21 03
  21406316.230     3844182.975 5   2995468.325 3
  21167087.216   -14556635.586 4 -11342805.022 3
  24135291.880    -4394222.852 2  -3424052.699 1
  22653999.958    11825313.037 3   9214522.255 1
 91  7 27  2 41 15.0020000  0  4 17 23 21 03
  21411356.935     3870665.526 5   3016104.077 3
  21166280.179   -14560895.345 4 -11346124.301 3
  24127750.314    -4433838.045 2  -3454921.588 1
  22663978.551    11877761.003 3   9255390.776 1
 91  7 27  2 41 30.0020000  0  4 17 23 21 03
  21416407.831     3897213.845 5   3036791.069 3
  21165487.241   -14565045.952 4 -11349358.523 3
  24120226.723    -4473406.100 2  -3485753.756 1
  22673983.529    11930311.345 3   9296339.032 1
 91  7 27  2 41 45.0020000  0  4 17 23 21 03
  21421470.418     3923827.939 5   3057529.317 3
  21164720.967   -14569087.315 4 -11352507.627 3
  24112707.913    -4512926.779 2  -3516548.985 1
  22683998.383    11982964.054 3   9337367.062 1
 91  7 27  2 42  0.0020000  0  4 17 23 21 03
  21426546.198     3950507.662 5   3078318.701 3
  21163973.888   -14573019.600 4 -11355571.735 3
  24105198.107    -4552400.101 2  -3547307.330 1
  22694038.436    12035718.582 3   9378474.467 1
 91  7 27  2 42 15.0020000  0  4 17 23 21 03
  21431635.484     3977252.810 5   3099159.067 3
  21163246.284   -14576843.071 4 -11358551.053 3
  24097691.930    -4591826.123 2  -3578028.787 1
  22704098.277    12088574.674 3   9419661.010 1
 91  7 27  2 42 30.0020000  0  4 17 23 21 03
  21436739.463     4004064.384 5   3120051.204 3
  21162540.876   -14580556.847 4 -11361444.899 3
  24090195.596    -4631203.660 2  -3608712.483 1
  22714174.591    12141533.079 3   9460927.217 1
 91  7 27  2 42 45.0020000  0  4 17 23 21 03
  21441854.506     4030940.915 5   3140993.942 3
  21161853.163   -14584162.551 4 -11364254.529 3
  24082720.865    -4670534.178 2  -3639359.529 1
  22724269.228    12194592.179 3   9502271.951 1
 91  7 27  2 43  0.0020000  0  4 17 23 21 03
  21446979.181     4057884.734 4   3161989.123 3
  21161184.925   -14587657.469 4 -11366977.825 3
  24075243.168    -4709814.909 2  -3669967.762 1
  22734385.712    12247754.285 3   9543696.910 1
 91  7 27  2 43 15.0020000  0  4 17 23 21 03
  21452120.609     4084895.219 5   3183036.254 3
  21160542.163   -14591042.121 4 -11369615.211 3
  24067773.811    -4749046.120 2  -3700537.462 1
  22744524.708    12301018.709 3   9585201.634 1
 91  7 27  2 43 30.0020000  0  4 17 23 21 03
  21457274.635     4111970.895 5   3204134.169 3
  21159917.690   -14594318.154 4 -11372167.954 3
  24060321.870    -4788229.119 2  -3731069.587 1
  22754677.174    12354383.866 3   9626784.815 1
 91  7 27  2 43 45.0020000  0  4 17 23 21 03
  21462438.853     4139111.890 5   3225282.995 3
  21159316.006   -14597485.580 4 -11374636.068 3
  24052869.929    -4827363.736 2  -3761563.971 1
  22764850.023    12407849.484 3   9668446.265 1
 91  7 27  2 44  0.0020000  0  4 17 23 21 03
  21467615.983     4166316.743 5   3246481.573 3
  21158735.019   -14600545.680 4 -11377020.556 3
  24045429.994    -4866451.240 2  -3792021.694 1
  22775046.569    12461414.079 3   9710184.889 1
 91  7 27  2 44 15.0020000  0  4 17 23 21 03
  21472799.082     4193556.285 5   3267707.188 3
  21158170.818   -14603527.933 4 -11379344.378 3
  24037993.060    -4905520.835 2  -3822465.398 1
  22785250.584    12515048.131 3   9751977.613 1
 91  7 27  2 44 30.0020000  0  4 17 23 21 03
  21477995.093     4220849.068 5   3288974.285 3
  21157617.995   -14606413.530 4 -11381592.884 3
  24030567.783    -4944553.483 2  -3852880.372 1
  22795470.234    12568770.218 3   9793838.961 1
 91  7 27  2 44 45.0020000  0  4 17 23 21 03
  21483198.295     4248209.667 4   3310294.225 3
  21157090.336   -14609188.001 4 -11383754.801 3
  24023152.732    -4983534.530 2  -3883255.104 1
  22805714.734    12622594.612 3   9835779.988 1
 91  7 27  2 45  0.0020000  0  4 17 23 21 03
  21488420.063     4275635.902 5   3331665.312 3
  21156583.093   -14611853.390 4 -11385831.722 3
  24015746.929    -5022465.973 2  -3913591.199 1
  22815978.114    12676519.142 3   9877799.079 1
 91  7 27  2 45 15.0020000  0  4 17 23 21 03
  21493649.056     4303127.456 5   3353087.299 3
  21156092.951   -14614410.166 4 -11387824.002 3
  24008344.756    -5061347.951 2  -3943888.761 1
  22826260.725    12730543.252 3   9919895.736 1
 91  7 27  2 45 30.0020000  0  4 17 23 21 03
  21498893.928     4330683.543 5   3374559.573 3
  21155630.067   -14616859.332 4 -11389732.431 3
  24000958.777    -5100181.292 2  -3974148.389 1
  22836556.772    12784665.935 3   9962069.186 1
 91  7 27  2 45 45.0020000  0  4 17 23 21 03
  21504148.991     4358304.633 4   3396082.484 3
  21155185.156   -14619200.045 4 -11391556.357 3
  23993579.988    -5138965.146 2  -4004369.521 1
  22846877.738    12838887.454 3  10004319.662 1
 91  7 27  2 46  0.0020000  0  4 17 23 21 03
  21509419.341     4385991.966 4   3417657.025 3
  21154756.474   -14621430.959 4 -11393294.725 3
  23986204.793    -5177697.776 2  -4034550.690 1
  22857210.989    12893209.264 3  10046648.302 1
 91  7 27  2 46 15.0020000  0  4 17 23 21 03
  21514698.974     4413744.431 5   3439282.323 3
  21154356.550   -14623553.472 4 -11394948.625 3
  23978843.698    -5216380.465 2  -4064692.984 1
  22867571.218    12947629.618 3  10089053.710 1
 91  7 27  2 46 30.0020000  0  4 17 23 21 03
  21519999.931     4441592.433 5   3460982.063 3
  21153978.194   -14625537.116 4 -11396494.312 3
  23971496.667    -5254982.670 2  -4094772.494 1
  22877945.233    13002178.914 3  10131559.599 1
 91  7 27  2 46 45.0020000  0  4 17 23 21 03
  21525314.639     4469516.420 5   3482741.002 3
  21153625.665   -14627401.670 4 -11397947.199 3
  23964161.957    -5293523.801 2  -4124804.472 1
  22888352.229    13056837.382 3  10174150.567 1
 91  7 27  2 47  0.0020000  0  4 17 23 21 03
  21530637.165     4497503.387 5   3504549.025 3
  21153287.480   -14629159.848 4 -11399317.196 3
  23956829.934    -5332016.397 2  -4154798.600 1
  22898766.414    13111592.032 3  10216816.481 1
 91  7 27  2 47 15.0020000  0  4 17 23 21 03
  21535976.164     4525555.458 5   3526407.782 3
  21152973.899   -14630809.512 4 -11400602.650 3
  23949520.701    -5370458.293 2  -4184753.258 1
  22909208.171    13166444.964 3  10259558.997 1
 91  7 27  2 47 30.0020000  0  4 17 23 21 03
  21541328.635     4553671.695 5   3548316.530 3
  21152681.294   -14632351.804 4 -11401804.427 3
  23942218.064    -5408850.256 2  -4214668.992 1
  22919666.156    13221394.777 3  10302376.986 1
 91  7 27  2 47 45.0020000  0  4 17 23 21 03
  21546688.923     4581853.213 4   3570276.147 3
  21152408.477   -14633785.833 4 -11402921.848 3
  23934919.894    -5447191.203 2  -4244544.958 1
  22930138.206    13276442.357 3  10345271.147 1
 91  7 27  2 48  0.0020000  0  4 17 23 21 03
  21552064.218     4610100.264 5   3592286.831 3
  21152157.578   -14635111.214 4 -11403954.596 3
  23927640.047    -5485480.612 2  -4274380.799 1
  22940637.235    13331587.824 3  10388241.611 1
 91  7 27  2 48 15.0020000  0  4 17 23 21 03
  21557452.077     4638411.075 5   3614347.208 3
  21151924.618   -14636329.806 4 -11404904.146 3
  23920350.882    -5523720.123 2  -4304177.727 1
  22951143.138    13386829.197 3  10431286.792 1
 91  7 27  2 48 30.0020000  0  4 17 23 21 03
  21562851.035     4666785.572 5   3636457.193 3
  21151715.389   -14637441.595 4 -11405770.472 3
  23913092.603    -5561909.442 2  -4333935.528 2
  22961677.869    13442166.213 3  10474406.502 1
 91  7 27  2 48 45.0020000  0  4 17 23 21 03
  21568263.499     4695224.301 5   3658617.231 3
  21151520.819   -14638446.152 4 -11406553.231 3
  23905831.044    -5600048.024 2  -4363653.821 1
  22972226.666    13497599.199 3  10517601.012 1
 91  7 27  2 49  0.0020000  0  4 17 23 21 03
  21573688.248     4723726.488 5   3680826.734 3
  21151352.041   -14639344.111 4 -11407252.936 3
  23898581.770    -5638136.544 2  -4393333.139 1
  22982794.657    13553127.322 3  10560869.619 1
 91  7 27  2 49 15.0020000  0  4 17 23 21 03
  21579122.002     4752284.221 4   3703079.501 3
  21151199.421   -14640143.267 4 -11407875.647 3
  23891345.374    -5676182.374 2  -4422979.120 1
  22993371.932    13608742.785 3  10604206.293 1
 91  7 27  2 49 30.0020000  0  4 17 23 21 03
  21584563.224     4780871.700 5   3725355.459 3
  21151059.436   -14640869.477 4 -11408441.513 3
  23884104.162    -5714211.339 2  -4452612.006 1
  23003969.275    13664419.435 3  10647590.696 1
 91  7 27  2 49 45.0020000  0  4 17 23 21 03
  21590013.451     4809522.973 5   3747681.115 3
  21150942.519   -14641488.976 4 -11408924.234 3
  23876885.181    -5752189.249 3  -4482205.128 1
  23014587.628    13720190.831 3  10691048.860 1
 91  7 27  2 50  0.0020000  0  4 17 23 21 03
  21595478.649     4838239.118 5   3770057.331 3
  21150847.171   -14642000.908 4 -11409323.134 3
  23869664.979    -5790115.035 3  -4511757.603 1
  23025215.578    13776057.939 3  10734581.627 1
 91  7 27  2 50 15.0020000  0  4 17 23 21 03
  21600954.667     4867019.419 5   3792483.536 3
  21150764.736   -14642405.506 4 -11409638.403 3
  23862455.876    -5827988.821 2  -4541269.577 1
  23035861.502    13832020.214 3  10778188.531 1
 91  7 27  2 50 30.0020000  0  4 17 23 21 03
  21606445.658     4895863.433 5   3814959.382 3
  21150711.060   -14642703.235 4 -11409870.390 3
  23855256.335    -5865810.927 2  -4570741.254 1
  23046533.218    13888076.771 3  10821868.935 1
 91  7 27  2 50 45.0020000  0  4 17 23 21 03
  21611946.560     4924773.244 5   3837486.489 3
  21150675.705   -14642892.265 4 -11410017.676 3
  23848073.930    -5903579.206 3  -4600171.021 1
  23057218.126    13944229.595 3  10865624.299 1
 91  7 27  2 51  0.0020000  0  4 17 23 21 03
  21617457.338     4953748.261 5   3860064.428 3
  21150663.386   -14642973.206 4 -11410080.747 3
  23840889.082    -5941294.242 2  -4629559.302 2
  23067923.101    14000477.916 3  10909454.165 1
 91  7 27  2 51 15.0020000  0  4 17 23 21 03
  21622984.032     4982787.788 5   3882692.628 3
  21150667.015   -14642946.816 4 -11410060.162 3
  23833724.650    -5978956.644 3  -4658906.553 1
  23078644.271    14056820.823 3  10953357.675 1
 91  7 27  2 51 30.0020000  0  4 17 23 21 03
  21628523.289     5011891.282 5   3905370.667 3
  21150690.399   -14642813.785 4 -11409956.499 3
  23826568.595    -6016566.731 2  -4688213.024 1
  23089378.354    14113257.425 3  10997334.202 1
 91  7 27  2 51 45.0020000  0  4 17 23 21 03
  21634073.959     5041059.331 5   3928099.010 3
  21150737.444   -14642573.665 4 -11409769.384 3
  23819421.545    -6054123.771 2  -4717478.181 1
  23100137.913    14169788.120 3  11041384.081 1
 91  7 27  2 52  0.0020000  0  4 17 23 21 03
  21639636.286     5070292.384 4   3950878.010 3
  21150800.091   -14642225.696 4 -11409498.232 3
  23812293.096    -6091626.928 2  -4746701.320 1
  23110912.446    14226413.278 3  11085507.496 1
 91  7 27  2 52 15.0020000  0  4 17 23 21 03
  21645212.119     5099587.499 5   3973705.371 3
  21150892.437   -14641772.728 4 -11409145.271 3
  23805155.049    -6129078.855 2  -4775884.576 1
  23121706.173    14283130.127 3  11129702.415 1
 91  7 27  2 52 30.0020000  0  4 17 23 21 03
  21650796.677     5128944.462 4   3996580.914 3
  21150994.067   -14641215.230 4 -11408710.839 3
  23798041.852    -6166479.787 3  -4805028.111 1
  23132520.876    14339937.802 3  11173968.086 1
 91  7 27  2 52 45.0020000  0  4 17 23 21 03
  21656395.300     5158362.498 4   4019504.057 3
  21151118.487   -14640553.909 4 -11408195.510 3
  23790939.160    -6203830.419 3  -4834132.405 1
  23143343.710    14396835.388 3  11218303.862 1
 91  7 27  2 53  0.0020000  0  4 17 23 21 03
  21662005.894     5187840.854 4   4042474.195 3
  21151265.977   -14639789.603 4 -11407599.943 3
  23783835.281    -6241131.090 3  -4863197.811 1
  23154188.392    14453822.179 3  11262709.106 1
 91  7 27  2 53 15.0020000  0  4 17 23 21 03
  21667624.306     5217377.458 4   4065489.729 3
  21151432.382   -14638924.512 4 -11406925.842 3
  23776751.190    -6278384.001 3  -4892225.975 1
  23165048.082    14510895.622 3  11307181.813 1
 91  7 27  2 53 30.0020000  0  4 17 23 21 03
  21673258.318     5246974.411 4   4088552.275 3
  21151613.445   -14637956.710 4 -11406171.697 3
  23769668.915    -6315586.865 3  -4921215.131 1
  23175924.558    14568057.613 3  11351723.618 1
 91  7 27  2 53 45.0020000  0  4 17 23 21 03
  21678903.115     5276631.549 4   4111661.722 3
  21151820.614   -14636886.166 4 -11405337.499 3
  23762595.609    -6352739.500 3  -4950165.171 1
  23186820.788    14625307.973 3  11396334.227 1
 91  7 27  2 54  0.0020000  0  4 17 23 21 03
  21684555.694     5306348.329 4   4134817.643 3
  21152040.347   -14635713.453 4 -11404423.685 3
  23755535.774    -6389842.141 3  -4979076.289 1
  23197730.245    14682646.322 3  11441013.414 1
 91  7 27  2 54 15.0020000  0  4 17 23 21 03
  21690222.687     5336124.429 4   4158019.794 3
  21152284.965   -14634438.933 4 -11403430.542 3
  23748489.760    -6426895.169 2  -5007948.667 1
  23208659.177    14740071.652 3  11485760.382 1
 91  7 27  2 54 30.0020000  0  4 17 23 21 03
  21695900.430     5365959.125 4   4181267.604 3
  21152546.404   -14633063.288 4 -11402358.594 3
  23741440.430    -6463899.178 3  -5036782.917 1
  23219606.711    14797583.126 3  11530574.449 1
 91  7 27  2 54 45.0020000  0  4 17 23 21 03
  21701588.991     5395852.296 4   4204560.958 3
  21152826.689   -14631586.736 4 -11401208.025 3
  23734412.111    -6500854.035 3  -5065578.829 1
  23230562.307    14855180.495 3  11575455.470 1
 91  7 27  2 55  0.0020000  0  4 17 23 21 03
  21707284.742     5425804.417 4   4227900.262 3
  21153129.206   -14630008.906 4 -11399978.542 3
  23727389.759    -6537759.149 3  -5094335.990 1
  23241538.005    14912863.939 3  11620403.599 1
 91  7 27  2 55 15.0020000  0  4 17 23 21 03
  21713003.004     5455826.341 4   4251293.956 3
  21153449.383   -14628318.924 4 -11398661.662 3
  23720379.728    -6574603.505 3  -5123045.801 1
  23252535.900    14970644.111 3  11665427.047 1
 91  7 27  2 55 30.0020000  0  4 17 23 21 03
  21718731.143     5485936.339 4   4274756.288 3
  21153798.038   -14626498.544 4 -11397243.176 3
  23713384.668    -6611368.528 3  -5151693.795 1
  23263554.491    15028539.326 3  11710540.148 1
 91  7 27  2 55 45.0020000  0  4 17 23 21 03
  21724472.753     5516103.306 4   4298262.998 3
  21154161.386   -14624579.077 4 -11395747.469 3
  23706399.486    -6648085.362 3  -5180304.257 1
  23274587.740    15086517.984 3  11755718.265 1
 91  7 27  2 56  0.0020000  0  4 17 23 21 03
  21730223.682     5546326.407 4   4321813.462 3
  21154543.930   -14622561.381 4 -11394175.239 3
  23699418.840    -6684754.451 3  -5208877.527 1
  23285637.183    15144579.243 3  11800960.760 1
 91  7 27  2 56 15.0020000  0  4 17 23 21 03
  21735985.080     5576607.623 4   4345409.195 2
  21154951.044   -14620443.429 4 -11392524.876 3
  23692448.665    -6721373.746 3  -5237411.978 1
  23296699.539    15202724.794 3  11846268.912 1
 91  7 27  2 56 30.0020000  0  4 17 23 21 03
  21741757.298     5606946.803 4   4369050.112 3
  21155368.627   -14618225.615 4 -11390796.700 3
  23685490.460    -6757943.535 3  -5265907.860 1
  23307783.464    15260954.111 3  11891642.362 1
 91  7 27  2 56 45.0020000  0  4 17 23 21 03
  21747542.988     5637344.521 4   4392736.630 3
  21155811.723   -14615907.122 4 -11388990.073 3
  23678537.980    -6794462.781 3  -5294364.348 1
  23318875.171    15319267.825 3  11937081.559 1
 91  7 27  2 57  0.0020000  0  4 17 23 21 03
  21753339.776     5667801.426 4   4416469.269 3
  21156270.734   -14613487.239 4 -11387104.441 3
  23671602.600    -6830930.597 3  -5322780.750 1
  23329992.391    15377666.298 3  11982586.832 1
 91  7 27  2 57 15.0020000  0  4 17 23 21 03
  21759142.566     5698318.808 4   4440249.036 3
  21156751.871   -14610965.172 4 -11385139.182 3
  23664673.188    -6867345.710 3  -5351156.118 1
  23341124.269    15436150.660 3  12028159.011 1
 91  7 27  2 57 30.0020000  0  4 17 23 21 03
  21764964.238     5728895.449 4   4464074.981 3
  21157251.331   -14608341.941 4 -11383095.090 3
  23657754.561    -6903708.919 3  -5379491.039 1
  23352265.151    15494719.592 3  12073797.052 1
 91  7 27  2 57 45.0020000  0  4 17 23 21 03
  21770793.693     5759532.271 4   4487947.812 3
  21157767.579   -14605616.867 4 -11380971.648 3
  23650840.470    -6940019.500 3  -5407784.918 1
  23363423.134    15553373.550 2  12119501.391 1
 91  7 27  2 58  0.0020000  0  4 17 23 21 03
  21776636.061     5790229.243 4   4511867.516 3
  21158307.209   -14602789.749 4 -11378768.695 3
  23643944.633    -6976277.205 3  -5436037.634 1
  23374605.094    15612112.389 2  12165271.881 1
 91  7 27  2 58 15.0020000  0  4 17 23 21 03
  21782488.899     5820987.093 4   4535834.657 3
  21158863.627   -14599860.077 4 -11376485.821 3
  23637056.020    -7012481.298 3  -5464248.559 1
  23385796.966    15670936.451 3  12211108.734 1
 91  7 27  2 58 30.0020000  0  4 17 23 21 03
  21788353.428     5851806.228 4   4559849.559 3
  21159441.334   -14596827.516 4 -11374122.773 3
  23630179.378    -7048631.080 3  -5492417.143 2
  23397006.497    15729846.075 2  12257012.267 1
 91  7 27  2 58 45.0020000  0  4 17 23 21 03
  21794229.370     5882685.804 4   4583911.562 3
  21160037.608   -14593692.802 4 -11371680.132 3
  23623310.518    -7084727.020 3  -5520543.801 1
  23408230.128    15788840.438 2  12302981.883 1
 91  7 27  2 59  0.0020000  0  4 17 23 21 03
  21800119.691     5913625.771 4   4608020.604 3
  21160654.298   -14590455.892 4 -11369157.851 3
  23616444.974    -7120769.212 3  -5548628.566 1
  23419474.734    15847919.076 2  12349017.142 1
 91  7 27  2 59 15.0020000  0  4 17 23 21 03
  21806016.608     5944627.795 4   4632178.015 3
  21161291.057   -14587115.505 4 -11366554.946 3
  23609597.125    -7156755.926 3  -5576670.089 1
  23430736.442    15907083.417 2  12395119.153 1
 91  7 27  2 59 30.0020000  0  4 17 23 21 03
  21811927.311     5975690.826 4   4656382.963 2
  21161944.288   -14583672.865 4 -11363872.356 3
  23602761.840    -7192687.892 3  -5604668.981 2
  23442010.748    15966332.317 3  12441287.067 1
 91  7 27  2 59 45.0020000  0  4 17 23 21 03
  21817849.427     6006813.330 4   4680634.261 3
  21162619.123   -14580129.266 4 -11361111.104 3
  23595938.560    -7228566.291 3  -5632626.123 1
  23453301.528    16025664.014 3  12487519.505 1
 91  7 27  3  0  0.0020000  0  4 17 23 21 03
  21823782.012     6037995.780 4   4704932.252 3
  21163313.153   -14576484.197 4 -11358270.779 3
  23589114.688    -7264390.678 3  -5660541.173 1
  23464607.000    16085078.799 2  12533816.650 1
 91  7 27  3  0 15.0020000  0  4 17 23 21 03
  21829728.976     6069239.414 4   4729277.940 2
  21164026.658   -14572736.689 4 -11355350.630 3
  23582308.509    -7300159.981 3  -5688413.309 1
  23475933.134    16144577.512 3  12580179.240 1
 91  7 27  3  0 30.0020000  0  4 17 23 21 03
  21835685.853     6100544.047 4   4753671.151 2
  21164758.136   -14568886.734 4 -11352350.655 3
  23575517.024    -7335873.801 3  -5716242.211 1
  23487270.401    16204160.020 3  12626607.055 1
 91  7 27  3  0 45.0020000  0  4 17 23 21 03
  21841655.921     6131909.545 4   4778111.788 3
  21165509.438   -14564934.613 4 -11349271.081 3
  23568724.318    -7371532.170 3  -5744027.876 1
  23498623.233    16263825.938 3  12673099.958 1
 91  7 27  3  1  0.0020000  0  4 17 23 21 03
  21847637.402     6163336.993 4   4802600.693 3
  21166281.994   -14560879.638 4 -11346111.346 3
  23561952.586    -7407134.067 3  -5771769.582 2
  23509992.574    16323575.715 3  12719658.214 1
 91  7 27  3  1 15.0020000  0  4 17 23 21 03
  21853625.758     6194823.704 4   4827135.787 3
  21167071.930   -14556724.359 4 -11342873.455 3
  23555189.266    -7442681.883 3  -5799469.128 1
  23521375.106    16383406.870 3  12766279.842 1
 91  7 27  3  1 30.0020000  0  4 17 23 21 03
  21859630.902     6226370.383 4   4851717.603 3
  21167882.283   -14552467.819 4 -11339556.665 3
  23548434.670    -7478174.570 3  -5827125.697 2
  23532780.394    16443319.863 3  12812965.243 1
 91  7 27  3  1 45.0020000  0  4 17 23 21 03
  21865647.737     6257978.524 4   4876347.319 3
  21168712.704   -14548109.048 4 -11336160.211 3
  23541697.420    -7513610.837 3  -5854738.323 1
  23544194.407    16503315.968 3  12859715.389 1
 91  7 27  3  2  0.0020000  0  4 17 23 21 03
  21871672.948     6289648.188 4   4901024.964 3
  21169560.226   -14543647.681 4 -11332683.820 3
  23534956.576    -7548990.367 3  -5882306.756 1
  23555628.488    16563394.876 3  12906530.132 1
 91  7 27  3  2 15.0020000  0  4 17 23 21 03
  21877710.793     6321380.415 4   4925751.370 2
  21170429.003   -14539083.030 4 -11329126.944 3
  23528235.555    -7584312.019 3  -5909830.056 1
  23567072.759    16623557.382 3  12953409.922 1
 91  7 27  3  2 30.0020000  0  4 17 23 21 03
  21883762.075     6353172.789 4   4950524.637 2
  21171318.510   -14534417.343 4 -11325491.331 3
  23521525.597    -7619577.836 3  -5937309.866 1
  23578540.100    16683800.950 3  13000352.961 1
 91  7 27  3  2 45.0020000  0  4 17 23 21 03
  21889819.709     6385027.771 4   4975346.696 2
  21172225.957   -14529648.373 4 -11321775.246 3
  23514820.141    -7654785.388 3  -5964744.253 1
  23590022.483    16744127.882 3  13047360.875 1
 91  7 27  3  3  0.0020000  0  4 17 23 21 03
  21895897.689     6416945.248 4   5000217.448 3
  21173150.225   -14524776.279 4 -11317978.800 3
  23508132.066    -7689934.645 3  -5992133.257 1
  23601517.116    16804537.731 3  13094433.426 1
 91  7 27  3  3 15.0020000  0  4 17 23 21 03
  21901980.172     6448923.932 4   5025135.894 2
  21174101.785   -14519802.441 4 -11314103.077 3
  23501463.186    -7725026.633 3  -6019477.617 1
  23613024.034    16865029.133 2  13141569.547 1
 91  7 27  3  3 30.0020000  0  4 17 23 21 03
  21908080.035     6480964.812 4   5050102.810 2
  21175065.002   -14514725.831 4 -11310147.280 3
  23494794.586    -7760060.256 3  -6046776.493 2
  23624558.244    16925602.501 3  13188769.496 1
 91  7 27  3  3 45.0020000  0  4 17 23 21 03
  21914188.938     6513068.208 4   5075118.432 3
  21176051.917   -14509546.210 4 -11306111.204 3
  23488138.898    -7795035.041 3  -6074029.516 1
  23636094.269    16986258.306 2  13236033.755 1
 91  7 27  3  4  0.0020000  0  4 17 23 21 03
  21920310.683     6545235.100 4   5100183.537 2
  21177054.746   -14504262.518 4 -11301994.034 3
  23481494.588    -7829949.735 3  -6101235.735 1
  23647658.179    17046997.398 2  13283362.861 1
 91  7 27  3  4 15.0020000  0  4 17 23 21 03
  21926440.840     6577463.144 4   5125296.286 3
  21178081.203   -14498877.319 4 -11297797.765 3
  23474863.785    -7864806.708 3  -6128396.947 1
  23659223.276    17107816.978 2  13330754.662 1
 91  7 27  3  4 30.0020000  0  4 17 23 21 03
  21932585.969     6609754.822 4   5150458.625 2
  21179123.888   -14493388.289 4 -11293520.600 3
  23468240.764    -7899603.113 3  -6155510.971 1
  23670812.035    17168719.299 2  13378210.975 1
 91  7 27  3  4 45.0020000  0  4 17 23 21 03
  21938743.732     6642109.421 4   5175670.008 2
  21180188.177   -14487796.124 4 -11289163.070 3
  23461627.655    -7934339.641 3  -6182578.338 2
  23682423.899    17229703.454 2  13425731.025 1
 91  7 27  3  5  0.0020000  0  4 17 23 21 03
  21944910.744     6674526.191 4   5200929.806 2
  21181271.626   -14482101.840 4 -11284725.952 3
  23455031.333    -7969017.125 3  -6209599.704 1
  23694042.358    17290768.291 2  13473313.963 1
 91  7 27  3  5 15.0020000  0  4 17 23 21 03
  21951092.763     6707005.199 4   5226238.121 2
  21182378.144   -14476305.104 4 -11280209.025 3
  23448445.795    -8003635.012 3  -6236574.634 1
  23705676.104    17351914.028 2  13520959.947 1
 91  7 27  3  5 30.0020000  0  4 17 23 21 03
  21957284.693     6739547.380 4   5251595.660 2
  21183497.262   -14470405.123 4 -11275611.629 3
  23441865.946    -8038192.247 3  -6263502.307 2
  23717331.140    17413141.293 2  13568669.420 1
 91  7 27  3  5 45.0020000  0  4 17 23 21 03
  21963487.687     6772151.287 4   5277001.293 2
  21184640.984   -14464403.455 4 -11270934.998 3
  23435300.476    -8072690.396 3  -6290383.942 1
  23728998.739    17474448.079 2  13616440.881 1
 91  7 27  3  6  0.0020000  0  4 17 23 21 03
  21969704.188     6804819.069 4   5302456.698 2
  21185804.180   -14458297.938 4 -11266177.444 3
  23428750.328    -8107126.957 3  -6317217.565 1
  23740674.785    17535836.669 2  13664276.117 1
 91  7 27  3  6 15.0020000  0  4 17 23 21 03
  21975935.661     6837549.522 4   5327960.933 2
  21186982.663   -14452090.119 4 -11261340.177 3
  23422208.241    -8141502.975 3  -6344004.028 1
  23752377.180    17597305.498 2  13712173.827 1
 91  7 27  3  6 30.0020000  0  4 17 23 21 03
  21982173.450     6870343.633 4   5353514.787 2
  21188184.216   -14445778.970 4 -11256422.403 3
  23415679.347    -8175817.574 3  -6370742.623 1
  23764089.173    17658855.157 2  13760134.550 1
 91  7 27  3  6 45.0020000  0  4 17 23 21 03
  21988425.619     6903200.768 4   5379117.735 2
  21189406.464   -14439365.184 4 -11251424.643 3
  23409155.583    -8210071.018 3  -6397433.559 1
  23775819.139    17720484.955 2  13808157.707 1
 91  7 27  3  7  0.0020000  0  4 17 23 21 03
  21994688.886     6936121.184 4   5404770.005 2
  21190647.628   -14432848.481 4 -11246346.684 3
  23402653.981    -8244262.908 3  -6424076.520 2
  23787557.517    17782194.957 2  13856243.384 1
 91  7 27  3  7 15.0020000  0  4 17 23 21 03
  22000968.033     6969104.948 4   5430471.626 2
  21191905.265   -14426228.953 4 -11241188.618 3
  23396153.879    -8278392.968 3  -6450671.339 1
  23799316.870    17843984.888 2  13904391.292 1
 91  7 27  3  7 30.0020000  0  4 17 23 21 03
  22007255.311     7002151.236 4   5456221.979 2
  21193184.750   -14419507.382 4 -11235951.031 3
  23389672.973    -8312461.944 3  -6477218.526 1
  23811089.415    17905853.619 3  13952600.719 1
 91  7 27  3  7 45.0020000  0  4 17 23 21 03
  22013556.620     7035260.038 4   5482021.041 2
  21194483.465   -14412683.898 4 -11230634.025 3
  23383204.945    -8346469.741 3  -6503718.048 1
  23822881.748    17967801.060 3  14000871.352 1
 91  7 27  3  8  0.0020000  0  4 17 23 21 03
  22019868.154     7068431.341 4   5507868.798 3
  21195800.154   -14405758.516 4 -11225237.622 3
  23376745.014    -8380416.038 3  -6530169.664 1
  23834683.400    18029827.052 3  14049203.252 1
 91  7 27  3  8 15.0020000  0  4 17 23 21 03
  22026195.882     7101665.763 4   5533765.736 2
  21197140.226   -14398730.895 4 -11219761.550 3
  23370288.085    -8414300.233 3  -6556572.860 1
  23846500.618    18091931.853 3  14097596.521 1
 91  7 27  3  8 30.0020000  0  4 17 23 21 03
  22032529.893     7134963.389 4   5559711.937 2
  21198498.271   -14391601.050 4 -11214205.824 3
  23363862.042    -8448122.215 3  -6582927.600 2
  23858332.529    18154115.112 3  14146051.002 1
 91  7 27  3  8 45.0020000  0  4 17 23 21 03
  22038879.503     7168324.096 4   5585707.292 2
  21199871.045   -14384369.234 4 -11208570.640 3
  23357432.684    -8481881.842 3  -6609233.739 2
  23870180.005    18216376.762 3  14194566.562 1
 91  7 27  3  9  0.0020000  0  4 17 23 21 03
  22045238.398     7201747.872 4   5611751.786 2
  21201265.981   -14377035.234 4 -11202855.832 3
  23351027.616    -8515578.801 3  -6635491.060 1
  23882044.618    18278716.567 3  14243142.962 1
 91  7 27  3  9 15.0020000  0  4 17 23 21 03
  22051613.172     7235236.617 4   5637846.906 2
  21202683.985   -14369597.416 4 -11197060.128 3
  23344616.860    -8549211.334 3  -6661698.171 2
  23893924.167    18341135.999 3  14291781.420 1
 91  7 27  3  9 30.0020000  0  4 17 23 21 03
  22057994.263     7268789.544 4   5663992.044 2
  21204118.498   -14362056.433 4 -11191184.041 3
  23338235.176    -8582779.845 3  -6687855.387 1
  23905813.036    18403634.347 3  14340481.375 1
 91  7 27  3  9 45.0020000  0  4 17 23 21 03
  22064392.141     7302407.017 4   5690187.475 2
  21205573.392   -14354412.192 4 -11185227.484 3
  23331854.678    -8616284.118 3  -6713962.549 1
  23917720.192    18466211.229 2  14389242.516 1
 91  7 27  3 10  0.0020000  0  4 17 23 21 03
  22070804.712     7336086.938 4   5716431.563 2
  21207043.259   -14346667.044 4 -11179192.301 3
  23325495.191    -8649725.983 3  -6740021.089 2
  23929644.763    18528864.554 2  14438063.255 1
 91  7 27  3 10 15.0020000  0  4 17 23 21 03
  22077225.066     7369831.269 4   5742725.830 2
  21208538.045   -14338818.955 4 -11173076.907 3
  23319139.298    -8683103.445 3  -6766029.440 1
  23941579.805    18591596.048 2  14486944.903 1
 91  7 27  3 10 30.0020000  0  4 17 23 21 03
  22083658.298     7403639.229 4   5769069.700 2
  21210050.176   -14330868.581 4 -11166881.804 3
  23312800.785    -8716416.838 3  -6791987.873 1
  23953533.727    18654404.901 2  14535886.772 1
 91  7 27  3 10 45.0020000  0  4 17 23 21 03
  22090102.628     7437511.008 4   5795463.289 2
  21211585.725   -14322815.845 4 -11160606.940 3
  23306474.558    -8749665.850 3  -6817896.136 1
  23965503.530    18717291.021 2  14584888.869 1
 91  7 27  3 11  0.0020000  0  4 17 23 21 03
  22096561.966     7471448.125 4   5821907.785 2
  21213135.968   -14314659.334 4 -11154251.211 3
  23300157.335    -8782849.000 3  -6843753.093 1
  23977487.432    18780255.475 2  14633952.019 1
 91  7 27  3 11 15.0020000  0  5 17 23 11 21 03
  22103031.181     7505451.951 4   5848404.269 2
  21214708.651   -14306397.922 4 -11147813.745 3
  26046562.925           0.126 2         0.422 1
  23293855.991    -8815964.772 3  -6869557.521 1
  23989481.839    18843299.623 2  14683077.282 1
 91  7 27  3 11 30.0030000  0  5 17 23 11 21 03
  22109517.203     7539523.145 4   5874953.244 2
  21216302.365   -14298032.692 4 -11141295.386 3
  26037575.769      -47178.035 2    -36761.658 1
  23287571.142    -8849016.756 3  -6895312.245 2
  24001492.112    18906425.580 2  14732266.284 1
 91  7 27  3 11 45.0030000  0  5 17 23 11 21 03
  22116009.207     7573654.552 4   5901549.141 2
  21217910.438   -14289567.290 4 -11134698.966 3
  26028616.758      -94358.707 2    -73525.767 1
  23281294.682    -8882003.094 3  -6921015.842 2
  24013517.091    18969622.228 2  14781510.363 1
 91  7 27  3 12  0.0030000  0  5 17 23 11 21 03
  22122520.686     7607850.965 4   5928195.678 2
  21219544.023   -14280999.183 4 -11128022.506 3
  26019628.988     -141542.396 2   -110292.221 1
  23275030.229    -8914923.532 3  -6946668.082 2
  24025555.264    19032895.754 2  14830814.326 1
 91  7 27  3 12 15.0030000  0  5 17 23 11 21 03
  22129037.889     7642111.852 4   5954892.476 2
  21221194.080   -14272328.553 4 -11121266.164 3
  26010657.413     -188729.122 2   -147061.004
  23268778.653    -8947778.068 3  -6972268.964 1
  24037615.005    19096245.842 2  14880177.969 1
 91  7 27  3 12 30.0030000  0  5 17 23 11 21 03
  22135569.470     7676436.881 4   5981639.240 2
  21222861.832   -14263555.771 4 -11114430.230 3
  26001685.209     -235918.987 2   -183832.303 1
  23262538.176    -8980567.006 3  -6997818.742 1
  24049686.158    19159671.797 2  14929600.728 1
 91  7 27  3 12 45.0030000  0  5 17 23 11 21 03
  22142113.930     7710825.355 4   6008435.450 2
  21224549.059   -14254681.940 4 -11107515.547 3
  25992697.439     -283112.411 2   -220606.345 1
  23256311.485    -9013291.082 3  -7023317.964 2
  24061760.906    19223172.568 2  14979081.771 1
 91  7 27  3 13  0.0030000  0  5 17 23 11 21 03
  22148668.302     7745278.347 4   6035281.921 2
  21226260.262   -14245705.801 4 -11100521.148 3
  25983716.545     -330307.940 2   -257381.998 1
  23250094.112    -9045949.016 3  -7048765.655 1
  24073865.319    19286748.985 2  15028621.734 1
 91  7 27  3 13 15.0030000  0  5 17 23 11 21 03
  22155237.960     7779795.846 4   6062178.666 2
  21227984.379   -14236627.697 4 -11093447.297 3
  25974715.269     -377505.387 2   -294159.294 1
  23243893.770    -9078540.654 3  -7074161.686 2
  24085981.738    19350400.672 2  15078220.403 1
 91  7 27  3 13 30.0030000  0  5 17 23 11 21 03
  22161817.181     7814377.946 4   6089125.773 2
  21229733.065   -14227447.196 4 -11086293.655 3
  25965739.505     -424704.098 2   -330937.404 1
  23237703.375    -9111065.410 3  -7099505.605 1
  24098109.221    19414127.855 2  15127877.899 1
 91  7 27  3 13 45.0030000  0  5 17 23 11 21 03
  22168411.723     7849024.794 4   6116123.293 2
  21231500.039   -14218164.560 4 -11079060.425 3
  25956762.206     -471903.851 2   -367716.311 1
  23231529.453    -9143523.272 3  -7124797.396 2
  24110248.430    19477930.237 2  15177593.963 1
 91  7 27  3 14  0.0030000  0  5 17 23 11 21 03
  22175019.143     7883735.660 4   6143170.716 2
  21233283.800   -14208780.465 4 -11071748.141 3
  25947786.721     -519105.070 2   -404496.444 1
  23225360.906    -9175914.892 3  -7150037.576 2
  24122402.018    19541806.784 2  15227367.836 1
 91  7 27  3 14 15.0030000  0  5 17 23 11 21 03
  22181633.159     7918510.618 4   6170268.077 2
  21235090.666   -14199295.020 4 -11064356.874 3
  25938806.734     -566307.405 2   -441277.473 1
  23219212.182    -9208240.123 3  -7175226.005 2
  24134572.672    19605757.445 2  15277199.447 1
 91  7 27  3 14 30.0030000  0  5 17 23 11 21 03
  22188264.591     7953350.496 4   6197416.027 2
  21236912.189   -14189707.327 4 -11056885.942 3
  25929815.963     -613509.470 2   -478058.241 1
  23213071.520    -9240497.671 3  -7200361.713 2
  24146752.959    19669782.897 2  15327089.376 1
 91  7 27  3 14 45.0030000  0  5 17 23 11 21 03
  22194905.271     7988256.808 4   6224615.749 2
  21238758.911   -14180016.151 4 -11049334.370 3
  25920838.978     -660709.686 2   -514837.595 1
  23206950.054    -9272686.099 3  -7225443.551 2
  24158953.000    19733884.248 2  15377038.451 1
 91  7 27  3 15  0.0030000  0  5 17 23 11 21 03
  22201563.960     8023227.727 4   6251865.800 2
  21240620.919   -14170223.609 4 -11041703.808 3
  25911858.991     -707909.876 2   -551616.804 1
  23200837.277    -9304807.455 3  -7250473.143 2
  24171170.141    19798059.065 3  15427044.735 1
 91  7 27  3 15 15.0030000  0  5 17 23 11 21 03
  22208228.373     8058261.970 4   6279165.205 2
  21242504.530   -14160331.073 4 -11033995.330 3
  25902879.598     -755110.819 2   -588396.687 1
  23194730.539    -9336862.748 3  -7275451.249 2
  24183391.192    19862305.914 2  15477107.117 1
 91  7 27  3 15 30.0030000  0  5 17 23 11 21 03
  22214908.351     8093359.872 4   6306514.219 2
  21244405.487   -14150337.853 4 -11026208.405 3
  25893897.517     -802311.498 2   -625176.361 1
  23188646.241    -9368851.111 3  -7300377.217 1
  24195631.996    19926625.425 2  15527226.115 1
 91  7 27  3 15 45.0030000  0  5 17 23 11 21 03
  22221599.707     8128521.748 4   6333913.071 2
  21246325.081   -14140243.905 4 -11018342.986 3
  25884908.840     -849511.583 2   -661955.700 1
  23182576.323    -9400772.312 3  -7325250.827 2
  24207884.527    19991017.284 2  15577401.601 1
 91  7 27  3 16  0.0030000  0  5 17 23 11 21 03
  22228300.067     8163749.470 4   6361363.233 2
  21248264.743   -14130047.404 4 -11010397.654 3
  25875922.885     -896708.700 2   -698732.573 1
  23176510.941    -9432624.186 3  -7350070.414 2
  24220151.437    20055483.268 2  15627634.735 1
 91  7 27  3 16 15.0030000  0  5 17 23 11 21 03
  22235017.214     8199040.648 4   6388862.852 2
  21250225.379   -14119750.821 4 -11002374.332 3
  25866948.273     -943904.999 2   -735508.897 1
  23170460.811    -9464409.180 3  -7374837.905 2
  24232432.132    20120020.680 2  15677923.564 1
 91  7 27  3 16 30.0030000  0  5 17 23 11 21 03
  22241746.647     8234395.656 4   6416412.198 2
  21252206.398   -14109354.091 4 -10994272.989 3
  25857971.602     -991099.829 2   -772284.046 1
  23164432.005    -9496126.905 3  -7399552.958 2
  24244725.427    20184629.396 2  15728267.996
 91  7 27  3 16 45.0030000  0  5 17 23 11 21 03
  22248484.804     8269813.928 4   6444010.833 2
  21254202.423   -14098857.845 4 -10986094.087 3
  25848989.521    -1038293.438 2   -809058.129 1
  23158404.386    -9527777.774 3  -7424215.948 2
  24257037.288    20249308.802 2  15778667.364 1
 91  7 27  3 17  0.0030000  0  5 17 23 11 21 03
  22255239.434     8305296.320 4   6471659.443 2
  21256217.016   -14088261.087 4 -10977836.868 3
  25840001.752    -1085484.588 2   -845830.384
  23152393.833    -9559360.532 3  -7448825.832 2
  24269355.781    20314059.743 2  15829122.652 1
 91  7 27  3 17 15.0030000  0  5 17 23 11 21 03
  22262001.847     8340844.313 4   6499359.177 2
  21258254.120   -14077562.567 4 -10969500.360 3
  25831028.361    -1132671.569 2   -882599.338
  23146397.379    -9590873.706 3  -7473381.515 2
  24281689.246    20378883.186 2  15879634.412 1
 91  7 27  3 17 30.0030000  0  5 17 23 11 21 03
  22268780.140     8376458.347 4   6527110.367 2
  21260309.790   -14066761.873 4 -10961084.231 3
  25822054.657    -1179853.827 2   -919364.800 1
  23140414.433    -9622316.674 3  -7497882.502 2
  24294041.592    20443779.301 2  15930202.641 1
 91  7 27  3 17 45.0030000  0  5 17 23 11 21 03
  22275567.751     8412135.470 4   6554910.700 2
  21262382.562   -14055862.062 4 -10952590.862 3
  25813069.574    -1227033.824 2   -956128.536 1
  23134442.863    -9653692.298 3  -7522330.991 2
  24306401.441    20508745.103 2  15980825.301 1
 91  7 27  3 18  0.0030000  0  5 17 23 11 21 03
  22282369.741     8447876.992 4   6582761.232 2
  21264475.995   -14044862.024 4 -10944019.400 3
  25804091.402    -1274210.001 2   -992888.972 1
  23128485.394    -9684999.306 3  -7546726.028 2
  24318786.454    20573781.287 2  16031502.796 1
 91  7 27  3 18 15.0030000  0  5 17 23 11 21 03
  22289182.830     8483683.455 4   6610662.375 2
  21266589.844   -14033761.156 4 -10935369.373 3
  25795123.421    -1321381.388 2  -1029645.903 1
  23122542.897    -9716236.781 3  -7571066.883 2
  24331172.374    20638888.435 2  16082235.574 1
 91  7 27  3 18 30.0030000  0  5 17 23 11 21 03
  22296010.891     8519554.146 4   6638613.550 2
  21268721.074   -14022560.387 4 -10926641.486 3
  25786137.711    -1368548.270 2  -1066399.346 1
  23116614.185    -9747405.496 3  -7595354.141 2
  24343577.804    20704065.535 2  16133022.878 1
 91  7 27  3 18 45.0030000  0  5 17 23 11 21 03
  22302848.549     8555488.812 4   6666614.575 2
  21270871.779   -14011260.020 4 -10917836.000 3
  25777173.325    -1415710.581 2  -1103149.029 1
  23110691.512    -9778505.464 3  -7619587.844 2
  24355987.387    20769312.069 2  16183864.219 1
 91  7 27  3 19  0.0030000  0  5 17 23 11 21 03
  22309698.807     8591486.684 4   6694664.853 2
  21273038.084   -13999861.022 4 -10908953.657 3
  25768192.151    -1462868.979 2  -1139895.942 1
  23104791.872    -9809537.316 3  -7643768.454 2
  24368416.793    20834626.954 2  16234758.931 1
 91  7 27  3 19 15.0030000  0  5 17 23 11 21 03
  22316561.070     8627549.154 4   6722765.471 2
  21275226.271   -13988362.056 4 -10899993.426 3
  25759214.259    -1510021.836 2  -1176638.666 1
  23098894.083    -9840499.681 3  -7667894.931 2
  24380864.173    20900011.140 2  16285707.529 1
 91  7 27  3 19 30.0030000  0  5 17 23 11 21 03
  22323435.897     8663676.444 4   6750916.590 2
  21277434.841   -13976762.845 4 -10890955.074 3
  25750245.091    -1557168.600 2  -1213376.396 1
  23093016.047    -9871392.136 3  -7691966.931 1
  24393316.369    20965464.903 2  16336710.500 1
 91  7 27  3 19 45.0030000  0  5 17 23 11 21 03
  22330322.451     8699867.382 4   6779117.312 2
  21279660.511   -13965064.937 4 -10881839.813 3
  25741278.890    -1604310.063 2  -1250109.988 1
  23087151.482    -9902215.711 3  -7715985.263 1
  24405788.319    21030986.646 2  16387766.227 1
 91  7 27  3 20  0.0030000  0  5 17 23 11 21 03
  22337223.070     8736123.013 4   6807368.446 2
  21281905.342   -13953267.234 4 -10872646.799 3
  25732312.375    -1651444.752 2  -1286838.256 1
  23081300.738    -9932969.172 3  -7739948.953 2
  24418269.587    21096577.208 2  16438875.691 1
 91  7 27  3 20 15.0030000  0  5 17 23 11 21 03
  22344133.565     8772442.105 4   6835669.040 2
  21284170.276   -13941370.836 4 -10863376.878 3
  25723339.612    -1698573.331 2  -1323561.754 1
  23075456.311    -9963653.364 3  -7763858.678 1
  24430765.548    21162235.175 2  16490037.678 1
 91  7 27  3 20 30.0030000  0  5 17 23 11 21 03
  22351055.474     8808826.803 4   6864020.731 2
  21286457.406   -13929373.949 4 -10854028.646 3
  25714374.912    -1745693.597 2  -1360278.772 1
  23069635.512    -9994266.286 3  -7787712.855 2
  24443267.478    21227962.469 2  16541253.686 1
 91  7 27  3 20 45.0030000  0  5 17 23 11 21 03
  22357992.389     8845276.398 4   6892423.002 2
  21288758.008   -13917277.272 4 -10844602.653 3
  25705412.027    -1792805.973 2  -1396989.648 1
  23063823.438   -10024808.500 3  -7811511.936 2
  24455792.511    21293757.933 2  16592522.796 1
 91  7 27  3 21  0.0030000  0  5 17 23 11 21 03
  22364943.962     8881791.798 4   6920876.551 2
  21291075.711   -13905079.949 4 -10835098.244 3
  25696441.917    -1839909.043 2  -1433693.296 1
  23058022.776   -10055278.837 3  -7835255.012 2
  24468328.922    21359622.495 2  16643845.788 1
 91  7 27  3 21 15.0030000  0  5 17 23 11 21 03
  22371903.353     8918373.094 4   6949381.454 2
  21293414.075   -13892782.087 4 -10825515.491 3
  25687480.218    -1887002.597 2  -1470389.353 1
  23052240.053   -10085677.234 3  -7858942.032 1
  24480871.336    21425555.851 2  16695222.387 1
 91  7 27  3 21 30.0030000  0  5 17 23 11 21 03
  22378878.624     8955018.862 4   6977936.598 2
  21295775.229   -13880385.211 4 -10815855.586 3
  25678517.646    -1934087.709 2  -1507079.154 1
  23046470.278   -10116005.029 3  -7882574.021 1
  24493433.259    21491556.214 2  16746651.139 1
 91  7 27  3 21 45.0030000  0  5 17 23 11 21 03
  22385861.678     8991730.758 4   7006543.257 2
  21298155.299   -13867887.769 4 -10806117.317 3
  25669560.135    -1981162.225 2  -1543760.528 1
  23040710.659   -10146260.318 3  -7906149.521 2
  24506001.743    21557625.067 2  16798133.295 1
 91  7 27  3 22  0.0030000  0  5 17 23 11 21 03
  22392861.239     9028508.322 4   7035201.094 2
  21300550.935   -13855290.305 4 -10796301.109 3
  25660605.940    -2028226.469 2  -1580433.930 1
  23034964.512   -10176443.594 3  -7929668.920 2
  24518595.426    21623761.633 2  16849668.168 1
 91  7 27  3 22 15.0030000  0  5 17 23 11 21 03
  22399871.306     9065351.720 4   7063910.233 2
  21302965.172   -13842592.917 4 -10786407.038 3
  25651645.428    -2075279.882 2  -1617098.894 1
  23029235.501   -10206554.593 3  -7953131.986 1
  24531188.201    21689965.858 2  16901255.869 1
 91  7 27  3 22 30.0030000  0  5 17 23 11 21 03
  22406895.437     9102261.626 4   7092671.190 2
  21305406.388   -13829794.470 4 -10776434.213 3
  25642702.610    -2122321.097 2  -1653754.332 1
  23023522.055   -10236592.118 3  -7976537.802 1
  24543790.888    21756238.363 2  16952896.744 1
 91  7 27  3 22 45.0030000  0  5 17 23 11 21 03
  22413934.541     9139237.071 4   7121483.219 2
  21307856.573   -13816896.579 4 -10766383.908 3
  25633752.638    -2169351.188 2  -1690401.090 1
  23017819.708   -10266557.347 3  -7999887.288 2
  24556419.052    21822577.715 2  17004589.632 1
 91  7 27  3 23  0.0030000  0  5 17 23 11 21 03
  22420979.089     9176277.559 4   7150345.933 2
  21310330.456   -13803899.894 4 -10756256.626 3
  25624813.415    -2216370.336 2  -1727039.388 1
  23012128.738   -10296450.840 3  -8023180.870 2
  24569060.409    21888982.826 2  17056333.843 1
 91  7 27  3 23 15.0030000  0  5 17 23 11 21 03
  22428041.297     9213384.152 4   7179260.149 2
  21312822.940   -13790803.292 4 -10746051.479 3
  25615865.222    -2263377.039 2  -1763667.926 1
  23006454.870   -10326271.104 3  -8046417.390 2
  24581714.050    21955454.972 2  17108130.236 1
 91  7 27  3 23 30.0030000  0  5 17 23 11 21 03
  22435116.977     9250553.566 4   7208223.324 2
  21315332.805   -13777610.110 4 -10735771.074 3
  25606908.305    -2310374.249 2  -1800289.036 1
  23000794.787   -10356021.339 3  -8069599.345 2
  24594370.065    22021990.502 2  17159975.965 1
 91  7 27  3 23 45.0030000  0  5 17 23 11 21 03
  22442199.287     9287787.404 4   7237236.694 2
  21317862.458   -13764318.755 4 -10725414.167 3
  25597974.177    -2357359.921 2  -1836901.202 1
  22995146.396   -10385699.739 3  -8092725.318 2
  24607033.618    22088590.710 2  17211872.181 1
 91  7 27  3 24  0.0030000  0  5 17 23 11 21 03
  22449297.163     9325085.243 4   7266299.942 2
  21320410.679   -13750929.843 4 -10714981.262 3
  25589043.365    -2404334.234 2  -1873504.527 1
  22989512.698   -10415306.868 3  -8115795.745 2
  24619722.614    22155254.984 2  17263818.370 1
 91  7 27  3 24 15.0030000  0  5 17 23 11 21 03
  22456407.359     9362446.981 4   7295412.982 2
  21322978.094   -13737443.559 4 -10704472.462 3
  25580102.955    -2451296.907 2  -1910098.778 1
  22983898.474   -10444842.620 3  -8138810.593 2
  24632425.744    22221982.797 2  17315813.908 1
 91  7 27  3 24 30.0030000  0  5 17 23 11 21 03
  22463529.212     9399872.697 4   7324575.868 2
  21325561.424   -13723859.928 4 -10693887.810 3
  25571158.358    -2498247.509 2  -1946683.616 1
  22978283.657   -10474306.652 3  -8161769.546 2
  24645140.810    22288774.227 2  17367859.115 1
 91  7 27  3 24 45.0030000  0  5 17 23 11 21 03
  22470663.070     9437364.117 4   7353789.947 2
  21328163.636   -13710177.497 4 -10683226.175 3
  25562238.923    -2545184.207 2  -1983257.577 1
  22972691.037   -10503697.303 3  -8184671.298 2
  24657853.538    22355630.351 2  17419954.774 1
 91  7 27  3 25  0.0030000  0  5 17 23 11 21 03
  22477809.248     9474920.106 4   7383054.350 2
  21330787.101   -13696397.478 4 -10672488.500 3
  25553304.516    -2592107.602 2  -2019821.267 1
  22967115.203   -10533015.476 3  -8207516.576 2
  24670591.115    22422550.062 2  17472100.012 1
 91  7 27  3 25 15.0030000  0  5 17 23 11 21 03
  22484961.674     9512507.942 4   7412343.567 2
  21333421.980   -13682552.475 4 -10661700.183 3
  25544365.293    -2639049.850 2  -2056399.614 1
  22961539.056   -10562293.539 3  -8230330.614 2
  24683332.880    22489500.299 2  17524268.928 1
 91  7 27  3 25 30.0030000  0  5 17 23 11 21 03
  22492127.641     9550154.249 4   7441678.332 2
  21336073.052   -13668616.064 4 -10650840.643 3
  25535443.765    -2685984.183 2  -2092971.772 1
  22955986.013   -10591504.867 3  -8253092.651 2
  24696083.964    22556507.405 2  17576482.242 1
 91  7 27  3 25 45.0030000  0  5 17 23 11 21 03
  22499302.856     9587866.976 4   7471064.871 2
  21338746.006   -13654580.433 4 -10639903.786 3
  25526506.077    -2732902.327 2  -2129531.301 1
  22950435.657   -10620641.383 3  -8275796.381 2
  24708846.704    22623579.147 2  17628745.803 1
 91  7 27  3 26  0.0030000  0  5 17 23 11 21 03
  22506491.892     9625644.371 4   7500501.776 2
  21341434.247   -13640447.336 4 -10628890.982 3
  25517584.828    -2779805.621 2  -2166079.303 1
  22944905.369   -10649704.673 3  -8298443.064 2
  24721621.764    22690713.596 2  17681058.237 1
 91  7 27  3 26 15.0030000  0  5 17 23 11 21 03
  22513691.084     9663485.859 4   7529988.647 2
  21344142.556   -13626217.499 4 -10617802.794 3
  25508665.114    -2826694.539 2  -2202616.050 1
  22939389.495   -10678695.499 3  -8321033.273 2
  24734404.921    22757909.587 2  17733418.673 1
 91  7 27  3 26 30.0030000  0  5 17 23 11 21 03
  22520905.912     9701391.774 4   7559525.715 2
  21346866.779   -13611890.750 4 -10606639.086 3
  25499750.182    -2873568.266 2  -2239141.015 1
  22933885.591   -10707613.185 3  -8343566.487 2
  24747203.679    22825167.566 2  17785827.426 1
 91  7 27  3 26 45.0030000  0  5 17 23 11 21 03
  22528130.895     9739361.752 4   7589112.686 2
  21349612.257   -13597467.449 4 -10595400.150 3
  25490826.280    -2920426.803 2  -2275654.123 1
  22928400.290   -10736458.038 3  -8366042.961 2
  24760016.501    22892486.650 2  17838283.835 1
 91  7 27  3 27  0.0030000  0  5 17 23 11 21 03
  22535368.792     9777394.102 4   7618748.282 2
  21352375.743   -13582949.546 4 -10584087.495 3
  25481914.349    -2967271.427 2  -2312156.381 1
  22922926.680   -10765231.570 3  -8388463.858 2
  24772836.827    22959864.947 2  17890786.327 1
 91  7 27  3 27 15.0030000  0  5 17 23 11 21 03
  22542621.660     9815511.259 4   7648449.959 2
  21355158.739   -13568314.644 4 -10572683.672 3
  25473011.109    -3014079.358 2  -2348630.052 1
  22917466.577   -10793911.245 3  -8410811.613 2
  24785684.131    23027324.669 2  17943352.295 1
 91  7 27  3 27 30.0030000  0  5 17 23 11 21 03
  22549893.445     9853711.094 4   7678216.033 2
  21357965.990   -13553565.048 4 -10561190.476 3
  25464104.273    -3060852.345 2  -2385076.574 1
  22912027.135   -10822499.039 3  -8433087.773 2
  24798538.345    23094863.421 2  17995979.801 1
 91  7 27  3 27 45.0030000  0  5 17 23 11 21 03
  22557170.884     9891974.379 4   7708031.574 2
  21360791.843   -13538720.125 4 -10549623.011 3
  25455203.720    -3107609.449 2  -2421510.606 1
  22906602.385   -10851014.296 3  -8455307.420 2
  24811393.118    23162461.535 2  18048653.564 1
 91  7 27  3 28  0.0030000  0  5 17 23 11 21 03
  22564465.738     9930299.756 4   7737895.497 2
  21363639.265   -13523781.333 4 -10537982.393 3
  25446311.577    -3154351.722 2  -2457933.121 1
  22901186.641   -10879458.155 3  -8477471.441 2
  24824271.623    23230117.486 2  18101372.428 1
 91  7 27  3 28 15.0030000  0  5 17 23 11 21 03
  22571772.877     9968688.874 4   7767809.082 2
  21366497.471   -13508747.007 4 -10526267.326 3
  25437430.219    -3201077.025 2  -2494342.391 1
  22895792.185   -10907828.748 3  -8499578.357 2
  24837154.002    23297832.849 2  18154137.546 1
 91  7 27  3 28 30.0030000  0  5 17 23 11 21 03
  22579088.113    10007141.148 4   7797771.867 2
  21369374.873   -13493617.782 4 -10514478.316 3
  25428538.077    -3247785.495 2  -2530738.606 1
  22890405.512   -10936126.509 3  -8521628.511 2
  24850050.481    23365606.525 2  18206948.173 1
 91  7 27  3 28 45.0030000  0  5 17 23 11 21 03
  22586415.634    10045654.959 4   7827782.614 2
  21372270.283   -13478395.328 4 -10502616.669 3
  25419651.937    -3294478.452 2  -2567122.677 1
  22885032.032   -10964353.018 3  -8543623.169 2
  24862960.431    23433436.756 2  18259802.798 1
 91  7 27  3 29  0.0030000  0  5 17 23 11 21 03
  22593760.850    10084230.261 4   7857841.279 2
  21375185.481   -13463079.877 4 -10490682.548 3
  25410764.891    -3341155.422 2  -2603494.292 1
  22879676.525   -10992507.999 3  -8565562.074 2
  24875879.979    23501323.347 2  18312701.391 1
 91  7 27  3 29 15.0030000  0  5 17 23 11 21 03
  22601112.382    10122866.925 4   7887947.769 2
  21378116.524   -13447671.828 4 -10478676.269 3
  25401881.159    -3387816.350 2  -2639853.407 1
  22874331.523   -11020591.623 3  -8587445.369 2
  24888809.438    23569265.780 2  18365643.433 1
 91  7 27  3 29 30.0030000  0  5 17 23 11 21 03
  22608476.165    10161566.101 4   7918102.947 2
  21381067.984   -13432170.226 4 -10466597.102 3
  25393007.270    -3434459.914 2  -2676199.075 1
  22868999.435   -11048602.729 3  -8609272.184 2
  24901743.086    23637264.706 2  18418629.560 1
 91  7 27  3 29 45.0030000  0  5 17 23 11 21 03
  22615853.454    10200327.580 4   7948306.680 2
  21384034.731   -13416575.133 4 -10454445.086 3
  25384140.011    -3481085.779 2  -2712530.848 1
  22863685.913   -11076541.216 4  -8631042.400 2
  24914703.712    23705319.945 2  18471659.482 1
 91  7 27  3 30  0.0030000  0  5 17 23 11 21 03
  22623236.152    10239150.323 4   7978558.157 2
  21387022.487   -13400887.521 4 -10442220.974 3
  25375262.876    -3527694.572 2  -2748849.365 1
  22858380.768   -11104408.016 3  -8652756.746 2
  24927652.332    23773430.322 2  18524732.449 1
 91  7 27  3 30 15.0030000  0  5 17 23 11 21 03
  22630640.140    10278034.829 4   8008857.759 2
  21390024.309   -13385107.198 4 -10429924.611 3
  25366404.901    -3574285.537 2  -2785153.989 1
  22853090.350   -11132202.632 3  -8674414.855 2
  24940619.868    23841595.723 2  18577848.261 1
 91  7 27  3 30 30.0030000  0  5 17 23 11 21 03
  22638050.410    10316982.510 4   8039206.593 2
  21393047.384   -13369233.044 4 -10417555.141 3
  25357538.551    -3620857.029 2  -2821443.414 1
  22847813.998   -11159923.572 3  -8696015.553 2
  24953610.787    23909817.400 2  18631007.906 1
 91  7 27  3 30 45.0030000  0  5 17 23 11 21 03
  22645475.373    10355991.686 4   8069603.337 2
  21396082.815   -13353266.625 4 -10405113.780 3
  25348681.762    -3667410.123 2  -2857718.516 1
  22842555.340   -11187572.262 3  -8717559.957 2
  24966597.483    23978093.408 2  18684209.873 1
 91  7 27  3 31  0.0030000  0  5 17 23 11 21 03
  22652908.712    10395065.218 4   8100050.241 2
  21399138.278   -13337205.265 4 -10392598.433 3
  25339824.416    -3713941.550 2  -2893976.741 1
  22837306.873   -11215145.607 3  -8739045.629 2
  24979607.284    24046426.384 2  18737456.304 1
 91  7 27  3 31 15.0030000  0  5 17 23 11 21 03
  22660358.873    10434200.602 4   8130545.338 2
  21402213.844   -13321051.718 4 -10380011.248 3
  25330980.820    -3760453.618 2  -2930219.843
  22832070.691   -11242646.188 3  -8760474.619 2
  24992616.177    24114813.654 2  18790745.037 1
 91  7 27  3 31 30.0030000  0  5 17 23 11 21 03
  22667813.501    10473398.864 4   8161089.432 2
  21405307.419   -13304804.988 4 -10367351.455 3
  25322136.037    -3806945.067 2  -2966446.924 1
  22826856.984   -11270072.983 3  -8781846.122 2
  25005646.359    24183255.775 2  18844076.405 1
 91  7 27  3 31 45.0030000  0  5 17 23 11 21 03
  22675283.137    10512660.333 4   8191682.770 2
  21408413.872   -13288464.764 4 -10354618.816 3
  25313280.471    -3853414.986 2  -3002657.193 1
  22821650.817   -11297425.444 3  -8803159.706 2
  25018677.728    24251752.785 2  18897450.620 1
 91  7 27  3 32  0.0030000  0  5 17 23 11 21 03
  22682770.432    10551986.660 4   8222326.662 2
  21411543.394   -13272029.559 4 -10341812.167 3
  25304442.913    -3899861.467 2  -3038849.240 1
  22816459.307   -11324701.710 3  -8824413.901 2
  25031729.793    24320306.243 2  18950868.843 1
 91  7 27  3 32 15.0030000  0  5 17 23 11 21 03
  22690263.765    10591377.264 4   8253020.625 2
  21414690.331   -13255499.840 4 -10328931.859 3
  25295614.324    -3946284.823 2  -3075023.274 1
  22811280.676   -11351902.354 3  -8845609.166 2
  25044784.859    24388915.226 2  19004330.307 1
 91  7 27  3 32 30.0030000  0  5 17 23 11 21 03
  22697771.756    10630831.319 4   8283764.031 2
  21417852.241   -13238876.743 4 -10315978.792 3
  25286778.232    -3992685.448 2  -3111179.539 1
  22806121.554   -11379028.174 3  -8866746.146 2
  25057854.025    24457578.503 2  19057834.136 1
 91  7 27  3 32 45.0030000  0  5 17 23 11 21 03
  22705295.941    10670349.654 4   8314557.524 2
  21421032.124   -13222159.584 4 -10302952.434 3
  25277956.518    -4039062.110 2  -3147317.153 1
  22800974.123   -11406078.100 3  -8887823.983 2
  25070922.563    24526296.814 2  19111381.062 1
 91  7 27  3 33  0.0030000  0  5 17 23 11 21 03
  22712823.127    10709931.637 3   8345400.624 2
  21424229.423   -13205349.132 4 -10289853.382 3
  25269138.749    -4085414.974 2  -3183436.225 1
  22795843.759   -11433052.583 3  -8908843.028 2
  25084012.111    24595069.206 2  19164969.708 1
 91  7 27  3 33 15.0030000  0  5 17 23 11 21 03
  22720368.601    10749577.796 4   8376293.728 2
  21427446.475   -13188444.657 4 -10276681.060 3
  25260326.947    -4131743.002 2  -3219535.928 1
  22790720.620   -11459950.845 3  -8929802.689 2
  25097110.628    24663896.145 2  19218601.326 1
 91  7 27  3 33 30.0030000  0  5 17 23 11 21 03
  22727924.894    10789286.623 3   8407235.659 2
  21430681.257   -13171448.132 4 -10263437.014 3
  25251511.237    -4178047.617 2  -3255617.401 1
  22785620.235   -11486774.496 3  -8950704.202 2
  25110213.369    24732775.690 2  19272273.762 1
 91  7 27  3 33 45.0030000  0  5 17 23 11 21 03
  22735495.846    10829057.539 4   8438225.984 2
  21433931.883   -13154360.242 4 -10250121.782 3
  25242702.437    -4224329.064 2  -3291680.808 1
  22780526.482   -11513524.128 3  -8971548.040 2
  25123332.861    24801706.712 2  19325986.081 1
 91  7 27  3 34  0.0030000  0  5 17 23 11 21 03
  22743072.486    10868891.052 4   8469265.068 2
  21437202.019   -13137180.540 4 -10236734.998 3
  25233901.420    -4270586.461 2  -3327725.529 1
  22775449.795   -11540199.198 3  -8992333.780 2
  25136460.486    24870689.590 2  19379739.055 1
 91  7 27  3 34 15.0030000  0  5 17 23 11 21 03
  22750666.856    10908787.333 4   8500353.065 2
  21440491.071   -13119909.139 4 -10223276.758 3
  25225105.812    -4316819.395 2  -3363751.118 1
  22770388.080   -11566799.388 3  -9013061.167 2
  25149594.113    24939724.112 2  19433532.083
 91  7 27  3 34 30.0030000  0  5 17 23 11 21 03
  22758270.788    10948746.354 3   8531489.955 2
  21443794.467   -13102545.915 4 -10209746.973 3
  25216306.923    -4363027.218 2  -3399757.186 1
  22765343.187   -11593324.347 4  -9033729.935 2
  25162739.990    25008810.317 2  19487365.419 1
 91  7 27  3 34 45.0030000  0  5 17 23 11 21 03
  22765888.192    10988768.382 3   8562675.933 2
  21447116.186   -13085090.768 4 -10196145.553 3
  25207521.786    -4409209.308 2  -3435743.186 1
  22760310.579   -11619773.729 4  -9054339.804 2
  25175900.595    25077948.150 2  19541239.008 1
 91  7 27  3 35  0.0030000  0  5 17 23 11 21 03
  22773510.412    11028853.868 3   8593911.380 2
  21450454.657   -13067543.382 4 -10182472.265 3
  25198739.091    -4455364.848 2  -3471708.462 1
  22755288.755   -11646147.013 4  -9074890.387 2
  25189065.982    25147137.734 2  19595152.825 1
 91  7 27  3 35 15.0030000  0  5 17 23 11 21 03
  22781149.140    11069003.111 4   8625196.494 2
  21453806.041   -13049903.169 4 -10168726.638 3
  25189956.362    -4501492.918 2  -3507652.368 1
  22750288.500   -11672443.480 4  -9095381.103 2
  25202237.965    25216379.420 2  19649107.336 1
 91  7 27  3 35 30.0030000  0  5 17 23 11 21 03
  22788803.434    11109217.280 3   8656532.203 2
  21457187.405   -13032169.401 4 -10154908.119 3
  25181182.322    -4547592.443 2  -3543574.064 1
  22745296.656   -11698662.315 4  -9115811.333 2
  25215430.608    25285673.514 2  19703102.554 1
 91  7 27  3 35 45.0030000  0  5 17 23 11 21 03
  22796471.828    11149493.759 4   8687916.480 2
  21460577.738   -13014345.030 4 -10141018.996 3
  25172420.603    -4593665.597 2  -3579475.187 1
  22740319.191   -11724805.948 4  -9136182.955 2
  25228631.070    25355017.322 2  19757136.626 1
 91  7 27  3 36  0.0030000  0  5 17 23 11 21 03
  22804146.224    11189832.695 4   8719349.397 2
  21463986.393   -12996429.921 4 -10127059.169 3
  25163656.161    -4639711.936 2  -3615355.399 1
  22735359.455   -11750874.234 4  -9156495.867 2
  25241828.530    25424410.581 2  19811209.307 1
 91  7 27  3 36 15.0030000  0  5 17 23 11 21 03
  22811833.185    11230234.071 4   8750830.996 2
  21467412.115   -12978424.260 4 -10113028.783 3
  25154898.630    -4685731.007 2  -3651214.337 1
  22730414.377   -11776866.972 4  -9176749.919 2
  25255047.907    25493853.292 2  19865320.362 1
 91  7 27  3 36 30.0030000  0  5 17 23 11 21 03
  22819534.873    11270699.028 4   8782362.124 2
  21470854.031   -12960326.755 4 -10098926.834 3
  25146149.475    -4731721.201 2  -3687050.843 1
  22725483.958   -11802782.851 4  -9196944.084 2
  25268266.343    25563346.049 2  19919470.472 1
 91  7 27  3 36 45.0030000  0  5 17 23 11 21 03
  22827248.532    11311227.008 4   8813942.348 2
  21474318.737   -12942138.185 4 -10084753.916 3
  25137402.448    -4777682.743 2  -3722864.988 1
  22720567.673   -11828622.299 4  -9217078.684 2
  25281500.693    25632888.449 2  19973659.244
 91  7 27  3 37  0.0030000  0  5 17 23 11 21 03
  22834971.475    11351817.820 4   8845571.548 2
  21477796.042   -12923858.767 4 -10070510.209 3
  25128655.108    -4823615.277 2  -3758656.502 1
  22715665.174   -11854385.313 4  -9237153.739 2
  25294738.602    25702479.747 2  20027886.177 1
 91  7 27  3 37 15.0030000  0  5 17 23 11 21 03
  22842707.331    11392472.162 4   8877250.259 2
  21481292.821   -12905487.861 4 -10056195.215 3
  25119922.146    -4869517.825 2  -3794424.735 1
  22710776.461   -11880071.113 4  -9257168.596 2
  25307991.833    25772120.438 2  20082151.509 1
 91  7 27  3 37 30.0030000  0  5 17 23 11 21 03
  22850455.751    11433189.221 4   8908977.821 2
  21484805.794   -12887026.614 4 -10041809.827 3
  25111195.781    -4915390.752 2  -3830169.837 1
  22705900.626   -11905680.446 4  -9277123.892 2
  25321255.569    25841809.320 2  20136454.449 1
 91  7 27  3 37 45.0030000  0  5 17 23 11 21 03
  22858217.992    11473969.424 4   8940754.596 2
  21488336.741   -12868474.575 4 -10027353.694 3
  25102469.416    -4961233.129 2  -3865891.059 1
  22701046.080   -11931212.742 4  -9297019.158 2
  25334533.056    25911546.854 2  20190795.333 1
 91  7 27  3 38  0.0030000  0  5 17 23 11 21 03
  22865986.515    11514811.948 3   8972579.933 2
  21491883.882   -12849832.592 4 -10012827.460 3
  25093756.557    -5007045.571 2  -3901589.022 1
  22696199.945   -11956668.655 4  -9316854.897 2
  25347811.171    25981331.934 2  20245173.163 1
 91  7 27  3 38 15.0030000  0  5 17 23 11 21 03
  22873775.699    11555716.757 4   9004453.799 2
  21495446.623   -12831100.931 4  -9998231.369 3
  25085041.290    -5052827.798 2  -3937263.463 1
  22691370.283   -11982048.381 4  -9336631.267 2
  25361095.568    26051164.041 2  20299587.741 1
 91  7 27  3 38 30.0030000  0  5 17 23 11 21 03
  22881566.418    11596684.140 4   9036376.428 2
  21499030.933   -12812279.354 4  -9983565.206 3
  25076337.715    -5098579.107 2  -3972913.752 1
  22686556.815   -12007351.348 4  -9356347.854 2
  25374389.283    26121043.085 2  20354038.813 1
 91  7 27  3 38 45.0030000  0  5 17 23 11 21 03
  22889377.206    11637714.399 3   9068348.049 2
  21502628.749   -12793367.883 4  -9968828.995 3
  25067629.358    -5144298.898 2  -4008539.496 1
  22681757.133   -12032577.262 4  -9376004.373 2
  25387694.377    26190968.965 2  20408526.437 1
 91  7 27  3 39  0.0030000  0  5 17 23 11 21 03
  22897196.683    11678805.794 3   9100367.305 2
  21506244.539   -12774368.247 4  -9954024.074 3
  25058941.069    -5189988.475 2  -4044141.779 1
  22676971.271   -12057727.507 4  -9395601.927 2
  25401011.440    26260940.132 2  20463049.286 1
 91  7 27  3 39 15.0030000  0  5 17 23 11 21 03
  22905023.385    11719958.692 3   9132434.487 2
  21509876.522   -12755280.494 4  -9939150.500 3
  25050253.967    -5235647.373 2  -4079720.088 1
  22672198.881   -12082801.986 4  -9415140.455 2
  25414340.824    26330956.123 2  20517607.128 1
 91  7 27  3 39 30.0030000  0  5 17 23 11 21 03
  22912869.247    11761174.438 3   9164550.647 2
  21513524.700   -12736102.976 4  -9924206.988 3
  25041568.400    -5281273.445 2  -4115272.777 1
  22667442.649   -12107799.022 4  -9434618.626 2
  25427672.302    26401018.346 2  20572200.927 1
 91  7 27  3 39 45.0030000  0  5 17 23 11 21 03
  22920728.023    11802453.369 3   9196716.038 2
  21517189.943   -12716835.535 4  -9909193.394 3
  25032896.584    -5326865.932 2  -4150799.340 1
  22662697.551   -12132717.968 4  -9454035.962 2
  25441019.938    26471127.125 2  20626831.038 1
 91  7 27  3 40  0.0030000  0  5 17 23 11 21 03
  22928586.484    11843772.851 3   9228913.025 2
  21520872.603   -12697501.087 4  -9894127.586 3
  25024225.083    -5372447.230 2  -4186317.245 1
  22657971.299   -12157581.618 4  -9473410.201 2
  25454361.014    26541259.178 2  20681479.371 1
 91  7 27  3 40 15.0030000  0  5 17 23 11 21 03
  22936460.231    11885136.491 3   9261144.426 2
  21524563.638   -12678095.887 4  -9879006.660 3
  25015558.083    -5418013.229 3  -4221823.138 1
  22653245.676   -12182386.162 4  -9492738.388 2
  25467711.059    26611417.942 2  20736148.409 1
 91  7 27  3 40 30.0030000  0  5 17 23 11 21 03
  22944341.169    11926561.305 3   9293423.485 2
  21528271.181   -12658603.178 4  -9863817.536 3
  25006885.394    -5463546.523 2  -4257303.562 1
  22648543.749   -12207114.546 4  -9512007.231 2
  25481073.423    26681620.313 2  20790851.530 1
 91  7 27  3 40 45.0030000  0  5 17 23 11 21 03
  22952237.392    11968049.163 3   9325751.679 2
  21531997.012   -12639021.246 4  -9848558.888 3
  24998223.490    -5509045.078 2  -4292756.948 1
  22643855.295   -12231764.843 4  -9531215.215 2
  25494435.753    26751867.658 2  20845589.523 1
 91  7 27  3 41  0.0030000  0  5 17 23 11 21 03
  22960143.527    12009601.086 3   9358129.774 2
  21535743.224   -12619349.145 4  -9833229.977 3
  24989582.875    -5554507.345 3  -4328182.033 1
  22639177.031   -12256335.750 4  -9550361.352 2
  25507811.624    26822160.841 2  20900363.342 1
 91  7 27  3 41 15.0030000  0  5 17 23 11 21 03
  22968061.948    12051215.539 3   9390556.622 2
  21539504.409   -12599588.363 4  -9817831.967 3
  24980931.162    -5599934.329 2  -4363579.701 1
  22634511.366   -12280828.740 4  -9569446.770 2
  25521199.745    26892497.942 2  20955171.400 1
 91  7 27  3 41 30.0030000  0  5 17 23 11 21 03
  22975990.838    12092892.400 3   9423032.093 2
  21543280.288   -12579739.156 4  -9802365.046 3
  24972298.644    -5645325.900 2  -4398949.698 1
  22629866.676   -12305243.904 4  -9588471.548 2
  25534593.276    26962878.628 2  21010013.544 1
 91  7 27  3 41 45.0030000  0  5 17 23 11 21 03
  22983937.737    12134631.115 3   9455555.752 2
  21547073.267   -12559802.415 4  -9786829.927 3
  24963664.905    -5690682.139 2  -4434292.181 1
  22625237.273   -12329581.604 4  -9607435.951 2
  25547992.181    27033302.322 2  21064888.937 1
 91  7 27  3 42  0.0030000  0  5 17 23 11 21 03
  22991900.550    12176453.394 3   9488144.531 2
  21550889.036   -12539756.604 4  -9771209.820 3
  24955041.670    -5735981.146 2  -4469590.068 1
  22620622.563   -12353820.201 4  -9626323.138 2
  25561405.221    27103790.076 2  21119814.242 1
 91  7 27  3 42 15.0030000  0  5 17 23 11 21 03
  22999870.205    12218356.458 3   9520796.252 2
  21554723.966   -12519604.307 4  -9755506.733 3
  24946436.130    -5781225.073 2  -4504845.062 1
  22616028.235   -12377962.053 4  -9645134.942 2
  25574832.012    27174339.062 2  21174787.464 1
 91  7 27  3 42 30.0030000  0  5 17 23 11 21 03
  23007852.178    12260320.891 3   9553495.794 2
  21558576.904   -12499365.115 4  -9739735.936 3
  24937826.088    -5826433.015 2  -4540071.942 1
  22611451.008   -12402026.695 4  -9663886.587 2
  25588267.807    27244929.592 2  21229793.001 1
 91  7 27  3 42 45.0030000  0  5 17 23 11 21 03
  23015853.348    12302346.502 3   9586243.010 2
  21562444.221   -12479039.263 4  -9723897.603 3
  24929232.554    -5871604.727 2  -4575270.649 1
  22606889.067   -12426014.077 4  -9682578.027 2
  25601707.511    27315561.187 2  21284830.444 1
 91  7 27  3 43  0.0030000  0  5 17 23 11 21 03
  23023862.020    12344434.059 3   9619038.501 2
  21566328.047   -12458626.135 4  -9707991.271 3
  24920646.209    -5916738.905 2  -4610440.102 1
  22602338.225   -12449923.415 4  -9701208.650 2
  25615156.499    27386234.451 2  21339900.563 1
 91  7 27  3 43 15.0030000  0  5 17 23 11 21 03
  23031880.256    12386585.290 3   9651883.607 2
  21570229.531   -12438124.363 4  -9692015.875 3
  24912069.741    -5961833.658 2  -4645578.812 1
  22597803.263   -12473753.039 4  -9719777.151 2
  25628617.492    27456950.658 2  21395003.933 1
 91  7 27  3 43 30.0030000  0  4 17 23 11 21
  23039914.685    12428799.608 3   9684777.857 2
  21574148.431   -12417534.621 4  -9675971.920 3
  24903491.179    -6006889.373 3  -4680687.102 1
  22593279.398   -12497503.495 4  -9738283.981 2
 91  7 27  3 43 45.0030000  0  4 17 23 11 21
  23047956.025    12471075.580 3   9717720.183 2
  21578080.803   -12396858.284 4  -9659860.485 3
  24894927.904    -6051906.810 3  -4715765.603 1
  22588773.508   -12521175.839 4  -9756729.938 2
 91  7 27  3 44  0.0030000  0  4 17 23 11 21
  23056012.057    12513413.201 3   9750710.509 2
  21582035.057   -12376095.689 4  -9643681.845 3
  24886365.221    -6096885.634 3  -4750814.011 1
  22584288.313   -12544770.123 4  -9775115.060 2
 91  7 27  3 44 15.0030000  0  4 17 23 11 21
  23064084.563    12555812.737 3   9783749.108 2
  21586001.631   -12355246.498 4  -9627435.720 3
  24877818.454    -6141825.164 3  -4785831.749 1
  22579813.624   -12568285.887 4  -9793439.000 2
 91  7 27  3 44 30.0030000  0  4 17 23 11 21
  23072163.385    12598273.173 3   9816835.160 2
  21589985.272   -12334311.855 4  -9611123.016 3
  24869265.055    -6186725.994 3  -4820819.405 1
  22575353.906   -12591724.082 4  -9811702.483 2
 91  7 27  3 44 45.0030000  0  4 17 23 11 21
  23080256.866    12640794.599 3   9849968.726 2
  21593984.792   -12313291.792 4  -9594743.744 3
  24860735.668    -6231587.501 3  -4855776.365 1
  22570907.382   -12615084.365 4  -9829905.284 2
 91  7 27  3 45  0.0030000  0  4 17 23 11 21
  23088360.259    12683377.910 3   9883150.525 2
  21597999.633   -12292185.580 4  -9578297.345 3
  24852200.871    -6276408.519 3  -4890701.818 1
  22566477.958   -12638366.061 4  -9848046.846 2
 91  7 27  3 45 15.0030000  0  4 17 23 11 21
  23096476.250    12726023.718 3   9916381.002 2
  21602033.914   -12270992.630 4  -9561783.362 3
  24843680.767    -6321188.054 3  -4925594.912 1
  22562064.414   -12661568.216 4  -9866126.419 2
 91  7 27  3 45 30.0030000  0  4 17 23 11 21
  23104603.026    12768730.322 3   9949658.870 2
  21606082.016   -12249714.637 4  -9545203.109 3
  24835173.263    -6365927.251 3  -4960456.569 1
  22557660.468   -12684692.327 4  -9884145.186 2
 91  7 27  3 45 45.0030000  0  4 17 23 11 21
  23112742.680    12811497.491 3   9982983.924 2
  21610147.498   -12228351.942 4  -9528556.853 3
  24826659.755    -6410625.851 3  -4995286.634 1
  22553278.997   -12707738.567 4  -9902103.267 2
 91  7 27  3 46  0.0030000  0  4 17 23 11 21
  23120891.932    12854325.243 3  10016356.178 2
  21614229.173   -12206904.869 4  -9511844.844 3
  24818164.535    -6455283.823 3  -5030085.010 1
  22548903.809   -12730707.027 4  -9920000.736 2
 91  7 27  3 46 15.0030000  0  4 17 23 11 21
  23129052.282    12897213.813 3  10049775.855 2
  21618327.043   -12185373.466 4  -9495067.136 3
  24809674.411    -6499900.438 3  -5064851.148 1
  22544548.130   -12753597.358 4  -9937837.336 2
 91  7 27  3 46 30.0030000  0  4 17 23 11 21
  23137224.638    12940162.697 3  10083242.493 2
  21622440.199   -12163758.089 4  -9478223.985 3
  24801188.510    -6544475.625 3  -5099585.016 1
  22540202.641   -12776409.854 4  -9955613.283 2
 91  7 27  3 46 45.0030000  0  4 17 23 11 21
  23145409.558    12983170.734 3  10116755.248 2
  21626569.234   -12142059.986 4  -9461316.370 3
  24792719.640    -6589010.238 3  -5134287.266 1
  22535882.317   -12799145.697 4  -9973329.497 2
 91  7 27  3 47  0.0030000  0  4 17 23 11 21
  23153601.981    13026237.896 3  10150314.055 2
  21630712.684   -12120279.044 4  -9444344.207 3
  24784247.838    -6633503.648 3  -5168957.421 1
  22531572.811   -12821804.551 4  -9990985.720 2
 91  7 27  3 47 15.0030000  0  4 17 23 11 21
  23161812.099    13069363.687 3  10183918.559 2
  21634872.606   -12098416.233 4  -9427308.256 3
  24775790.974    -6677956.177 3  -5203595.748 1
  22527271.402   -12844386.899 4 -10008582.334 2
 91  7 27  3 47 30.0030000  0  4 17 23 11 21
  23170031.815    13112549.009 3  10217569.440 2
  21639050.503   -12076470.839 4  -9410207.955 3
  24767343.429    -6722366.483 3  -5238201.120 1
  22522987.653   -12866891.848 4 -10026118.633 2
 91  7 27  3 47 45.0030000  0  4 17 23 11 21
  23178256.033    13155793.504 3  10251266.440 2
  21643239.497   -12054443.308 4  -9393043.642 3
  24758901.886    -6766734.677 3  -5272773.731 1
  22518717.131   -12889319.777 4 -10043594.923 2
 91  7 27  3 48  0.0030000  0  4 17 23 11 21
  23186496.723    13199097.219 3  10285009.590 2
  21647449.467   -12032333.534 4  -9375815.245 3
  24750463.309    -6811060.168 3  -5307313.046 1
  22514469.957   -12911670.406 4 -10061010.973 2
 91  7 27  3 48 15.0030000  0  4 17 23 11 21
  23194752.421    13242458.698 3  10318797.742 2
  21651672.664   -12010142.796 4  -9358523.767 3
  24742034.052    -6855343.713 3  -5341819.623 1
  22510227.600   -12933944.745 4 -10078367.567 2
 91  7 27  3 48 30.0030000  0  4 17 23 11 21
  23203013.773    13285878.036 3  10352630.982 2
  21655908.111   -11987871.463 4  -9341169.475 3
  24733612.577    -6899584.986 3  -5376293.335 1
  22506006.811   -12956142.851 4 -10095664.776 2
 91  7 27  3 48 45.0030000  0  4 17 23 11 21
  23211283.257    13329354.547 3  10386508.782 2
  21660162.788   -11965520.326 4  -9323753.005 3
  24725202.793    -6943784.388 3  -5410734.387 1
  22501793.526   -12978265.395 4 -10112903.097 2
 91  7 27  3 49  0.0030000  0  4 17 23 11 21
  23219569.214    13372889.094 3  10420431.792 2
  21664431.216   -11943088.717 4  -9306273.837 3
  24716803.515    -6987940.648 3  -5445141.830 1
  22497601.250   -13000311.535 4 -10130081.878 2
 91  7 27  3 49 15.0030000  0  4 17 23 11 21
  23227867.769    13416481.797 3  10454400.124 2
  21668714.651   -11920576.583 4  -9288731.909 3
  24708411.740    -7032053.181 3  -5479515.213 1
  22493419.445   -13022280.967 4 -10147200.900 2
 91  7 27  3 49 30.0030000  0  4 17 23 11 21
  23236172.328    13460130.975 3  10488412.466 2
  21673014.280   -11897985.556 4  -9271128.507 3
  24700024.432    -7076123.241 3  -5513855.493 1
  22489252.927   -13044175.153 4 -10164261.289 2
 91  7 27  3 49 45.0030000  0  4 17 23 11 21
  23244486.170    13503838.024 3  10522469.889 2
  21677328.882   -11875314.558 4  -9253462.799 3
  24691648.223    -7120149.064 3  -5548161.327 1
  22485100.473   -13065992.708 4 -10181261.955 2
 91  7 27  3 50  0.0030000  0  4 17 23 11 21
  23252819.208    13547602.357 3  10556571.960 2
  21681656.396   -11852564.243 4  -9235735.279 3
  24683272.921    -7164130.712 3  -5582432.681 1
  22480963.654   -13087734.066 4 -10198203.248 2
 91  7 27  3 50 15.0030000  0  4 17 23 11 21
  23261157.620    13591424.133 3  10590718.790 2
  21686003.385   -11829734.576 4  -9217945.933 3
  24674916.221    -7208067.759 3  -5616669.332 1
  22476840.901   -13109399.162 4 -10215085.118 2
 91  7 27  3 50 30.0030000  0  4 17 23 11 21
  23269504.443    13635303.016 4  10624910.116 2
  21690361.786   -11806825.808 4  -9200094.934 3
  24666558.893    -7251959.831 3  -5650870.890 1
  22472733.434   -13130987.790 4 -10231907.403 2
 91  7 27  3 50 45.0030000  0  4 17 23 11 21
  23277868.960    13679239.138 3  10659146.047 1
  21694733.938   -11783837.784 4  -9182182.192 3
  24658223.169    -7295806.403 3  -5685037.065 1
  22468641.881   -13152499.764 4 -10248669.966 2
 91  7 27  3 51  0.0030000  0  4 17 23 11 21
  23286239.481    13723232.123 4  10693426.296 2
  21699125.914   -11760771.326 4  -9164208.332 3
  24649887.130    -7339607.581 3  -5719167.810 1
  22464561.392   -13173935.660 4 -10265373.238 2
 91  7 27  3 51 15.0030000  0  4 17 23 11 21
  23294620.471    13767280.908 3  10727750.011 1
  21703528.045   -11737627.596 4  -9146174.251 3
  24641555.000    -7383363.980 3  -5753263.715 1
  22460496.538   -13195296.338 4 -10282017.894 2
 91  7 27  3 51 30.0030000  0  4 17 23 11 21
  23303017.062    13811386.393 3  10762117.914 2
  21707948.814   -11714405.743 4  -9128079.294 3
  24633238.750    -7427074.150 3  -5787323.544 1
  22456443.621   -13216580.724 4 -10298603.113 2
 91  7 27  3 51 45.0030000  0  4 17 23 11 21
  23311416.027    13855548.803 3  10796530.147 1
  21712383.019   -11691105.756 4  -9109923.467 3
  24624931.818    -7470737.586 3  -5821346.988 1
  22452409.026   -13237788.662 4 -10315128.751 2
 91  7 27  3 52  0.0030000  0  4 17 23 11 21
  23319834.221    13899769.106 3  10830987.539 1
  21716832.545   -11667726.494 4  -9091705.854 3
  24616626.980    -7514352.873 3  -5855332.895 1
  22448390.903   -13258919.015 4 -10331593.944 2
 91  7 27  3 52 15.0030000  0  4 17 23 11 21
  23328257.476    13944046.299 3  10865489.249 1
  21721292.855   -11644269.099 4  -9073427.361 3
  24608340.395    -7557920.631 3  -5889281.786 1
  22444384.787   -13279972.634 4 -10347999.341 2
 91  7 27  3 52 30.0030000  0  4 17 23 11 21
  23336696.925    13988380.734 3  10900035.541 2
  21725773.548   -11620733.610 4  -9055088.022 3
  24600057.440    -7601439.998 3  -5923192.954 1
  22440391.549   -13300949.041 4 -10364344.576 2
 91  7 27  3 52 45.0030000  0  4 17 23 11 21
  23345143.284    14032772.587 3  10934626.584 1
  21730266.839   -11597120.045 4  -9036687.844 3
  24591783.768    -7644910.530 3  -5957066.067 1
  22436413.283   -13321848.126 4 -10380629.550 2
 91  7 27  3 53  0.0030000  0  4 17 23 11 21
  23353600.148    14077222.414 3  10969262.821 1
  21734775.138   -11573427.889 4  -9018226.421 3
  24583524.789    -7688331.145 3  -5990900.274 1
  22432452.747   -13342669.167 4 -10396853.725 2
 91  7 27  3 53 15.0030000  0  4 17 23 11 21
  23362070.170    14121728.936 3  11003943.219 1
  21739296.908   -11549658.232 4  -8999704.613 3
  24575264.903    -7731702.550 3  -6024696.120 1
  22428503.553   -13363413.320 4 -10413017.986 2
 91  7 27  3 53 30.0030000  0  4 17 23 11 21
  23370547.695    14166292.256 3  11038667.866 1
  21743835.466   -11525811.057 4  -8981122.397 3
  24567025.713    -7775024.215 3  -6058453.252 1
  22424571.182   -13384080.172 4 -10429122.000 2
 91  7 27  3 53 45.0030000  0  4 17 23 11 21
  23379038.726    14210912.023 3  11073436.509 1
  21748390.217   -11501886.794 5  -8962480.117 3
  24558787.396    -7818296.125 3  -6092171.607 1
  22420652.910   -13404670.122 4 -10445166.092 2
 91  7 27  3 54  0.0030000  0  4 17 23 11 21
  23387538.448    14255590.206 3  11108250.652 1
  21752956.939   -11477883.840 4  -8943776.517 3
  24550563.213    -7861516.080 3  -6125849.466 1
  22416749.924   -13425181.331 4 -10461148.838 2
 91  7 27  3 54 15.0030000  0  4 17 23 11 21
  23396055.551    14300326.125 3  11143109.792 1
  21757540.762   -11453803.039 4  -8925012.254 3
  24542352.781    -7904684.296 3  -6159486.969 1
  22412858.910   -13445614.238 4 -10477070.567 2
 91  7 27  3 54 30.0030000  0  4 17 23 11 21
  23404577.748    14345120.273 3  11178014.305 1
  21762139.278   -11429643.914 5  -8906186.969 3
  24534146.571    -7947799.634 3  -6193083.308 1
  22408988.870   -13465968.246 4 -10492930.812 2
 91  7 27  3 54 45.0030000  0  4 17 23 11 21
  23413111.638    14389973.674 3  11212964.989 2
  21766747.985   -11405405.620 5  -8887299.988 3
  24525949.332    -7990860.812 3  -6226637.456 1
  22405130.557   -13486242.391 4 -10508728.831 2
 91  7 27  3 55  0.0030000  0  4 17 23 11 21
  23421662.908    14434884.117 3  11247960.141 2
  21771376.202   -11381090.606 4  -8868353.224 3
  24517775.196    -8033869.736 3  -6260150.866 1
  22401285.716   -13506438.723 4 -10524466.209 2
 91  7 27  3 55 15.0030000  0  4 17 23 11 21
  23430216.306    14479853.209 3  11283000.966 2
  21776020.263   -11356696.823 4  -8849345.078 3
  24509593.277    -8076824.048 3  -6293621.702 1
  22397459.162   -13526555.328 4 -10540141.462 2
 91  7 27  3 55 30.0030000  0  4 17 23 11 21
  23438785.550    14524879.467 3  11318086.345 2
  21780675.458   -11332226.191 4  -8830277.063 3
  24501426.017    -8119724.865 3  -6327050.896 1
  22393648.489   -13546593.617 4 -10555755.704 2
 91  7 27  3 55 45.0030000  0  4 17 23 11 21
  23447364.112    14569963.152 3  11353216.468 2
  21785347.405   -11307678.480 4  -8811148.978 3
  24493276.451    -8162571.632 3  -6360437.940 1
  22389848.913   -13566553.313 4 -10571308.688 2
 91  7 27  3 56  0.0030000  0  4 17 23 11 21
  23455951.399    14615103.692 3  11388390.902 2
  21790031.985   -11283054.378 4  -8791961.365 3
  24485131.981    -8205364.279 3  -6393782.818 1
  22386062.565   -13586434.867 4 -10586800.795 2
 91  7 27  3 56 15.0030000  0  4 17 23 11 21
  23464554.810    14660301.803 3  11423610.194 2
  21794731.818   -11258353.498 4  -8772713.918 3
  24477005.519    -8248101.870 3  -6427084.811 1
  22382295.970   -13606237.765 4 -10602231.605 2
 91  7 27  3 56 30.0030000  0  4 17 23 11 21
  23473168.761    14705557.326 3  11458874.219 2
  21799446.343   -11233576.178 4  -8753406.927 3
  24468877.557    -8290784.106 3  -6460343.642 1
  22378542.254   -13625961.856 4 -10617601.001 2
 91  7 27  3 56 45.0030000  0  4 17 23 11 21
  23481789.901    14750870.641 3  11494183.270 2
  21804177.690   -11208721.720 4  -8734039.819 3
  24460767.847    -8333409.951 3  -6493558.523 1
  22374805.639   -13645606.441 4 -10632908.453 2
 91  7 27  3 57  0.0030000  0  4 17 23 11 21
  23490425.107    14796241.936 3  11529537.509 2
  21808921.602   -11183790.122 4  -8714612.597 3
  24452668.678    -8375978.769 3  -6526728.987 1
  22371081.309   -13665171.318 4 -10648153.796 2
 91  7 27  3 57 15.0030000  0  4 17 23 11 21
  23499070.538    14841671.284 3  11564936.985 2
  21813679.892   -11158781.599 4  -8695125.436 3
  24444574.883    -8418490.103 3  -6559854.655 1
  22367374.080   -13684656.465 4 -10663337.010 2
 91  7 27  3 57 30.0030000  0  4 17 23 11 21
  23507724.938    14887158.412 3  11600381.498 2
  21818455.005   -11133696.376 4  -8675578.521 3
  24436496.060    -8460943.833 3  -6592935.461 1
  22363680.950   -13704061.939 4 -10678458.142 2
 91  7 27  3 57 45.0030000  0  4 17 23 11 21
  23516392.252    14932702.660 3  11635870.503 2
  21823241.495   -11108535.318 4  -8655972.504 3
  24428432.559    -8503340.326 3  -6625971.652 1
  22360001.886   -13723388.367 4 -10693517.676 2
 91  7 27  3 58  0.0030000  0  4 17 23 11 21
  23525067.035    14978305.138 3  11671404.877 1
  21828044.458   -11083297.382 4  -8636306.567 3
  24420372.932    -8545677.805 3  -6658961.824 1
  22356339.644   -13742634.601 4 -10708514.716 2
 91  7 27  3 58 15.0030000  0  4 17 23 11 21
  23533758.604    15023965.998 3  11706984.769 2
  21832860.020   -11057982.590 4  -8616580.761 3
  24412327.997    -8587955.942 3  -6691905.789 1
  22352694.747   -13761800.493 4 -10723449.160 2
 91  7 27  3 58 30.0030000  0  4 17 23 11 21
  23542460.400    15069685.530 3  11742610.351 2
  21837694.184   -11032590.696 4  -8596794.875 3
  24404291.474    -8630173.876 3  -6724802.836 1
  22349064.857   -13780885.597 4 -10738320.646 2
 91  7 27  3 58 45.0040000  0  4 17 23 11 21
  23551171.778    15115466.748 3  11778284.006 2
  21842539.432   -11007120.259 4  -8576947.775 3
  24396270.223    -8672334.096 3  -6757654.903 1
  22345441.271   -13799891.179 4 -10753130.188 2
 91  7 27  3 59  0.0040000  0  4 17 23 11 21
  23559894.235    15161302.780 3  11814000.393 1
  21847402.075   -10981575.322 4  -8557042.634 3
  24388262.458    -8714431.135 3  -6790457.740 1
  22341844.362   -13818815.224 4 -10767876.167 2
 91  7 27  3 59 15.0040000  0  4 17 23 11 21
  23568628.069    15207198.377 3  11849763.181 1
  21852276.968   -10955952.868 4  -8537077.083 3
  24380260.102    -8756465.752 3  -6823211.959 1
  22338257.644   -13837657.217 4 -10782558.220 2
 91  7 27  3 59 30.0040000  0  4 17 23 11 21
  23577370.314    15253152.412 3  11885571.504 1
  21857166.902   -10930254.016 4  -8517052.009 3
  24372276.906    -8798438.687 3  -6855918.069 1
  22334688.307   -13856418.211 4 -10797177.155 2
 91  7 27  3 59 45.0040000  0  4 17 23 11 21
  23586131.161    15299165.460 3  11921425.801 1
  21862072.996   -10904478.109 4  -8496966.881 3
  24364301.529    -8840348.718 3  -6888575.217 1
  22331134.570   -13875097.471 4 -10811732.397 2
 91  7 27  4  0  0.0040000  0  4 17 23 11 21
  23594894.102    15345235.566 3  11957324.592 1
  21866990.782   -10878627.189 4  -8476823.312 3
  24356333.375    -8882197.404 3  -6921184.528 1
  22327594.025   -13893696.782 4 -10826225.345 2
 91  7 27  4  0 15.0040000  0  4 17 23 11 21
  23603676.203    15391362.691 3  11993267.801 1
  21871923.574   -10852701.627 4  -8456621.572 3
  24348383.754    -8923984.551 3  -6953745.906 1
  22324071.176   -13912216.354 4 -10840656.148 2
 91  7 27  4  0 30.0040000  0  4 17 23 11 21
  23612462.841    15437546.468 3  12029255.144 1
  21876873.154   -10826701.747 4  -8436361.923 3
  24340437.763    -8965709.962 3  -6986259.180 1
  22320562.111   -13930656.222 4 -10855024.871 2
 91  7 27  4  0 45.0040000  0  4 17 23 11 21
  23621257.541    15483786.618 3  12065286.410 1
  21881833.239   -10800628.038 4  -8416044.751 3
  24332522.937    -9007373.387 3  -7018724.116 1
  22317067.426   -13949016.532 4 -10869331.577 2
 91  7 27  4  1  0.0040000  0  4 17 23 11 21
  23630069.936    15530084.199 3  12101362.436 1
  21886810.076   -10774479.604 4  -8395669.344 3
  24324604.517    -9048973.436 3  -7051139.731 1
  22313587.434   -13967296.391 4 -10883575.598 2
 91  7 27  4  1 15.0040000  0  4 17 23 11 21
  23638891.021    15576437.064 3  12137481.550 1
  21891800.419   -10748258.511 4  -8375237.320 3
  24316698.103    -9090511.693 3  -7083507.123 1
  22310123.635   -13985497.772 4 -10897758.466 2
 91  7 27  4  1 30.0040000  0  4 17 23 11 21
  23647722.926    15622845.162 3  12173643.678 1
  21896803.641   -10721965.056 4  -8354748.914 3
  24308804.566    -9131987.841 3  -7115826.178 1
  22306676.624   -14003620.759 4 -10911880.248 2
 91  7 27  4  1 45.0040000  0  4 17 23 11 21
  23656564.393    15669309.508 3  12209849.636 1
  21901820.090   -10695598.220 4  -8334203.324 3
  24300921.814    -9173400.411 3  -7148095.681 1
  22303242.770   -14021664.184 4 -10925940.044 2
 91  7 27  4  2  0.0040000  0  4 17 23 11 21
  23665414.585    15715829.458 3  12246098.943 1
  21906853.012   -10669158.640 4  -8313601.059 3
  24293054.384    -9214749.451 3  -7180315.670 2
  22299825.145   -14039628.388 4 -10939938.100 2
 91  7 27  4  2 15.0040000  0  4 17 23 11 21
  23674278.841    15762405.469 3  12282391.912 1
  21911898.812   -10642646.349 4  -8292942.132 3
  24285196.795    -9256034.490 3  -7212485.793 1
  22296421.306   -14057513.267 4 -10953874.346 2
 91  7 27  4  2 30.0040000  0  4 17 23 11 21
  23683153.010    15809037.901 3  12318728.853 1
  21916957.491   -10616061.075 4  -8272226.331 3
  24277353.655    -9297254.509 3  -7244605.257 1
  22293034.253   -14075318.170 4 -10967748.275 2
 91  7 27  4  2 45.0040000  0  4 17 23 11 21
  23692040.057    15855726.896 3  12355109.859 1
  21922027.896   -10589402.409 4  -8251453.346 3
  24269522.172    -9338408.529 3  -7276673.287 1
  22289659.800   -14093042.562 4 -10981559.471 2
 91  7 27  4  3  0.0040000  0  4 17 23 11 21
  23700930.978    15902471.116 3  12391533.912 1
  21927115.681   -10562671.940 4  -8230624.407 3
  24261699.065    -9379497.646 3  -7308690.726 1
  22286301.820   -14110687.846 4 -10995309.025 2
 91  7 27  4  3 15.0040000  0  4 17 23 11 21
  23709836.906    15949271.267 3  12428001.566 1
  21932219.626   -10535868.995 4  -8209738.998 3
  24253893.373    -9420520.872 3  -7340656.858 1
  22282961.534   -14128253.283 4 -11008996.345 2
 91  7 27  4  3 30.0040000  0  4 17 23 11 21
  23718755.154    15996125.895 3  12464511.642 1
  21937329.294   -10508995.315 4  -8188798.462 3
  24246102.374    -9461479.135 3  -7372572.352 1
  22279631.718   -14145740.257 4 -11022622.531 2
 91  7 27  4  3 45.0040000  0  4 17 23 11 21
  23727676.961    16043027.485 3  12501058.339 1
  21942458.157   -10482058.295 4  -8167808.575 3
  24238318.251    -9502379.430 3  -7404442.683 1
  22276315.444   -14163156.025 4 -11036193.237 2
 91  7 27  4  4  0.0040000  0  4 17 23 11 21
  23736608.402    16089952.578 3  12537623.339 1
  21947590.301   -10455081.530 4  -8146787.722 3
  24230542.853    -9543244.757 3  -7436285.771 1
  22273012.327   -14180524.095 4 -11049726.782 2
 91  7 27  4  4 15.0040000  0  4 17 23 11 21
  23745549.684    16136932.672 3  12574231.176 1
  21952738.639   -10428033.780 4  -8125711.547 3
  24222778.204    -9584043.155 3  -7468076.705 1
  22269722.403   -14197812.891 4 -11063198.541 2
 91  7 27  4  4 30.0040000  0  4 17 23 11 21
  23754501.192    16183967.389 3  12610881.583 2
  21957898.354   -10400915.613 4  -8104580.507 3
  24215028.597    -9624774.664 3  -7499815.513 1
  22266448.951   -14215022.760 4 -11076608.794 2
 91  7 27  4  4 45.0040000  0  4 17 23 11 21
  23763459.889    16231055.729 3  12647573.794 2
  21963070.075   -10373727.800 4  -8083395.206 3
  24207294.242    -9665439.620 3  -7531502.453 1
  22263187.820   -14232154.392 4 -11089958.093 2
 91  7 27  4  5  0.0040000  0  4 17 23 11 21
  23772429.406    16278198.215 3  12684308.194 1
  21968257.676   -10346470.008 4  -8062155.365 3
  24199566.482    -9706037.260 3  -7563136.960 1
  22259942.568   -14249207.334 4 -11103246.070 2
 91  7 27  4  5 15.0040000  0  4 17 23 11 21
  23781412.673    16325394.457 3  12721084.476 1
  21973457.282   -10319142.703 4  -8040861.362 3
  24191848.914    -9746567.199 3  -7594718.696 1
  22256708.100   -14266181.579 4 -11116472.724 2
 91  7 27  4  5 30.0040000  0  4 17 23 11 21
  23790403.130    16372644.776 3  12757902.889 1
  21978671.896   -10291745.814 4  -8019513.141 3
  24184151.763    -9787028.822 3  -7626247.216 1
  22253498.237   -14283076.968 4 -11129637.939 2
 91  7 27  4  5 45.0040000  0  4 17 23 11 21
  23799405.907    16419949.850 3  12794763.978 1
  21983897.852   -10264278.533 4  -7998110.068 3
  24176464.488    -9827420.991 3  -7657721.625 1
  22250296.157   -14299892.851 4 -11142741.197 2
 91  7 27  4  6  0.0040000  0  4 17 23 11 21
  23808426.064    16467346.121 3  12831696.113 2
  21989146.040   -10236704.750 4  -7976624.011 3
  24168799.689    -9867707.063 3  -7689113.338 1
  22247118.333   -14316592.782 4 -11155754.100 2
 91  7 27  4  6 15.0040000  0  4 17 23 11 21
  23817453.132    16514796.369 3  12868670.310 1
  21994405.292   -10209061.809 4  -7955084.047 3
  24161142.394    -9907923.613 3  -7720450.893 1
  22243955.516   -14333213.811 4 -11168705.523 2
 91  7 27  4  6 30.0040000  0  4 17 23 11 21
  23826493.356    16562297.825 3  12905684.419 1
  21999677.142   -10181352.524 4  -7933492.399 3
  24153506.982    -9948072.992 3  -7751736.103 2
  22240808.020   -14349758.477 4 -11181597.447 2
 91  7 27  4  6 45.0040000  0  4 17 23 11 21
  23835539.898    16609851.503 3  12942739.198 2
  22004963.092   -10153576.008 4  -7911848.363 3
  24145877.258    -9988153.662 3  -7782967.753 1
  22237676.962   -14366225.708 4 -11194429.027 2
 91  7 27  4  7  0.0040000  0  4 17 23 11 21
  23844599.912    16657456.560 3  12979834.054 1
  22010261.921   -10125732.868 4  -7890152.411 3
  24138266.136   -10028166.039 3  -7814146.220 1
  22234554.944   -14382616.183 4 -11207200.797 2
 91  7 27  4  7 15.0040000  0  4 17 23 11 21
  23853674.653    16705114.442 3  13016970.026 1
  22015574.221   -10097821.866 4  -7868403.575 3
  24130664.891   -10068108.058 3  -7845269.850 2
  22231453.272   -14398928.275 4 -11219911.486 2
 91  7 27  4  7 30.0040000  0  4 17 23 11 21
  23862750.546    16752824.003 3  13054146.277 1
  22020897.654   -10069844.446 4  -7846602.992 3
  24123078.339   -10107980.374 3  -7876339.172 1
  22228362.420   -14415163.154 4 -11232562.020 2
 91  7 27  4  7 45.0040000  0  4 17 23 11 21
  23871840.260    16800585.984 3  13091363.394 1
  22026232.465   -10041799.743 4  -7824749.982 3
  24115501.071   -10147781.965 3  -7907353.380 1
  22225287.447   -14431319.976 4 -11245151.728 2
 91  7 27  4  8  0.0040000  0  4 17 23 11 21
  23880938.664    16848398.789 3  13128620.083 1
  22031584.062   -10013689.609 4  -7802845.977 3
  24107943.312   -10187513.871 3  -7938313.279 2
  22222229.576   -14447400.129 4 -11257681.687 2
 91  7 27  4  8 15.0040000  0  4 17 23 11 21
  23890045.758    16896264.116 3  13165917.737 1
  22036947.352    -9985512.469 4  -7780889.758 3
  24100391.835   -10227174.106 3  -7969217.350 1
  22219181.267   -14463402.100 4 -11270150.729 2
 91  7 27  4  8 30.0040000  0  4 17 23 11 21
  23899166.045    16944181.582 3  13203255.990 1
  22042320.204    -9957268.505 4  -7758881.488 3
  24092856.272   -10266762.340 3  -8000065.276 2
  22216150.094   -14479325.984 4 -11282558.926 2
 91  7 27  4  8 45.0040000  0  4 17 23 11 21
  23908292.334    16992148.911 3  13240633.102 1
  22047706.598    -9928960.377 4  -7736823.203 3
  24085341.964   -10306280.583 3  -8030858.691 2
  22213137.768   -14495174.314 4 -11294908.258 2
 91  7 27  4  9  0.0040000  0  4 17 23 11 21
  23917428.814    17040166.814 3  13278049.632 1
  22053108.836    -9900587.344 4  -7714714.341 3
  24077834.252   -10345727.488 3  -8061596.532 1
  22210134.132   -14510946.092 4 -11307197.932 2
 91  7 27  4  9 15.0040000  0  4 17 23 11 21
  23926572.763    17088236.158 3  13315506.255 2
  22058519.521    -9872148.567 4  -7692554.255 3
  24070340.640   -10385101.729 3  -8092277.733 1
  22207147.911   -14526640.135 4 -11319427.026 2
 91  7 27  4  9 30.0040000  0  4 17 23 11 21
  23935738.037    17136356.642 3  13353002.718 1
  22063941.268    -9843644.442 4  -7670343.245 3
  24062862.628   -10424403.228 3  -8122902.260 1
  22204176.977   -14542256.697 4 -11331595.755 2
 91  7 27  4  9 45.0040000  0  4 17 23 11 21
  23944903.275    17184527.371 3  13390538.331 1
  22069379.803    -9815076.417 4  -7648082.453 3
  24055397.495   -10463632.768 3  -8153470.708 1
  22201220.700   -14557797.023 4 -11343705.077 2
 91  7 27  4 10  0.0040000  0  4 17 23 11 21
  23954074.237    17232749.493 3  13428113.969 1
  22074827.307    -9786443.242 4  -7625770.881 3
  24047949.149   -10502788.542 3  -8183981.674 1
  22198277.965   -14573259.725 4 -11355753.910 2
 91  7 27  4 10 15.0040000  0  4 17 23 11 21
  23963262.893    17281021.807 3  13465728.771 1
  22080286.538    -9757746.133 4  -7603409.504 3
  24040509.807   -10541871.114 3  -8214435.602 1
  22195348.981   -14588645.850 4 -11367743.074 2
 91  7 27  4 10 30.0040000  0  4 17 23 11 21
  23972459.018    17329343.547 3  13503382.071 1
  22085761.335    -9728986.012 4  -7580999.025 3
  24033085.751   -10580880.877 3  -8244832.811 1
  22192435.912   -14603956.051 4 -11379673.075 2
 91  7 27  4 10 45.0040000  0  4 17 23 11 21
  23981664.148    17377714.132 3  13541073.403 1
  22091246.950    -9700163.276 4  -7558539.744 3
  24025677.855   -10619817.690 3  -8275173.161 2
  22189538.408   -14619190.479 4 -11391544.048 2
 91  7 27  4 11  0.0040000  0  4 17 23 11 21
  23990876.746    17426134.275 3  13578803.364 1
  22096743.350    -9671277.211 4  -7536031.118 3
  24018282.592   -10658680.495 3  -8305455.860 2
  22186651.688   -14634348.410 4 -11403355.399 2
 91  7 27  4 11 15.0040000  0  4 17 23 11 21
  24000102.292    17474604.145 3  13616572.079 1
  22102252.035    -9642327.898 4  -7513473.217 3
  24010898.707   -10697468.626 3  -8335680.354 2
  22183781.476   -14649429.668 4 -11415107.011 2
 91  7 27  4 11 30.0040000  0  4 17 23 11 21
  24009330.177    17523123.010 3  13654378.998 1
  22107773.598    -9613316.243 4  -7490866.743 3
  24003534.610   -10736182.439 3  -8365846.919 2
  22180927.458   -14664434.976 4 -11426799.436 2
 91  7 27  4 11 45.0040000  0  4 17 23 11 21
  24018576.070    17571690.236 3  13692223.575 1
  22113304.793    -9584243.267 4  -7468212.464 3
  23996181.298   -10774822.283 3  -8395955.881 1
  22178085.446   -14679365.152 4 -11438433.319 2
 91  7 27  4 12  0.0040000  0  4 17 23 11 21
  24027827.687    17620306.780 3  13730106.583 2
  22118850.333    -9555107.560 4  -7445509.319 3
  23988839.363   -10813386.331 3  -8426005.780 1
  22175259.278   -14694218.713 4 -11450007.511 2
 91  7 27  4 12 15.0040000  0  4 17 23 11 21
  24037090.681    17668973.135 3  13768028.392 1
  22124404.598    -9525908.876 4  -7422757.105 3
  23981514.844   -10851873.898 3  -8455996.072 1
  22172446.024   -14708995.173 4 -11461521.612 2
 91  7 27  4 12 30.0040000  0  4 17 23 11 21
  24046356.642    17717687.915 3  13805987.933 1
  22129973.241    -9496648.964 4  -7399957.176 3
  23974209.205   -10890286.128 3  -8485927.658 2
  22169647.777   -14723696.067 4 -11472976.833 2
 91  7 27  4 12 45.0040000  0  4 17 23 11 21
  24055637.645    17766450.535 3  13843984.775 1
  22135554.763    -9467328.126 4  -7377109.774 3
  23966912.536   -10928622.630 3  -8515800.224 2
  22166866.596   -14738321.595 4 -11484373.332 2
 91  7 27  4 13  0.0040000  0  4 17 23 11 21
  24064922.801    17815260.848 3  13882018.785 1
  22141143.195    -9437946.640 4  -7354215.106 3
  23959636.005   -10966883.236 3  -8545613.673 1
  22164098.608   -14752872.090 4 -11495711.375 2
 91  7 27  4 13 15.0040000  0  4 17 23 11 21
  24074219.370    17864118.711 3  13920089.824 1
  22146746.914    -9408504.825 4  -7331273.441 3
  23952366.628   -11005067.737 3  -8575367.821 1
  22161342.904   -14767347.607 4 -11506990.992 2
 91  7 27  4 13 30.0040000  0  4 17 23 11 21
  24083527.316    17913023.673 3  13958197.584 1
  22152361.731    -9379003.282 4  -7308285.223 3
  23945115.539   -11043176.062 3  -8605062.604 1
  22158604.302   -14781748.390 4 -11518212.348 2
 91  7 27  4 13 45.0040000  0  4 17 23 11 21
  24092843.987    17961974.350 3  13996340.926 1
  22157984.052    -9349443.478 4  -7285251.603 3
  23937876.142   -11081209.089 3  -8634698.716 2
  22155878.020   -14796075.678 4 -11529376.456 2
 91  7 27  4 14  0.0040000  0  4 17 23 11 21
  24102168.406    18010970.973 3  14034520.097 1
  22163621.938    -9319825.108 4  -7262172.357 3
  23930654.160   -11119166.053 3  -8664275.549 2
  22153163.394   -14810329.146 4 -11540483.043 2
 91  7 27  4 14 15.0040000  0  4 17 23 11 21
  24111501.271    18060013.510 3  14072735.031 1
  22169267.327    -9290148.494 4  -7239047.724 3
  23923446.243   -11157046.579 3  -8693792.829 2
  22150466.149   -14824508.908 4 -11551532.194 2
 91  7 27  4 14 30.0040000  0  4 17 23 11 21
  24120840.977    18109104.853 2  14110988.033 1
  22174928.318    -9260410.797 4  -7215875.489 3
  23916254.519   -11194847.279 3  -8723247.903 2
  22147783.911   -14838611.896 4 -11562521.514 2
 91  7 27  4 14 45.0040000  0  4 17 23 11 21
  24130190.315    18158243.587 2  14149277.942 2
  22180597.091    -9230613.443 4  -7192656.774 3
  23909075.081   -11232569.114 3  -8752641.524 2
  22145112.457   -14852639.326 4 -11573451.963 2
 91  7 27  4 15  0.0040000  0  4 17 23 11 21
  24139551.624    18207428.491 3  14187603.829 1
  22186278.742    -9200757.746 4  -7169392.601 3
  23901910.336   -11270212.757 3  -8781974.224 2
  22142459.884   -14866592.291 4 -11584324.397 2
 91  7 27  4 15 15.0040000  0  4 17 23 11 21
  24148923.159    18256659.535 3  14225965.640 1
  22191970.933    -9170843.933 4  -7146083.138 3
  23894761.505   -11307777.758 3  -8811245.622 2
  22139816.630   -14880470.844 4 -11595138.839 2
 91  7 27  4 15 30.0040000  0  4 17 23 11 21
  24158296.159    18305935.665 2  14264362.624 1
  22197673.560    -9140872.930 4  -7122729.097 3
  23887629.147   -11345264.691 3  -8840456.201 1
  22137189.534   -14894276.081 4 -11605896.155 2
 91  7 27  4 15 45.0040000  0  4 17 23 11 21
  24167685.074    18355256.454 3  14302794.386 1
  22203389.413    -9110845.358 4  -7099330.999 3
  23880507.853   -11382673.639 3  -8869606.014 2
  22134577.446   -14908008.343 4 -11616596.604 2
 91  7 27  4 16  0.0040000  0  4 17 23 11 21
  24177076.049    18404621.837 3  14341260.882 1
  22209114.237    -9080761.007 4  -7075888.650 3
  23873407.569   -11420003.893 3  -8898694.523 2
  22131980.644   -14921667.372 4 -11627239.982 2
 91  7 27  4 16 15.0040000  0  4 17 23 11 21
  24186478.435    18454033.217 3  14379763.248 1
  22214846.598    -9050619.007 4  -7052401.370 3
  23866318.104   -11457254.039 3  -8927720.570 2
  22129389.252   -14935251.951 4 -11637825.347 2
 91  7 27  4 16 30.0040000  0  4 17 23 11 21
  24195893.735    18503490.054 3  14418301.007 1
  22220595.119    -9020419.845 4  -7028869.557 3
  23859246.298   -11494423.820 3  -8956684.025 1
  22126822.116   -14948762.309 4 -11648352.893 2
 91  7 27  4 16 45.0040000  0  4 17 23 11 21
  24205309.908    18552991.947 3  14456873.892 1
  22226350.515    -8990163.974 4  -7005293.553 3
  23852187.371   -11531513.156 3  -8985584.772 1
  22124261.890   -14962198.743 4 -11658822.825 2
 91  7 27  4 17  0.0040000  0  4 17 23 11 21
  24214738.679    18602537.408 3  14495480.732 2
  22232123.919    -8959852.907 4  -6981674.541 3
  23845146.453   -11568523.040 3  -9014423.641 2
  22121721.452   -14975562.775 4 -11669236.332 2
 91  7 27  4 17 15.0040000  0  4 17 23 11 21
  24224179.735    18652126.292 3  14534121.396 1
  22237903.327    -8929487.073 4  -6958012.847 3
  23838112.724   -11605453.417 3  -9043200.546 1
  22119193.893   -14988854.480 4 -11679593.487 2
 91  7 27  4 17 30.0040000  0  4 17 23 11 21
  24233622.921    18701757.725 3  14572795.210 1
  22243689.016    -8899067.298 4  -6934309.130 3
  23831105.973   -11642304.556 3  -9071915.690 2
  22116675.652   -15002074.553 4 -11689894.821 2
 91  7 27  4 17 45.0040000  0  4 17 23 11 21
  24243073.854    18751431.777 3  14611502.256 1
  22249489.399    -8868593.765 4  -6910563.513 3
  23824106.132   -11679075.971 3  -9100568.710 2
  22114175.664   -15015222.979 4 -11700140.341 3
 91  7 27  4 18  0.0040000  0  4 17 23 11 21
  24252532.326    18801148.135 3  14650242.273 1
  22255297.285    -8838066.752 4  -6886776.222 3
  23817125.731   -11715767.363 3  -9129159.378 2
  22111685.308   -15028299.708 4 -11710329.982 2
 91  7 27  4 18 15.0040000  0  4 17 23 11 21
  24262003.955    18850905.673 3  14689014.375 1
  22261117.456    -8807487.260 4  -6862948.046 3
  23810154.089   -11752379.225 3  -9157688.083 2
  22109210.204   -15041305.771 4 -11720464.566 2
 91  7 27  4 18 30.0040000  0  4 17 23 11 21
  24271484.309    18900705.444 3  14727819.336 1
  22266944.223    -8776854.470 4  -6839078.338 3
  23803206.076   -11788910.090 3  -9186153.678 1
  22106749.200   -15054240.195 4 -11730543.336 2
 91  7 27  4 18 45.0040000  0  4 17 23 11 21
  24280964.035    18950546.311 3  14766656.402 1
  22272785.684    -8746169.500 4  -6815167.974 2
  23796267.101   -11825360.796 3  -9214556.793 2
  22104301.702   -15067104.149 4 -11740567.161 2
 91  7 27  4 19  0.0040000  0  4 17 23 11 21
  24290453.359    19000430.555 3  14805527.230 1
  22278634.613    -8715430.349 4  -6791215.382 2
  23789349.975   -11861728.518 3  -9242895.239 1
  22101864.710   -15079895.086 4 -11750534.116 2
 91  7 27  4 19 15.0040000  0  4 17 23 11 21
  24299960.098    19050357.106 3  14844430.997 1
  22284493.453    -8684637.814 4  -6767221.199 3
  23782444.854   -11898013.756 3  -9271169.422 2
  22099449.285   -15092613.955 4 -11760444.903 3
 91  7 27  4 19 30.0040000  0  4 17 23 11 21
  24309466.802    19100325.645 3  14883367.523 1
  22290363.393    -8653792.609 4  -6743185.968 3
  23775551.145   -11934216.569 3  -9299379.378 2
  22097037.735   -15105261.158 4 -11770299.843 3
 91  7 27  4 19 45.0040000  0  4 17 23 11 21
  24318982.511    19150336.959 3  14922337.398 1
  22296243.243    -8622894.053 4  -6719109.177 3
  23768681.099   -11970335.579 3  -9327524.034 2
  22094644.787   -15117835.862 4 -11780098.297 3
 91  7 27  4 20  0.0040000  0  4 17 23 11 21
  24328503.943    19200392.405 3  14961341.589 1
  22302131.156    -8591940.673 4  -6694989.652 3
  23761822.745   -12006368.864 3  -9355601.893 2
  22092266.846   -15130336.480 4 -11789839.021 3
 91  7 27  4 20 15.0040000  0  4 17 23 11 21
  24338043.907    19250491.998 3  15000380.244 1
  22308034.076    -8560932.493 4  -6670827.432 3
  23754982.678   -12042315.786 3  -9383612.447 2
  22089905.971   -15142762.814 4 -11799521.860 3
 91  7 27  4 20 30.0040000  0  4 17 23 11 21
  24347585.407    19300634.742 3  15039452.479 1
  22313943.279    -8529870.692 4  -6646623.421 2
  23748160.585   -12078176.852 3  -9411556.093 2
  22087550.820   -15155115.706 4 -11809147.462 2
 91  7 27  4 20 45.0040000  0  4 17 23 11 21
  24357132.002    19350822.341 3  15078559.680 1
  22319866.266    -8498753.669 4  -6622376.389 3
  23741351.999   -12113950.146 3  -9439431.360 2
  22085217.830   -15167393.415 4 -11818714.500 3
 91  7 27  4 21  0.0040000  0  4 17 23 11 21
  24366690.882    19401055.864 2  15117702.641 1
  22325798.573    -8467580.349 4  -6598085.482 3
  23734562.608   -12149634.140 3  -9467237.026 2
  22082895.625   -15179594.937 4 -11828222.172 3
 91  7 27  4 21 15.0040000  0  4 17 23 11 21
  24376259.360    19451335.333 3  15156881.475 1
  22331742.570    -8436350.835 4  -6573750.796 2
  23727788.189   -12185228.160 3  -9494972.593 2
  22080588.113   -15191720.113 4 -11837670.335 2
 91  7 27  4 21 30.0040000  0  4 17 23 11 21
  24385833.841    19501660.521 2  15196095.860 1
  22337694.351    -8405065.467 4  -6549372.579 2
  23721029.371   -12220732.180 3  -9522638.026 2
  22078293.828   -15203769.275 4 -11847059.281 3
 91  7 27  4 21 45.0040000  0  4 17 23 11 21
  24395420.607    19552031.213 2  15235345.749 1
  22343656.602    -8373724.562 4  -6524951.094 3
  23714291.842   -12256145.858 4  -9550233.074 2
  22076015.702   -15215742.502 4 -11856389.042 2
 91  7 27  4 22  0.0040000  0  4 17 23 11 21
  24405015.155    19602447.540 2  15274631.168 1
  22349633.581    -8342328.030 4  -6500486.259 2
  23707571.972   -12291468.549 4  -9577757.224 1
  22073749.861   -15227639.536 4 -11865659.438 3
 91  7 27  4 22 15.0040000  0  4 17 23 11 21
  24414620.523    19652909.892 2  15313952.447 1
  22355616.527    -8310875.276 4  -6475977.609 2
  23700868.646   -12326699.230 3  -9605209.657 2
  22071501.715   -15239459.696 4 -11874869.938 3
 91  7 27  4 22 30.0040000  0  4 17 23 11 21
  24424230.951    19703419.790 2  15353310.808 1
  22361615.389    -8279365.117 4  -6451424.237 2
  23694177.255   -12361835.966 3  -9632588.892 2
  22069269.762   -15251201.519 4 -11884019.381 2
 91  7 27  4 22 45.0040000  0  4 17 23 11 21
  24433851.291    19753974.373 2  15392703.943 1
  22367620.811    -8247800.406 4  -6426828.365 2
  23687510.469   -12396881.119 4  -9659896.766 2
  22067050.688   -15262867.593 4 -11893109.808 3
 91  7 27  4 23  0.0040000  0  4 17 23 11 21
  24443481.822    19804573.276 2  15432131.643 1
  22373636.739    -8216181.463 4  -6402190.222 2
  23680859.877   -12431834.560 4  -9687133.171 2
  22064842.118   -15274458.237 4 -11902141.470 2
 91  7 27  4 23 15.0040000  0  4 17 23 11 21
  24453115.668    19855216.313 2  15471593.747 1
  22379665.894    -8184508.714 4  -6377510.150 2
  23674226.979   -12466696.107 4  -9714297.978 2
  22062653.337   -15285973.695 4 -11911114.536 2
 91  7 27  4 23 30.0040000  0  4 17 23 11 21
  24462760.892    19905904.659 2  15511091.094 1
  22385701.889    -8152780.958 4  -6352787.227 3
  23667607.239   -12501464.046 4  -9741389.832 2
  22060472.654   -15297412.644 4 -11920028.006 3
 91  7 27  4 23 45.0040000  0  4 17 23 11 21
  24472420.809    19956639.364 2  15550624.609 1
  22391752.613    -8120997.289 4  -6328020.725 2
  23661013.605   -12536136.884 4  -9768407.602 2
  22058315.039   -15308774.059 4 -11928881.012 2
 91  7 27  4 24  0.0040000  0  4 17 23 11 21
  24482083.693    20007419.252 2  15590193.344 2
  22397809.932    -8089158.690 4  -6303211.426 2
  23654431.069   -12570715.117 4  -9795351.644 2
  22056165.835   -15320058.774 4 -11937674.281 3
 91  7 27  4 24 15.0040000  0  4 17 23 11 21
  24491750.206    20058245.280 2  15629797.996 1
  22403877.408    -8057264.701 4  -6278358.963 3
  23647867.134   -12605197.630 3  -9822221.089 2
  22054032.825   -15331265.928 4 -11946407.120 2
 91  7 27  4 24 30.0040000  0  4 17 23 11 21
  24501435.321    20109116.730 2  15669438.079 1
  22409958.111    -8025315.890 4  -6253463.782 2
  23641322.360   -12639584.399 3  -9849015.934 2
  22051916.882   -15342395.973 4 -11955079.858 2
 91  7 27  4 24 45.0040000  0  4 17 23 11 21
  24511119.808    20160035.073 2  15709114.680 1
  22416047.190    -7993311.068 4  -6228524.953 2
  23634796.782   -12673873.740 3  -9875734.863 2
  22049813.223   -15353447.627 4 -11963691.510 2
 91  7 27  4 25  0.0040000  0  4 17 23 11 21
  24520823.176    20210998.714 3  15748826.590 1
  22422150.369    -7961251.757 4  -6203543.672 2
  23628292.457   -12708066.694 3  -9902378.690 2
  22047721.570   -15364422.448 4 -11972243.300 3
 91  7 27  4 25 15.0040000  0  4 17 23 11 21
  24530527.173    20262008.161 3  15788574.197 1
  22428261.330    -7929137.502 4  -6178519.583 3
  23621805.862   -12742162.044 3  -9928946.452 2
  22045650.613   -15375319.752 4 -11980734.692 3
 91  7 27  4 25 30.0040000  0  4 17 23 11 21
  24540240.452    20313064.242 2  15828358.146 1
  22434383.704    -7896967.470 4  -6153452.015 2
  23615336.927   -12776158.479 3  -9955437.144 2
  22043591.034   -15386138.423 4 -11989164.806 3
 91  7 27  4 25 45.0040000  0  4 17 23 11 21
  24549973.207    20364167.640 3  15868178.930 1
  22440514.768    -7864740.951 4  -6128340.440 2
  23608889.909   -12810054.829 3  -9981849.852 2
  22041547.962   -15396877.697 4 -11997533.041 2
 91  7 27  4 26  0.0040000  0  4 17 23 11 21
  24559700.865    20415318.283 3  15908036.575 1
  22446656.617    -7832457.870 4  -6103184.787 3
  23602456.363   -12843850.564 3 -10008184.147 2
  22039517.176   -15407537.484 4 -12005839.350 3
 91  7 27  4 26 15.0040000  0  4 17 23 11 21
  24569445.939    20466516.430 3  15947931.180 1
  22452811.029    -7800118.623 4  -6077985.368 2
  23596047.980   -12877545.405 4 -10034439.838 2
  22037503.455   -15418117.888 4 -12014083.801 3
 91  7 27  4 26 30.0040000  0  4 17 23 11 21
  24579197.889    20517762.712 3  15987863.347 1
  22458979.263    -7767722.285 4  -6052741.459 3
  23589655.232   -12911138.128 4 -10060615.957 2
  22035506.836   -15428618.013 4 -12022265.704 3
 91  7 27  4 26 45.0040000  0  4 17 23 11 21
  24588955.806    20569056.957 3  16027832.876 1
  22465151.684    -7735268.854 4  -6027453.074 3
  23583282.517   -12944627.975 4 -10086711.902 2
  22033524.911   -15439037.502 4 -12030384.756 2
 91  7 27  4 27  0.0040000  0  4 17 23 11 21
  24598729.638    20620399.606 2  16067840.127 1
  22471337.332    -7702758.349 4  -6002120.211 3
  23576926.939   -12978014.371 4 -10112727.260 2
  22031556.177   -15449376.198 4 -12038440.857 3
 91  7 27  4 27 15.0040000  0  4 17 23 11 21
  24608504.692    20671790.598 2  16107885.032 1
  22477535.231    -7670190.824 4  -5976742.910 2
  23570591.428   -13011296.755 4 -10138661.560 2
  22029604.824   -15459633.953 4 -12046433.903 3
 91  7 27  4 27 30.0040000  0  4 17 23 11 21
  24618294.404    20723229.960 2  16147967.653 1
  22483745.728    -7637566.443 4  -5951321.314 2
  23564277.485   -13044474.845 4 -10164514.578 2
  22027668.164   -15469810.823 4 -12054363.911 3
 91  7 27  4 27 45.0040000  0  4 17 23 11 21
  24628092.841    20774717.738 2  16188087.997 1
  22489963.415    -7604885.075 4  -5925855.312 2
  23557985.146   -13077548.080 4 -10190285.898 2
  22025747.104   -15479906.646 4 -12062230.770 2
 91  7 27  4 28  0.0040000  0  4 17 23 11 21
  24637902.934    20826251.864 2  16228244.419 1
  22496193.702    -7572148.797 4  -5900346.519 2
  23551711.374   -13110517.867 4 -10215976.620 2
  22023842.204   -15489923.320 4 -12070035.940 3
 91  7 27  4 28 15.0040000  0  4 17 23 11 21
  24647716.343    20877833.840 2  16268438.136 1
  22502432.085    -7539356.104 4  -5874793.763 2
  23545455.331   -13143382.251 4 -10241585.205 2
  22021951.123   -15499859.324 4 -12077778.256 3
 91  7 27  4 28 30.0040000  0  4 17 23 11 21
  24657537.535    20929462.951 2  16308668.637 1
  22508686.068    -7506507.830 4  -5849197.705 2
  23539220.543   -13176141.424 4 -10267111.832 2
  22020077.424   -15509715.169 4 -12085458.122 2
 91  7 27  4 28 45.0040000  0  4 17 23 11 21
  24667375.514    20981139.327 2  16348935.886 1
  22514944.833    -7473604.076 4  -5823558.416 2
  23533008.231   -13208794.940 3 -10292556.119 2
  22018212.100   -15519490.738 4 -12093075.430 2
 91  7 27  4 29  0.0040000  0  4 17 23 11 21
  24677218.903    21032863.832 2  16389240.720 1
  22521218.570    -7440644.081 4  -5797875.292 2
  23526814.520   -13241341.448 3 -10317916.989 2
  22016369.287   -15529185.177 4 -12100629.510 3
 91  7 27  4 29 15.0040000  0  4 17 23 11 21
  24687069.202    21084636.493 2  16429583.009 1
  22527503.127    -7407627.475 4  -5772148.063 2
  23520644.786   -13273780.199 4 -10343193.920 2
  22014538.166   -15538798.225 4 -12108120.178 3
 91  7 27  4 29 30.0040000  0  4 17 23 11 21
  24696932.658    21136456.815 2  16469962.476 1
  22533795.780    -7374554.926 4  -5746377.246 2
  23514490.967   -13306111.184 4 -10368386.874 2
  22012727.113   -15548330.117 4 -12115547.604 3
 91  7 27  4 29 45.0040000  0  4 17 23 11 21
  24706796.150    21188324.994 2  16510379.186 1
  22540099.496    -7341426.227 4  -5720562.670 2
  23508357.809   -13338333.734 4 -10393495.341 2
  22010925.343   -15557780.641 4 -12122911.621 3
 91  7 27  4 30  0.0040000  0  4 17 23 11 21
  24716678.801    21240240.363 2  16550832.738 1
  22546414.346    -7308242.357 4  -5694705.098 2
  23502248.941   -13370448.394 4 -10418519.741 2
  22009146.084   -15567150.606 4 -12130212.876 3
 91  7 27  4 30 15.0040000  0  4 17 23 11 21
  24726564.768    21292164.437 2  16591293.029 1
  22552730.976    -7275041.602 4  -5668834.387 2
  23496149.043   -13402492.710 4 -10443489.309 2
  22007366.511   -15576478.087 4 -12137481.023 3
 91  7 27  4 30 30.0040000  0  4 17 23 11 21
  24736447.106    21344137.767 2  16631791.699 1
  22559059.577    -7241783.748 4  -5642919.176 2
  23490072.249   -13434426.088 4 -10468372.440 2
  22005610.042   -15585722.902 4 -12144684.751 2
 91  7 27  4 30 45.0040000  0  4 17 23 11 21
  24746348.674    21396157.544 2  16672326.565 1
  22565400.811    -7208471.542 4  -5616961.603 2
  23484013.464   -13466250.554 4 -10493170.717 2
  22003867.323   -15594887.377 4 -12151825.888 2
 91  7 27  4 31  0.0040000  0  4 17 23 11 21
  24756253.208    21448225.243 2  16712898.752 1
  22571748.293    -7175103.502 4  -5590960.529 2
  23477977.747   -13497964.147 3 -10517882.600 2
  22002137.832   -15603969.869 4 -12158903.123 3
 91  7 27  4 31 15.0040000  0  4 17 23 11 21
  24766174.843    21500342.448 2  16753509.544 1
  22578111.096    -7141678.169 4  -5564914.814 2
  23471969.288   -13529564.941 4 -10542506.569 2
  22000425.128   -15612968.901 4 -12165915.336 3
 91  7 27  4 31 30.0040000  0  4 17 23 11 21
  24776100.667    21552508.422 2  16794158.317 1
  22584480.775    -7108196.223 4  -5538824.978 2
  23465976.430   -13561053.169 4 -10567042.846 2
  21998731.305   -15621885.158 4 -12172863.057 2
 91  7 27  4 31 45.0040000  0  4 17 23 11 21
  24786034.901    21604722.721 2  16834844.783 1
  22590863.366    -7074658.175 4  -5512691.431 2
  23460010.864   -13592428.808 4 -10591491.375 2
  21997045.579   -15630718.925 4 -12179746.485 3
 91  7 27  4 32  0.0040000  0  4 17 23 11 21
  24795979.606    21656985.879 2  16875569.252 1
  22597254.962    -7041063.620 4  -5486513.856 2
  23454046.519   -13623690.722 4 -10615851.303 2
  21995388.018   -15639469.599 4 -12186565.171 3
 91  7 27  4 32 15.0040000  0  4 17 23 11 21
  24805936.909    21709297.585 2  16916331.631 1
  22603659.123    -7007412.928 4  -5460292.532 2
  23448128.312   -13654838.863 4 -10640122.559 2
  21993734.645   -15648137.478 4 -12193319.341 2
 91  7 27  4 32 30.0040000  0  4 17 23 11 21
  24815907.999    21761677.794 2  16957147.337 1
  22610077.382    -6973685.927 4  -5434011.749 2
  23442229.580   -13685852.667 4 -10664289.146 2
  21992103.782   -15656702.451 4 -12199993.332 3
 91  7 27  4 32 45.0040000  0  4 17 23 11 21
  24825886.312    21814123.210 2  16998013.875 1
  22616508.521    -6939886.314 4  -5407674.389 2
  23436352.452   -13716735.109 4 -10688353.377 2
  21990492.115   -15665167.790 4 -12206589.671 3
 91  7 27  4 33  0.0040000  0  4 17 23 11 21
  24835878.063    21866616.467 2  17038917.700 1
  22622951.350    -6906031.414 4  -5381293.945 2
  23430496.019   -13747503.061 4 -10712328.396 2
  21988899.015   -15673550.665 4 -12213121.765 2
 91  7 27  4 33 15.0040000  0  4 17 23 11 21
  24845872.570    21919156.919 2  17079858.283 1
  22629404.092    -6872121.771 4  -5354870.848 2
  23424660.247   -13778156.551 4 -10736214.224 2
  21987318.479   -15681851.558 4 -12219589.982 3
 91  7 27  4 33 30.0040000  0  4 17 23 11 21
  24855883.830    21971744.974 3  17120835.988 1
  22635868.211    -6838157.404 4  -5328405.109 2
  23418853.269   -13808694.784 4 -10760010.224 2
  21985750.577   -15690070.124 4 -12225994.042 3
 91  7 27  4 33 45.0040000  0  5 17 23 11 21 12
  24865896.311    22024379.944 3  17161850.200 1
  22642341.334    -6804138.760 4  -5301897.076 2
  23413060.669   -13839117.870 4 -10783716.523 2
  21984204.837   -15698206.961 4 -12232334.422 2
  25861996.899           0.564 2         0.051 1
 91  7 27  4 34  0.0040000  0  5 17 23 11 21 12
  24875918.948    22077061.352 2  17202900.619 1
  22648824.928    -6770066.170 4  -5275347.010 2
  23407297.769   -13869425.681 4 -10807332.996 2
  21982670.509   -15706262.256 4 -12238611.248 2
  25857026.659      -26127.299 2    -20359.273 1
 91  7 27  4 34 15.0040000  0  5 17 23 11 21 12
  24885955.720    22129790.036 3  17243987.920 1
  22655319.934    -6735939.047 4  -5248754.441 2
  23401546.841   -13899616.979 4 -10830858.663 2
  21981155.969   -15714235.197 4 -12244823.910 3
  25852057.884      -52154.732 2    -40640.255
 91  7 27  4 34 30.0040000  0  5 17 23 11 21 12
  24895996.959    22182566.799 3  17285112.665 1
  22661823.944    -6701756.641 4  -5222118.807 2
  23395829.207   -13929690.529 4 -10854292.599 2
  21979652.214   -15722124.921 4 -12250971.738 3
  25847129.593      -78080.423 2    -60842.335 1
 91  7 27  4 34 45.0040000  0  5 17 23 11 21 12
  24906050.204    22235389.772 2  17326273.360 1
  22668336.644    -6667520.719 4  -5195441.467 3
  23390125.045   -13959647.656 4 -10877635.812 2
  21978170.342   -15729933.325 4 -12257056.190 3
  25842226.815     -103905.681 2    -80966.123 1
 91  7 27  4 35  0.0040000  0  5 17 23 11 21 12
  24916107.952    22288261.218 2  17367471.885 1
  22674862.817    -6633229.359 4  -5168720.917 2
  23384446.988   -13989485.877 4 -10900886.362 2
  21976702.534   -15737658.035 4 -12263075.423 2
  25837328.504     -129627.846 2   -101009.337 1
 91  7 27  4 35 15.0040000  0  5 17 23 11 21 12
  24926182.172    22341179.927 2  17408707.182 1
  22681399.808    -6598883.526 4  -5141957.944 2
  23378792.315   -14019205.607 4 -10924044.579 2
  21975241.044   -15745299.892 4 -12269030.099 3
  25832452.075     -155247.297 2   -120972.549 1
 91  7 27  4 35 30.0040000  0  5 17 23 11 21 12
  24936264.768    22394146.006 2  17449979.438 1
  22687945.768    -6564483.368 4  -5115152.625 2
  23373160.397   -14048806.505 4 -10947110.185 2
  21973805.344   -15752858.946 4 -12274920.260 3
  25827599.624     -180763.657 2   -140855.386 1
 91  7 27  4 35 45.0040000  0  5 17 23 11 21 12
  24946348.586    22447158.631 2  17491287.939 1
  22694504.014    -6530029.416 4  -5088305.391 2
  23367549.489   -14078288.620 4 -10970083.265 2
  21972385.246   -15760335.731 4 -12280746.311 2
  25822760.364     -206176.983 2   -160657.982 1
 91  7 27  4 36  0.0040000  0  5 17 23 11 21 12
  24956448.597    22500218.452 2  17532633.257 1
  22701066.761    -6495521.285 4  -5061415.938 2
  23361963.151   -14107650.967 4 -10992963.004 2
  21970975.303   -15767729.821 4 -12286507.919 3
  25817948.990     -231486.368 2   -180379.482 1
 91  7 27  4 36 15.0040000  0  5 17 23 11 21 12
  24966550.109    22553325.154 2  17574015.047 1
  22707646.331    -6460959.368 4  -5034484.568 2
  23356398.416   -14136893.446 4 -11015749.343 2
  21969582.182   -15775041.365 4 -12292205.204 3
  25813144.526     -256691.693 2   -200019.936 1
 91  7 27  4 36 30.0040000  0  5 17 23 11 21 12
  24976669.002    22606479.030 2  17615433.609 1
  22714235.149    -6426343.376 4  -5007511.083 2
  23350854.935   -14166015.234 4 -11038441.620 2
  21968210.316   -15782269.831 4 -12297837.768 3
  25808370.321     -281792.034 2   -219578.649 1
 91  7 27  4 36 45.0040000  0  5 17 23 11 21 12
  24986788.209    22659682.951 2  17656891.212 1
  22720828.505    -6391670.563 4  -4980493.296 2
  23345338.154   -14195012.918 4 -11061037.197 2
  21966851.049   -15789412.298 4 -12303403.307 3
  25803622.222     -306784.025 2   -239052.863 1
 91  7 27  4 37  0.0040000  0  5 17 23 11 21 12
  24996926.576    22712932.412 2  17698384.277 1
  22727438.612    -6356945.424 4  -4953434.748 2
  23339842.347   -14223890.630 4 -11083539.299 2
  21965506.510   -15796473.283 4 -12308905.358 3
  25798880.997     -331671.648 2   -258445.715 1
 91  7 27  4 37 15.0040000  0  5 17 23 11 21 12
  25007061.976    22766227.646 2  17739912.992 1
  22734056.224    -6322167.711 4  -4926335.240 2
  23334369.052   -14252647.588 4 -11105947.299 2
  21964176.314   -15803452.353 4 -12314343.574 2
  25794156.281     -356454.132 2   -277756.767 1
 91  7 27  4 37 30.0040000  0  5 17 23 11 21 12
  25017210.849    22819567.244 2  17781476.312 1
  22740683.747    -6287338.794 4  -4899195.829 2
  23328925.107   -14281284.593 4 -11128261.812 2
  21962864.128   -15810350.708 4 -12319718.900 3
  25789459.730     -381132.367 2   -296986.662 1
 91  7 27  4 37 45.0040000  0  5 17 23 11 21 12
  25027375.007    22872951.598 2  17823074.480 1
  22747322.368    -6252458.581 4  -4872016.444 2
  23323496.484   -14309801.097 4 -11150482.450 2
  21961565.413   -15817168.054 4 -12325031.106 3
  25784793.472     -405705.653 2   -316134.557 1
 91  7 27  4 38  0.0040000  0  5 17 23 11 21 12
  25037544.261    22926380.663 2  17864707.477 1
  22753969.644    -6217526.897 4  -4844796.955 2
  23318092.710   -14338196.414 4 -11172608.648 2
  21960284.427   -15823904.276 4 -12330280.095 3
  25780143.093     -430173.385 2   -335200.237
 91  7 27  4 38 15.0040000  0  5 17 23 11 21 12
  25047717.738    22979853.891 2  17906374.926 1
  22760627.740    -6182544.441 4  -4817537.902 2
  23312713.541   -14366470.708 4 -11194640.538 2
  21959020.787   -15830559.812 4 -12335466.209 3
  25775501.684     -454535.617 2   -354183.765 1
 91  7 27  4 38 30.0040000  0  5 17 23 11 21 12
  25057903.465    23033372.339 2  17948077.569 1
  22767293.339    -6147510.161 4  -4790238.463 2
  23307354.439   -14394622.541 4 -11216577.004 2
  21957767.652   -15837133.543 4 -12340588.580 3
  25770880.099     -478790.840 2   -373083.866 1
 91  7 27  4 38 45.0040000  0  5 17 23 11 21 12
  25068093.729    23086935.241 2  17989814.887 1
  22773969.723    -6112424.667 4  -4762899.110 2
  23302018.442   -14422651.876 4 -11238418.021 2
  21956532.212   -15843625.969 4 -12345647.608 3
  25766284.863     -502939.034 2   -391900.643 1
 91  7 27  4 39  0.0040000  0  5 17 23 11 21 12
  25078295.650    23140543.623 2  18031587.577 1
  22780657.170    -6077287.294 4  -4735519.338 2
  23296709.423   -14450557.352 4 -11260162.515 2
  21955315.059   -15850036.155 4 -12350642.540 3
  25761720.235     -526978.904 2   -410632.978 1
 91  7 27  4 39 15.0040000  0  5 17 23 11 21 12
  25088500.607    23194196.460 2  18073395.052 1
  22787351.841    -6042098.974 4  -4708099.869 2
  23291422.600   -14478339.646 4 -11281811.032 2
  21954110.191   -15856365.081 4 -12355574.159 3
  25757165.484     -550911.016 2   -429281.323 1
 91  7 27  4 39 30.0040000  0  5 17 23 11 21 12
  25098727.726    23247893.340 2  18115236.738 1
  22794059.111    -6006860.254 4  -4680641.119 2
  23286157.346   -14505998.613 4 -11303363.445 2
  21952918.795   -15862613.081 4 -12360442.711 3
  25752626.927     -574735.290 2   -447845.681 1
 91  7 27  4 39 45.0040000  0  5 17 23 11 21 12
  25108946.748    23301634.882 2  18157113.219 1
  22800774.444    -5971570.241 4  -4653142.414 2
  23280917.569   -14533533.085 4 -11324818.855 2
  21951744.814   -15868779.207 4 -12365247.471 3
  25748115.662     -598450.447 2   -466324.977 1
 91  7 27  4 40  0.0040000  0  5 17 23 11 21 12
  25119187.932    23355419.837 2  18199023.579 1
  22807497.908    -5936230.350 4  -4625604.840 2
  23275705.677   -14560943.867 4 -11346177.876 2
  21950590.029   -15874864.697 4 -12369989.405 3
  25743624.743     -622057.290 2   -484719.950 1
 91  7 27  4 40 15.0040000  0  5 17 23 11 21 12
  25129423.462    23409247.426 2  18240967.075 1
  22814233.029    -5900841.296 4  -4598028.934 2
  23270509.945   -14588231.225 4 -11367440.723 2
  21949444.526   -15880870.254 4 -12374669.043 3
  25739147.960     -645556.018 2   -503030.468 1
 91  7 27  4 40 30.0040000  0  5 17 23 11 21 12
  25139676.058    23463118.023 2  18282944.177 1
  22820974.781    -5865402.752 4  -4570414.494 2
  23265343.633   -14615394.312 4 -11388606.732 2
  21948317.591   -15886795.436 4 -12379286.050 3
  25734693.931     -668945.829 2   -521256.392 1
 91  7 27  4 40 45.0040000  0  5 17 23 11 21 12
  25149932.563    23517031.865 2  18324954.912 1
  22827729.097    -5829914.741 4  -4542761.499 2
  23260197.390   -14642432.617 4 -11409675.524 2
  21947204.756   -15892639.977 4 -12383840.224 3
  25730274.699     -692226.067 2   -539396.812 1
 91  7 27  4 41  0.0040000  0  5 17 23 11 21 12
  25160211.265    23570987.857 2  18366998.564 1
  22834492.418    -5794378.371 4  -4515070.811 2
  23255072.749   -14669346.543 4 -11430647.382 2
  21946109.336   -15898404.848 4 -12388332.319 3
  25725858.747     -715397.282 2   -557452.215 1
 91  7 27  4 41 15.0040000  0  5 17 23 11 21 12
  25170479.427    23624986.299 2  18409075.241 1
  22841261.113    -5758793.167 4  -4487342.080 2
  23249974.494   -14696135.243 4 -11451521.666 2
  21945029.168   -15904089.646 4 -12392762.018 3
  25721470.401     -738458.621 2   -575422.072 1
 91  7 27  4 41 30.0040000  0  5 17 23 11 21 12
  25180769.820    23679026.074 2  18451184.144 1
  22848042.721    -5723160.145 4  -4459576.078 2
  23244905.275   -14722799.225 4 -11472298.773 2
  21943960.097   -15909695.186 4 -12397129.952 3
  25717100.308     -761410.507 2   -593306.630 1
 91  7 27  4 41 45.0040000  0  5 17 23 11 21 12
  25191057.491    23733108.061 2  18493325.931 1
  22854834.241    -5687478.479 4  -4431772.187 2
  23239851.099   -14749337.363 4 -11492977.799 2
  21942908.129   -15915220.648 4 -12401435.489 3
  25712757.228     -784251.676 2   -611104.897 1
 91  7 27  4 42  0.0040000  0  5 17 23 11 21 12
  25201356.575    23787232.241 2  18535500.613 1
  22861632.916    -5651748.576 4  -4403930.701 2
  23234830.462   -14775749.285 4 -11513558.497 2
  21941871.167   -15920666.148 4 -12405678.718 3
  25708427.340     -806981.933 2   -628816.743 1
 91  7 27  4 42 15.0040000  0  5 17 23 11 21 12
  25211665.221    23841398.692 2  18577708.174 1
  22868441.223    -5615970.319 4  -4376051.540 2
  23229826.333   -14802034.502 4 -11534040.450 2
  21940847.363   -15926031.385 4 -12409859.412 3
  25704124.710     -829600.571 2   -646441.617 1
 91  7 27  4 42 30.0040000  0  5 17 23 11 21 12
  25221975.996    23895606.896 2  18619948.312 1
  22875258.779    -5580144.220 4  -4348135.075 2
  23224849.182   -14828193.057 4 -11554423.713 2
  21939844.568   -15931316.858 4 -12413977.939 3
  25699849.057     -852107.643 2   -663979.585 1
 91  7 27  4 42 45.0040000  0  5 17 23 11 21 12
  25232300.836    23949856.183 2  18662220.468 1
  22882085.374    -5544270.882 4  -4320181.840 2
  23219895.693   -14854224.902 4 -11574708.246 2
  21938853.152   -15936522.892 4 -12418034.569 3
  25695583.910     -874503.181 2   -681430.649 1
 91  7 27  4 43  0.0040000  0  5 17 23 11 21 12
  25242634.681    24004146.701 2  18704524.745 1
  22888920.031    -5508350.150 4  -4292191.651 2
  23214965.902   -14880129.379 4 -11594893.523 2
  21937875.835   -15941649.249 4 -12422029.125 3
  25691346.648     -896786.448 2   -698794.243 1
 91  7 27  4 43 15.0040000  0  5 17 23 11 21 12
  25252970.933    24058479.167 2  18746861.733 1
  22895766.379    -5472381.560 4  -4264164.181 2
  23210061.902   -14905905.570 4 -11614978.841 2
  21936916.177   -15946695.460 4 -12425961.221 3
  25687124.359     -918956.590 2   -716069.638 1
 91  7 27  4 43 30.0040000  0  5 17 23 11 21 12
  25263322.472    24112853.157 2  18789231.043 1
  22902617.544    -5436365.480 4  -4236099.694 2
  23205173.503   -14931553.667 4 -11634964.341 2
  21935976.623   -15951662.016 4 -12429831.250 3
  25682924.266     -941013.699 2   -733256.898 1
 91  7 27  4 43 45.0040000  0  5 17 23 11 21 12
  25273677.292    24167268.742 2  18831632.762 1
  22909483.681    -5400301.640 4  -4207997.991 2
  23200320.458   -14957072.637 4 -11654849.219 2
  21935042.792   -15956548.281 4 -12433638.712 3
  25678746.090     -962956.621 2   -750355.295 1
 91  7 27  4 44  0.0040000  0  5 17 23 11 21 12
  25284033.333    24221715.961 2  18874059.168 1
  22916352.855    -5364200.082 4  -4179866.902 2
  23195490.202   -14982471.977 4 -11674640.888 2
  21934130.809   -15961364.124 4 -12437391.295 3
  25674592.764     -984794.984 2   -767372.162 1
 91  7 27  4 44 15.0040000  0  5 17 23 11 21 12
  25294400.438    24276176.338 2  18916495.793 1
  22923225.867    -5328079.521 4  -4151721.003 2
  23190676.141   -15007769.811 4 -11694353.468 2
  21933222.141   -15966127.982 4 -12441103.380 3
  25670455.911    -1006546.839 2   -784321.636 1
 91  7 27  4 44 30.0040000  0  5 17 23 11 21 12
  25304769.078    24330679.094 2  18958965.442 1
  22930107.605    -5291910.657 4  -4123537.468 2
  23185887.243   -15032936.470 4 -11713963.830 2
  21932331.168   -15970810.628 4 -12444752.182 3
  25666345.163    -1028182.569 2   -801180.572 1
 91  7 27  4 44 45.0040000  0  5 17 23 11 21 12
  25315145.780    24385225.055 2  19001468.757 1
  22937001.349    -5255692.770 4  -4095315.735 2
  23181125.044   -15057970.714 4 -11733470.999 2
  21931451.572   -15975411.107 4 -12448336.941 3
  25662246.107    -1049700.804 2   -817947.973 1
 91  7 27  4 45  0.0040000  0  5 17 23 11 21 12
  25325539.304    24439815.710 2  19044006.896 1
  22943900.781    -5219424.321 4  -4067054.609 2
  23176386.227   -15082870.572 4 -11752873.462 2
  21930596.267   -15979927.840 4 -12451856.457 3
  25658162.930    -1071099.606 2   -834622.336 1
 91  7 27  4 45 15.0040000  0  5 17 23 11 21 12
  25335931.607    24494449.157 2  19086578.398 1
  22950809.496    -5183106.984 4  -4038755.379 2
  23171673.168   -15107637.340 4 -11772172.222 2
  21929749.966   -15984362.600 4 -12455312.105 3
  25654124.706    -1092380.211 2   -851204.583 1
 91  7 27  4 45 30.0040000  0  5 17 23 11 21 12
  25346339.510    24549125.850 2  19129183.617 1
  22957734.685    -5146740.295 4  -4010417.701 2
  23166982.619   -15132270.046 4 -11791366.520 2
  21928923.733   -15988714.835 4 -12458703.443 3
  25650094.613    -1113541.644 2   -867693.970 1
 91  7 27  4 45 45.0040000  0  5 17 23 11 21 12
  25356754.882    24603845.526 2  19171822.259 1
  22964660.502    -5110324.606 4  -3982041.838 2
  23162319.677   -15156768.597 4 -11810456.278 2
  21928108.599   -15992984.715 4 -12462030.604 3
  25646092.964    -1134583.846 2   -884090.482 1
 91  7 27  4 46  0.0050000  0  5 17 23 11 21 12
  25367175.963    24658609.992 2  19214495.847 1
  22971600.684    -5073859.616 4  -3953627.548 2
  23157685.164   -15181136.090 4 -11829443.909 2
  21927313.553   -15997174.274 4 -12465295.164 3
  25642106.622    -1155509.637 2   -900396.254 1
 91  7 27  4 46 15.0050000  0  5 17 23 11 21 12
  25377598.839    24713412.019 2  19257198.715 1
  22978547.476    -5037350.061 4  -3925178.548 2
  23153073.769   -15205368.708 4 -11848326.441 2
  21926530.771   -16001282.843 4 -12468496.636 3
  25638152.088    -1176315.584 2   -916608.668 1
 91  7 27  4 46 30.0050000  0  5 17 23 11 21 12
  25388040.630    24768255.761 2  19299934.068 1
  22985506.274    -5000792.847 4  -3896692.411 2
  23148489.039   -15229466.996 4 -11867104.325 2
  21925762.996   -16005309.981 4 -12471634.653 3
  25634216.994    -1197002.047 2   -932727.922 1
 91  7 27  4 46 45.0050000  0  5 17 23 11 21 12
  25398490.798    24823175.952 2  19342728.973 1
  22992479.450    -4964153.411 4  -3868142.201 2
  23143934.288   -15253395.896 4 -11885750.196 2
  21925018.919   -16009221.039 4 -12474682.205 3
  25630305.004    -1217533.887 2   -948726.743 1
 91  7 27  4 47  0.0050000  0  5 17 23 11 21 12
  25408947.247    24878142.563 2  19385560.078 1
  22999459.189    -4927461.772 4  -3839551.314 2
  23139407.422   -15277184.852 4 -11904287.037 2
  21924293.723   -16013045.985 4 -12477662.677 3
  25626421.493    -1237940.688 2   -964628.121 1
 91  7 27  4 47 15.0050000  0  5 17 23 11 21 12
  25419417.204    24933149.805 2  19428422.827 1
  23006453.655    -4890723.601 4  -3810924.164 2
  23134905.126   -15300839.086 4 -11922718.892 2
  21923579.625   -16016790.304 4 -12480580.313 3
  25622560.179    -1258227.606 2   -980436.081 1
 91  7 27  4 47 30.0050000  0  5 17 23 11 21 12
  25429893.756    24988197.893 2  19471317.391 1
  23013452.309    -4853938.664 4  -3782260.595 2
  23130429.250   -15324357.849 4 -11941045.177 2
  21922885.002   -16020453.527 4 -12483434.759 3
  25618721.620    -1278393.798 2   -996149.948 1
 91  7 27  4 47 45.0050000  0  5 17 23 11 21 12
  25440371.181    25043288.431 2  19514245.084 1
  23020460.560    -4817105.663 4  -3753559.544 2
  23125979.130   -15347739.356 4 -11959264.516 2
  21922203.571   -16024034.248 4 -12486224.911 3
  25614902.884    -1298437.371 2  -1011768.281 1
 91  7 27  4 48  0.0050000  0  5 17 23 11 21 12
  25450864.241    25098420.696 2  19557205.221 1
  23027478.410    -4780225.489 4  -3724821.743 2
  23121556.268   -15370984.048 4 -11977377.259 2
  21921534.739   -16027533.164 4 -12488951.322 3
  25611124.598    -1318358.770 2  -1027291.456 1
 91  7 27  4 48 15.0050000  0  5 17 23 11 21 12
  25461368.958    25153593.904 2  19600197.327 1
  23034505.857    -4743298.422 4  -3696047.395 2
  23117161.326   -15394091.913 4 -11995383.377 2
  21920884.474   -16030950.794 4 -12491614.393 3
  25607354.688    -1338158.112 2  -1042719.463 1
 91  7 27  4 48 30.0050000  0  5 17 23 11 21 12
  25471867.707    25208808.461 2  19643221.650 1
  23041545.275    -4706324.232 4  -3667236.340 2
  23112790.046   -15417062.052 4 -12013282.159 2
  21920250.437   -16034286.473 4 -12494213.625 3
  25603609.975    -1357834.260 2  -1058051.510 1
 91  7 27  4 48 45.0050000  0  5 17 23 11 21 12
  25482390.398    25264064.394 2  19686278.206 1
  23048588.008    -4669302.833 4  -3638388.502 2
  23108443.651   -15439893.925 4 -12031073.217 2
  21919629.559   -16037540.171 4 -12496748.961 3
  25599892.870    -1377386.801 2  -1073287.246 1
 91  7 27  4 49  0.0050000  0  5 17 23 11 21 12
  25492910.715    25319360.952 2  19729366.378 1
  23055640.897    -4632235.039 4  -3609504.514 2
  23104123.954   -15462588.029 4 -12048756.925 2
  21919030.563   -16040712.765 4 -12499221.074 3
  25596178.137    -1396816.223 2  -1088426.994 1
 91  7 27  4 49 15.0050000  0  5 17 23 11 21 12
  25503442.131    25374698.722 2  19772486.697 1
  23062703.419    -4595120.465 4  -3580584.062 2
  23099837.203   -15485143.369 4 -12066332.501 2
  21918439.977   -16043803.534 4 -12501629.458 3
  25592519.455    -1416121.500 2  -1103470.058 1
 91  7 27  4 49 30.0050000  0  5 17 23 11 21 12
  25513976.548    25430076.306 2  19815638.044 1
  23069773.131    -4557960.272 4  -3551628.064 2
  23095565.460   -15507560.701 4 -12083800.547 2
  21917867.366   -16046813.702 4 -12503975.037 3
  25588864.402    -1435303.434 2  -1118416.977 1
 91  7 27  4 49 45.0050000  0  5 17 23 11 21 12
  25524525.030    25485493.909 2  19858820.615 1
  23076855.720    -4520754.317 4  -3522636.406 2
  23091333.294   -15529839.394 4 -12101160.555 2
  21917307.668   -16049742.962 4 -12506257.542 3
  25585235.420    -1454361.467 2  -1133267.401 1
 91  7 27  4 50  0.0050000  0  5 17 23 11 21 12
  25535075.921    25540950.997 2  19902033.880 1
  23083944.313    -4483503.138 4  -3493609.509 2
  23087117.635   -15551979.456 4 -12118412.532 2
  21916770.445   -16052591.655 4 -12508477.286 3
  25581635.195    -1473295.519 2  -1148021.160 1
 91  7 27  4 50 15.0050000  0  5 17 23 11 21 12
  25545639.131    25596446.363 2  19945277.016 1
  23091040.095    -4446207.860 4  -3464548.252 2
  23082929.827   -15573981.708 4 -12135557.134 2
  21916238.598   -16055360.905 4 -12510635.121 3
  25578059.262    -1492106.374 2  -1162678.934 1
 91  7 27  4 50 30.0050000  0  5 17 23 11 21 12
  25556205.901    25651980.320 2  19988550.194 1
  23098144.881    -4408868.546 4  -3435452.669 2
  23078763.588   -15595845.634 4 -12152593.952 2
  21915729.540   -16058050.644 4 -12512731.007 3
  25574492.961    -1510793.414 2  -1177240.238 1
 91  7 27  4 50 45.0050000  0  5 17 23 11 21 12
  25566779.581    25707550.783 2  20031851.792 1
  23105258.079    -4371486.846 4  -3406324.087 2
  23074631.271   -15617572.563 4 -12169524.009 2
  21915228.893   -16060662.497 4 -12514766.211 3
  25570968.296    -1529357.962 2  -1191706.056 1
 91  7 27  4 51  0.0050000  0  5 17 23 11 21 12
  25577358.950    25763156.647 2  20075181.020 1
  23112380.525    -4334064.029 4  -3377163.457 2
  23070523.804   -15639163.137 4 -12186347.820 2
  21914750.129   -16063197.549 4 -12516741.561 3
  25567465.200    -1547800.667 2  -1206076.978 1
 91  7 27  4 51 15.0050000  0  5 17 23 11 21 12
  25587952.733    25818799.558 2  20118539.093 1
  23119509.288    -4296598.637 4  -3347969.632 2
  23066442.443   -15660615.239 4 -12203063.730 2
  21914281.556   -16065654.127 4 -12518655.758 3
  25563969.642    -1566119.419 2  -1220351.335 1
 91  7 27  4 51 30.0050000  0  5 17 23 11 21 12
  25598542.886    25874479.905 2  20161926.373 1
  23126647.055    -4259090.191 4  -3318742.267 2
  23062388.932   -15681928.162 4 -12219671.188 2
  21913829.455   -16068031.745 4 -12520508.438 3
  25560511.532    -1584313.569 2  -1234528.471 1
 91  7 27  4 51 45.0050000  0  5 17 23 11 21 12
  25609151.955    25930196.627 2  20205341.967 1
  23133792.919    -4221539.658 4  -3289482.125 2
  23058359.432   -15703102.420 4 -12236170.592 2
  21913390.582   -16070331.191 4 -12522300.203 3
  25557075.305    -1602383.551 2  -1248609.006 1
 91  7 27  4 52  0.0050000  0  5 17 23 11 21 12
  25619763.712    25985949.706 2  20248785.958 1
  23140944.472    -4183947.188 4  -3260189.283 2
  23054352.094   -15724137.820 4 -12252561.803 2
  21912970.556   -16072552.602 4 -12524031.162 3
  25553657.680    -1620329.034 2  -1262592.448 1
 91  7 27  4 52 15.0050000  0  5 17 23 11 21 12
  25630376.969    26041738.485 2  20292257.667 1
  23148107.682    -4146313.097 4  -3230864.020 2
  23050377.458   -15745034.334 4 -12268844.786 2
  21912561.941   -16074696.175 4 -12525701.465 3
  25550266.719    -1638150.036 2  -1276478.846 1
 91  7 27  4 52 30.0050000  0  5 17 23 11 21 12
  25641001.604    26097564.701 2  20335758.656 1
  23155275.743    -4108635.862 4  -3201505.154 2
  23046430.673   -15765789.644 4 -12285017.748 2
  21912171.022   -16076760.237 4 -12527309.811 3
  25546895.546    -1655844.403 2  -1290266.684 1
 91  7 27  4 52 45.0050000  0  5 17 23 11 21 12
  25651631.648    26153427.683 2  20379288.188 1
  23162456.682    -4070916.198 4  -3172113.195 2
  23042506.991   -15786404.031 4 -12301080.901 2
  21911792.073   -16078745.338 4 -12528856.634 3
  25543554.074    -1673412.288 2  -1303955.917 1
 91  7 27  4 53  0.0050000  0  5 17 23 11 21 12
  25662268.568    26209327.650 2  20422846.567 1
  23169642.681    -4033153.814 4  -3142687.959 2
  23038608.194   -15806876.807 4 -12317033.715 2
  21911427.538   -16080651.212 4 -12530341.716 3
  25540229.982    -1690853.041 2  -1317546.078 1
 91  7 27  4 53 15.0050000  0  5 17 23 11 21 12
  25672906.710    26265265.045 2  20466434.068 1
  23176836.813    -3995348.453 4  -3113229.234 2
  23034742.063   -15827207.292 4 -12332875.623 2
  21911079.476   -16082477.478 4 -12531764.761 3
  25536944.525    -1708165.986 2  -1331036.593 1
 91  7 27  4 53 30.0050000  0  5 17 23 11 21 12
  25683562.546    26321239.726 2  20510050.765 1
  23184038.413    -3957500.109 4  -3083737.032 2
  23030900.851   -15847395.053 4 -12348606.333 2
  21910747.607   -16084224.068 4 -12533125.723 3
  25533675.017    -1725350.627 2  -1344427.205 1
 91  7 27  4 53 45.0050000  0  5 17 23 11 21 12
  25694229.759    26377251.072 2  20553695.891 1
  23191247.831    -3919609.420 4  -3054211.817 2
  23027084.489   -15867440.188 4 -12364225.909 2
  21910431.025   -16085891.362 4 -12534424.902 3
  25530422.262    -1742407.043 2  -1357717.976 1
 91  7 27  4 54  0.0050000  0  5 17 23 11 21 12
  25704888.561    26433296.967 2  20597367.998 1
  23198465.625    -3881678.512 4  -3024655.270 2
  23023295.418   -15887344.361 4 -12379735.633 2
  21910128.229   -16087481.519 4 -12535663.969 3
  25527205.488    -1759336.944 2  -1370910.039 1
 91  7 27  4 54 15.0050000  0  5 17 23 11 21 12
  25715559.998    26489378.752 2  20641068.012 1
  23205688.828    -3843706.103 4  -2995066.394 2
  23019532.104   -15907105.990 4 -12395134.293 2
  21909842.534   -16088993.272 4 -12536841.948 3
  25524013.878    -1776138.676 2  -1384002.279 1
 91  7 27  4 54 30.0050000  0  5 17 23 11 21 12
  25726242.497    26545503.095 2  20684801.289 1
  23212927.912    -3805685.343 4  -2965439.824 2
  23015805.401   -15926717.870 4 -12410416.268 2
  21909570.311   -16090419.560 4 -12537953.318 3
  25520836.997    -1792804.962 2  -1396988.964 1
 91  7 27  4 54 45.0050000  0  5 17 23 11 21 12
  25736919.308    26601665.693 2  20728564.282 1
  23220170.624    -3767620.735 4  -2935779.086 2
  23012103.861   -15946183.943 4 -12425584.617 2
  21909313.095   -16091764.634 4 -12539001.425 3
  25517685.557    -1809339.616 2  -1409873.114 1
 91  7 27  4 55  0.0050000  0  5 17 23 11 21 12
  25747623.377    26657865.724 2  20772356.495 1
  23227420.806    -3729512.993 4  -2906084.757 2
  23008425.110   -15965504.479 4 -12440639.565 2
  21909071.165   -16093029.228 4 -12539986.806 3
  25514561.445    -1825743.126 2  -1422655.014 1
 91  7 27  4 55 15.0050000  0  5 17 23 11 21 12
  25758328.073    26714103.527 2  20816178.143 1
  23234682.679    -3691361.877 4  -2876356.604 2
  23004777.526   -15984678.807 4 -12455580.583 2
  21908848.116   -16094213.094 4 -12540909.289 3
  25511468.777    -1842014.761 2  -1435334.162 1
 91  7 27  4 55 30.0050000  0  5 17 23 11 21 12
  25769038.773    26770379.292 2  20860029.353 1
  23241950.834    -3653166.991 4  -2846594.362 2
  23001154.233   -16003706.055 4 -12470407.003 2
  21908637.352   -16095315.734 4 -12541768.476 3
  25508383.614    -1858153.646 2  -1447909.875 1
 91  7 27  4 55 45.0050000  0  5 17 23 11 21 12
  25779743.155    26826692.511 2  20903909.716 1
  23249228.901    -3614928.723 4  -2816798.298 2
  22997560.326   -16022586.299 4 -12485118.861 2
  21908445.191   -16096337.497 4 -12542564.639 3
  25505351.813    -1874159.860 2  -1460382.229 1
 91  7 27  4 56  0.0050000  0  5 17 23 11 21 12
  25790469.734    26883044.189 2  20947820.039 1
  23256513.565    -3576646.242 4  -2786967.801 2
  22993993.990   -16041318.267 4 -12499715.174 2
  21908264.127   -16097277.355 4 -12543296.981 3
  25502339.207    -1890031.959 2  -1472750.097 1
 91  7 27  4 56 15.0050000  0  5 17 23 11 21 12
  25801195.999    26939432.474 2  20991758.938 1
  23263803.009    -3538321.581 4  -2757104.421 2
  22990461.228   -16059903.514 4 -12514197.178 2
  21908100.723   -16098137.276 4 -12543967.033 3
  25499339.759    -1905771.597 2  -1485014.694 1
 91  7 27  4 56 30.0050000  0  5 17 23 11 21 12
  25811936.364    26995857.539 2  21035726.507 1
  23271105.332    -3499954.602 4  -2727208.074 2
  22986949.476   -16078341.411 4 -12528564.352 2
  21907953.234   -16098917.023 4 -12544574.612 3
  25496365.230    -1921378.108 2  -1497175.634 1
 91  7 27  4 56 45.0050000  0  5 17 23 11 21 12
  25822684.511    27052318.324 2  21079721.809 1
  23278414.007    -3461546.209 4  -2697279.454 2
  22983469.763   -16096632.662 4 -12542817.253 2
  21907821.345   -16099617.548 4 -12545120.459 3
  25493425.462    -1936852.210 2  -1509233.300 1
 91  7 27  4 57  0.0050000  0  5 17 23 11 21 12
  25833432.694    27108814.828 2  21123745.097 1
  23285732.209    -3423096.186 4  -2667318.401 2
  22980020.379   -16114776.490 4 -12556955.296 2
  21907696.018   -16100238.379 4 -12545604.211 3
  25490503.109    -1952193.195 2  -1521187.277 1
 91  7 27  4 57 15.0050000  0  5 17 23 11 21 12
  25844192.533    27165347.350 2  21167796.313 1
  23293058.858    -3384604.466 4  -2637324.847 2
  22976591.341   -16132772.302 4 -12570977.978 2
  21907600.670   -16100779.260 4 -12546025.672 3
  25487614.295    -1967400.390 2  -1533037.026 1
 91  7 27  4 57 30.0050000  0  5 17 23 11 21 12
  25854964.378    27221914.668 2  21211874.727 1
  23300389.973    -3346072.033 4  -2607299.576 2
  22973200.101   -16150620.594 4 -12584885.717 2
  21907510.732   -16101241.122 4 -12546385.558 3
  25484741.396    -1982474.423 2  -1544783.060 1
 91  7 27  4 57 45.0050000  0  5 17 23 11 21 12
  25865721.844    27278517.475 2  21255980.744 1
  23307731.908    -3307498.248 4  -2577242.080 2
  22969829.801   -16168320.585 4 -12598677.896 2
  21907434.893   -16101623.400 4 -12546683.418 3
  25481902.036    -1997414.470 2  -1556424.567 1
 91  7 27  4 58  0.0050000  0  5 17 23 11 21 12
  25876507.753    27335153.515 2  21300112.730 1
  23315077.124    -3268885.391 4  -2547154.138 2
  22966489.515   -16185874.008 4 -12612355.872 2
  21907378.529   -16101928.155 4 -12546920.876 3
  25479083.686    -2012222.178 2  -1567963.021 1
 91  7 27  4 58 15.0050000  0  5 17 23 11 21 12
  25887291.918    27391822.497 2  21344270.332 1
  23322433.123    -3230233.775 4  -2517036.001 2
  22963174.741   -16203280.620 4 -12625919.442 2
  21907336.578   -16102155.586 4 -12547098.083 3
  25476289.941    -2026897.260 2  -1579398.113 1
 91  7 27  4 58 30.0050000  0  5 17 23 11 21 12
  25898070.638    27448524.996 2  21388454.067 1
  23329796.312    -3191542.949 4  -2486887.313 2
  22959891.099   -16220539.630 4 -12639368.005 2
  21907307.192   -16102305.087 4 -12547214.558 3
  25473526.734    -2041438.837 2  -1590729.190 1
 91  7 27  4 58 45.0050000  0  5 17 23 11 21 12
  25908872.463    27505258.916 2  21432662.232 1
  23337163.725    -3152814.920 4  -2456709.625 2
  22956637.750   -16237652.597 4 -12652702.765 2
  21907294.593   -16102378.599 4 -12547271.828 3
  25470785.130    -2055848.597 2  -1601957.549 1
 91  7 27  4 59  0.0050000  0  5 17 23 11 21 12
  25919677.568    27562026.382 2  21476896.605 1
  23344542.514    -3114047.294 4  -2426501.076 2
  22953405.377   -16254616.799 4 -12665921.595 2
  21907296.687   -16102373.844 4 -12547268.097 3
  25468061.535    -2070123.886 2  -1613081.153 1
 91  7 27  4 59 15.0050000  0  5 17 23 11 21 12
  25930486.896    27618825.960 2  21521155.950 1
  23351926.993    -3075241.655 4  -2396262.916 2
  22950205.705   -16271433.504 4 -12679025.510 2
  21907308.972   -16102292.232 4 -12547204.489 3
  25465376.575    -2084265.803 2  -1624100.846 1
 91  7 27  4 59 30.0050000  0  5 17 23 11 21 12
  25941300.726    27675656.220 2  21565439.282 1
  23359317.195    -3036399.271 4  -2365996.130 2
  22947033.290   -16288103.620 4 -12692015.187 2
  21907340.173   -16102134.966 4 -12547081.935 3
  25462710.217    -2098275.142 2  -1635017.160 1
 91  7 27  4 59 45.0050000  0  5 17 23 11 21 12
  25952123.525    27732518.309 2  21609747.339 1
  23366716.052    -2997519.244 4  -2335699.997 2
  22943885.794   -16304625.625 4 -12704889.461 2
  21907384.217   -16101900.895 4 -12546899.525 3
  25460063.682    -2112150.518 2  -1645829.080 1
 91  7 27  5  0  0.0050000  0  5 17 23 11 21 12
  25962943.917    27789411.576 2  21654079.751 1
  23374121.541    -2958601.966 4  -2305374.843 2
  22940774.525   -16320999.572 4 -12717648.347 2
  21907444.176   -16101590.400 4 -12546657.563 3
  25457445.870    -2125892.009 2  -1656536.771 1
 91  7 27  5  0 15.0050000  0  5 17 23 11 21 12
  25973782.317    27846334.867 2  21698435.509 1
  23381533.591    -2919648.556 4  -2275021.532 2
  22937690.583   -16337226.076 4 -12730292.360 2
  21907513.140   -16101204.525 4 -12546356.874 3
  25454857.758    -2139500.198 2  -1667140.491 1
 91  7 27  5  0 30.0050000  0  5 17 23 11 21 12
  25984609.619    27903287.168 2  21742813.907 1
  23388957.367    -2880660.367 4  -2244641.125 2
  22934628.174   -16353306.096 4 -12742822.231 2
  21907604.893   -16100744.423 4 -12545998.337 3
  25452299.626    -2152976.018 2  -1677641.085 1
 91  7 27  5  0 45.0050000  0  5 17 23 11 21 12
  25995461.525    27960268.609 2  21787214.955 1
  23396379.608    -2841637.125 4  -2214233.392 2
  22931595.187   -16369239.048 4 -12755237.500 2
  21907707.395   -16100209.781 4 -12545581.722 3
  25449755.908    -2166318.810 2  -1688038.012 1
 91  7 27  5  1  0.0050000  0  5 17 23 11 21 12
  26006306.207    28017276.219 2  21831636.501 1
  23403812.074    -2802581.625 4  -2183800.537 2
  22928590.678   -16385027.337 4 -12767540.042 2
  21907823.719   -16099603.431 4 -12545109.223 3
  25447239.447    -2179530.969 2  -1698333.185 1
 91  7 27  5  1 15.0050000  0  5 17 23 11 21 12
  26017163.209    28074309.557 2  21876078.009 1
  23411246.914    -2763494.422 4  -2153342.976 2
  22925613.113   -16400671.025 4 -12779729.922 2
  21907950.233   -16098925.888 4 -12544581.252 3
  25444753.279    -2192612.705 2  -1708526.729 1
